Wetterdaten: Freitag, 07.09.2018
Datum Zeit Temp. A. Pool Temp. Temp. 5cm Feuchte A. Luftdruck Regen Wind Richtung Richtung Sonnenschein ET UV Solar Taupunkt Windchill Windben Empfang
07.09.2018 00:00 16,4 C 21,1 C 13,3 C 81 % 1008,9 hPa 0,0 l/m 0,0 km/h (0 Bft) O-SO 106 0 min 0,000 mm 0,0 UV-I 0 W/m 13,1 C 16,4 C 0,0 km/h (0 Bft) 95,74 %
07.09.2018 00:02 16,3 C 21,1 C 13,3 C 81 % 1009,0 hPa 0,0 l/m 0,0 km/h (0 Bft) O-SO 113 0 min 0,000 mm 0,0 UV-I 0 W/m 13,0 C 16,3 C 0,0 km/h (0 Bft) 97,67 %
07.09.2018 00:04 16,2 C 21,1 C 12,8 C 81 % 1009,0 hPa 0,0 l/m 0,0 km/h (0 Bft) SO 139 0 min 0,000 mm 0,0 UV-I 0 W/m 12,9 C 16,2 C 0,0 km/h (0 Bft) 97,87 %
07.09.2018 00:06 16,1 C 21,1 C 13,3 C 82 % 1009,0 hPa 0,0 l/m 0,0 km/h (0 Bft) O-SO 122 0 min 0,000 mm 0,0 UV-I 0 W/m 13,0 C 16,1 C 1,6 km/h (1 Bft) 93,62 %
07.09.2018 00:08 15,9 C 21,1 C 13,3 C 82 % 1009,0 hPa 0,0 l/m 0,1 km/h (0 Bft) O 92 0 min 0,000 mm 0,0 UV-I 0 W/m 12,8 C 15,9 C 1,6 km/h (1 Bft) 93,62 %
07.09.2018 00:10 16,0 C 21,1 C 12,8 C 82 % 1009,0 hPa 0,0 l/m 0,0 km/h (0 Bft) O-SO 105 0 min 0,000 mm 0,0 UV-I 0 W/m 12,9 C 16,0 C 0,0 km/h (0 Bft) 93,62 %
07.09.2018 00:12 16,1 C 21,1 C 12,8 C 82 % 1009,0 hPa 0,0 l/m 0,1 km/h (0 Bft) O-SO 119 0 min 0,000 mm 0,0 UV-I 0 W/m 13,0 C 16,1 C 1,6 km/h (1 Bft) 97,92 %
07.09.2018 00:14 16,3 C 21,1 C 12,8 C 81 % 1009,0 hPa 0,0 l/m 0,0 km/h (0 Bft) O-SO 119 0 min 0,000 mm 0,0 UV-I 0 W/m 13,0 C 16,3 C 0,0 km/h (0 Bft) 93,62 %
07.09.2018 00:16 16,3 C 21,1 C 12,8 C 80 % 1009,1 hPa 0,0 l/m 0,0 km/h (0 Bft) O-SO 119 0 min 0,000 mm 0,0 UV-I 0 W/m 12,8 C 16,3 C 0,0 km/h (0 Bft) 94,74 %
07.09.2018 00:18 15,9 C 21,1 C 13,3 C 81 % 1009,1 hPa 0,0 l/m 0,0 km/h (0 Bft) O-SO 119 0 min 0,000 mm 0,0 UV-I 0 W/m 12,6 C 15,9 C 0,0 km/h (0 Bft) 96,00 %
07.09.2018 00:20 15,6 C 21,1 C 12,8 C 83 % 1009,1 hPa 0,0 l/m 0,0 km/h (0 Bft) O-SO 119 0 min 0,000 mm 0,0 UV-I 0 W/m 12,7 C 15,6 C 0,0 km/h (0 Bft) 95,74 %
07.09.2018 00:22 15,4 C 21,1 C 12,8 C 84 % 1009,0 hPa 0,0 l/m 0,0 km/h (0 Bft) O-SO 119 0 min 0,000 mm 0,0 UV-I 0 W/m 12,7 C 15,4 C 0,0 km/h (0 Bft) 95,74 %
07.09.2018 00:24 15,4 C 21,1 C 12,8 C 84 % 1009,0 hPa 0,0 l/m 0,0 km/h (0 Bft) O-SO 119 0 min 0,000 mm 0,0 UV-I 0 W/m 12,7 C 15,4 C 0,0 km/h (0 Bft) 96,00 %
07.09.2018 00:26 15,4 C 21,1 C 12,2 C 84 % 1009,0 hPa 0,0 l/m 0,0 km/h (0 Bft) O-SO 119 0 min 0,000 mm 0,0 UV-I 0 W/m 12,7 C 15,4 C 0,0 km/h (0 Bft) 91,49 %
07.09.2018 00:28 15,4 C 21,1 C 12,2 C 84 % 1009,0 hPa 0,0 l/m 0,0 km/h (0 Bft) O-SO 119 0 min 0,000 mm 0,0 UV-I 0 W/m 12,7 C 15,4 C 0,0 km/h (0 Bft) 93,62 %
07.09.2018 00:30 15,5 C 21,1 C 12,2 C 84 % 1008,9 hPa 0,0 l/m 0,0 km/h (0 Bft) O-SO 119 0 min 0,000 mm 0,0 UV-I 0 W/m 12,8 C 15,5 C 0,0 km/h (0 Bft) 91,67 %
07.09.2018 00:32 15,4 C 21,1 C 12,2 C 84 % 1008,9 hPa 0,0 l/m 0,0 km/h (0 Bft) O-SO 119 0 min 0,000 mm 0,0 UV-I 0 W/m 12,7 C 15,4 C 0,0 km/h (0 Bft) 91,49 %
07.09.2018 00:34 15,4 C 21,1 C 11,7 C 84 % 1008,9 hPa 0,0 l/m 0,0 km/h (0 Bft) O-SO 119 0 min 0,000 mm 0,0 UV-I 0 W/m 12,7 C 15,4 C 0,0 km/h (0 Bft) 94,00 %
07.09.2018 00:36 15,5 C 21,1 C 11,7 C 84 % 1008,9 hPa 0,0 l/m 0,0 km/h (0 Bft) O-SO 119 0 min 0,000 mm 0,0 UV-I 0 W/m 12,8 C 15,5 C 0,0 km/h (0 Bft) 91,43 %
07.09.2018 00:38 15,6 C 21,1 C 12,2 C 84 % 1008,9 hPa 0,0 l/m 0,0 km/h (0 Bft) O-SO 119 0 min 0,000 mm 0,0 UV-I 0 W/m 12,9 C 15,6 C 0,0 km/h (0 Bft) 91,49 %
07.09.2018 00:40 15,6 C 21,1 C 12,2 C 84 % 1008,9 hPa 0,0 l/m 0,0 km/h (0 Bft) O-SO 119 0 min 0,000 mm 0,0 UV-I 0 W/m 12,9 C 15,6 C 0,0 km/h (0 Bft) 93,62 %
07.09.2018 00:42 15,3 C 21,1 C 12,2 C 83 % 1008,9 hPa 0,0 l/m 0,0 km/h (0 Bft) O-SO 119 0 min 0,000 mm 0,0 UV-I 0 W/m 12,4 C 15,3 C 0,0 km/h (0 Bft) 93,62 %
07.09.2018 00:44 15,0 C 21,1 C 12,2 C 84 % 1008,9 hPa 0,0 l/m 0,0 km/h (0 Bft) O-SO 119 0 min 0,000 mm 0,0 UV-I 0 W/m 12,3 C 15,0 C 0,0 km/h (0 Bft) 95,74 %
07.09.2018 00:46 14,8 C 21,1 C 12,2 C 85 % 1008,9 hPa 0,0 l/m 0,0 km/h (0 Bft) O-SO 119 0 min 0,000 mm 0,0 UV-I 0 W/m 12,3 C 14,8 C 0,0 km/h (0 Bft) 93,62 %
07.09.2018 00:48 14,7 C 21,1 C 12,2 C 86 % 1008,9 hPa 0,0 l/m 0,0 km/h (0 Bft) O-SO 119 0 min 0,000 mm 0,0 UV-I 0 W/m 12,4 C 14,7 C 0,0 km/h (0 Bft) 96,00 %
07.09.2018 00:50 14,7 C 21,1 C 12,2 C 86 % 1008,9 hPa 0,0 l/m 0,0 km/h (0 Bft) O-SO 119 0 min 0,000 mm 0,0 UV-I 0 W/m 12,4 C 14,7 C 0,0 km/h (0 Bft) 97,87 %
07.09.2018 00:52 14,7 C 21,1 C 12,2 C 86 % 1008,9 hPa 0,0 l/m 0,0 km/h (0 Bft) O-SO 119 0 min 0,000 mm 0,0 UV-I 0 W/m 12,4 C 14,7 C 0,0 km/h (0 Bft) 97,87 %
07.09.2018 00:54 14,8 C 21,1 C 12,2 C 86 % 1008,8 hPa 0,0 l/m 0,0 km/h (0 Bft) O-SO 119 0 min 0,000 mm 0,0 UV-I 0 W/m 12,5 C 14,8 C 0,0 km/h (0 Bft) 100,00 %
07.09.2018 00:56 14,7 C 21,1 C 12,2 C 86 % 1008,8 hPa 0,0 l/m 0,0 km/h (0 Bft) O-SO 119 0 min 0,000 mm 0,0 UV-I 0 W/m 12,4 C 14,7 C 0,0 km/h (0 Bft) 98,00 %
07.09.2018 00:58 14,7 C 21,1 C 12,2 C 86 % 1008,8 hPa 0,0 l/m 0,0 km/h (0 Bft) O-SO 119 0 min 0,000 mm 0,0 UV-I 0 W/m 12,4 C 14,7 C 0,0 km/h (0 Bft) 100,00 %
07.09.2018 01:00 14,6 C 21,1 C 12,2 C 86 % 1008,8 hPa 0,0 l/m 0,0 km/h (0 Bft) O-SO 119 0 min 0,000 mm 0,0 UV-I 0 W/m 12,3 C 14,6 C 0,0 km/h (0 Bft) 100,00 %
07.09.2018 01:02 14,6 C 21,1 C 12,2 C 87 % 1008,9 hPa 0,0 l/m 0,0 km/h (0 Bft) O-SO 119 0 min 0,000 mm 0,0 UV-I 0 W/m 12,5 C 14,6 C 0,0 km/h (0 Bft) 97,87 %
07.09.2018 01:04 14,5 C 21,1 C 12,2 C 86 % 1008,9 hPa 0,0 l/m 0,0 km/h (0 Bft) O-SO 119 0 min 0,000 mm 0,0 UV-I 0 W/m 12,2 C 14,5 C 0,0 km/h (0 Bft) 100,00 %
07.09.2018 01:06 14,3 C 21,1 C 12,2 C 87 % 1008,8 hPa 0,0 l/m 0,0 km/h (0 Bft) O-SO 119 0 min 0,000 mm 0,0 UV-I 0 W/m 12,2 C 14,3 C 0,0 km/h (0 Bft) 100,00 %
07.09.2018 01:08 14,2 C 21,1 C 12,2 C 87 % 1008,8 hPa 0,0 l/m 0,0 km/h (0 Bft) O-SO 119 0 min 0,000 mm 0,0 UV-I 0 W/m 12,1 C 14,2 C 0,0 km/h (0 Bft) 100,00 %
07.09.2018 01:10 14,1 C 21,1 C 12,2 C 88 % 1008,8 hPa 0,0 l/m 0,0 km/h (0 Bft) O-SO 119 0 min 0,000 mm 0,0 UV-I 0 W/m 12,1 C 14,1 C 0,0 km/h (0 Bft) 100,00 %
07.09.2018 01:12 14,1 C 21,1 C 12,2 C 88 % 1008,8 hPa 0,0 l/m 0,0 km/h (0 Bft) O-SO 119 0 min 0,000 mm 0,0 UV-I 0 W/m 12,1 C 14,1 C 0,0 km/h (0 Bft) 100,00 %
07.09.2018 01:14 14,0 C 21,1 C 12,2 C 89 % 1008,8 hPa 0,0 l/m 0,0 km/h (0 Bft) O-SO 119 0 min 0,000 mm 0,0 UV-I 0 W/m 12,2 C 14,0 C 0,0 km/h (0 Bft) 95,74 %
07.09.2018 01:16 13,9 C 21,1 C 12,2 C 88 % 1008,9 hPa 0,0 l/m 0,0 km/h (0 Bft) O-SO 119 0 min 0,000 mm 0,0 UV-I 0 W/m 11,9 C 13,9 C 0,0 km/h (0 Bft) 100,00 %
07.09.2018 01:18 13,9 C 21,1 C 12,2 C 89 % 1008,8 hPa 0,0 l/m 0,0 km/h (0 Bft) O-SO 119 0 min 0,000 mm 0,0 UV-I 0 W/m 12,1 C 13,9 C 0,0 km/h (0 Bft) 100,00 %
07.09.2018 01:20 13,9 C 21,1 C 12,2 C 89 % 1008,8 hPa 0,0 l/m 0,0 km/h (0 Bft) O-SO 119 0 min 0,000 mm 0,0 UV-I 0 W/m 12,1 C 13,9 C 0,0 km/h (0 Bft) 100,00 %
07.09.2018 01:22 13,8 C 21,1 C 12,2 C 89 % 1008,9 hPa 0,0 l/m 0,0 km/h (0 Bft) O-SO 119 0 min 0,000 mm 0,0 UV-I 0 W/m 12,0 C 13,8 C 0,0 km/h (0 Bft) 97,87 %
07.09.2018 01:24 13,9 C 21,1 C 12,2 C 90 % 1008,8 hPa 0,0 l/m 0,0 km/h (0 Bft) O-SO 119 0 min 0,000 mm 0,0 UV-I 0 W/m 12,3 C 13,9 C 0,0 km/h (0 Bft) 100,00 %
07.09.2018 01:26 14,0 C 21,1 C 12,2 C 89 % 1008,9 hPa 0,0 l/m 0,0 km/h (0 Bft) O-SO 119 0 min 0,000 mm 0,0 UV-I 0 W/m 12,2 C 14,0 C 0,0 km/h (0 Bft) 100,00 %
07.09.2018 01:28 14,1 C 21,1 C 12,2 C 89 % 1008,9 hPa 0,0 l/m 0,0 km/h (0 Bft) S 179 0 min 0,000 mm 0,0 UV-I 0 W/m 12,3 C 14,1 C 0,0 km/h (0 Bft) 100,00 %
07.09.2018 01:30 14,0 C 21,1 C 12,2 C 89 % 1008,9 hPa 0,0 l/m 0,0 km/h (0 Bft) SW 219 0 min 0,000 mm 0,0 UV-I 0 W/m 12,2 C 14,0 C 0,0 km/h (0 Bft) 100,00 %
07.09.2018 01:32 13,9 C 21,1 C 12,2 C 89 % 1008,9 hPa 0,0 l/m 0,0 km/h (0 Bft) SW 219 0 min 0,000 mm 0,0 UV-I 0 W/m 12,1 C 13,9 C 0,0 km/h (0 Bft) 100,00 %
07.09.2018 01:34 13,8 C 21,1 C 12,2 C 90 % 1008,9 hPa 0,0 l/m 0,0 km/h (0 Bft) SW 220 0 min 0,000 mm 0,0 UV-I 0 W/m 12,2 C 13,8 C 0,0 km/h (0 Bft) 100,00 %
07.09.2018 01:36 13,8 C 21,1 C 12,2 C 90 % 1008,9 hPa 0,0 l/m 0,0 km/h (0 Bft) SW 220 0 min 0,000 mm 0,0 UV-I 0 W/m 12,2 C 13,8 C 0,0 km/h (0 Bft) 100,00 %
07.09.2018 01:38 13,8 C 21,1 C 12,2 C 89 % 1008,9 hPa 0,0 l/m 0,0 km/h (0 Bft) SW 220 0 min 0,000 mm 0,0 UV-I 0 W/m 12,0 C 13,8 C 0,0 km/h (0 Bft) 100,00 %
07.09.2018 01:40 13,8 C 21,1 C 12,2 C 90 % 1009,0 hPa 0,0 l/m 0,0 km/h (0 Bft) SW 219 0 min 0,000 mm 0,0 UV-I 0 W/m 12,2 C 13,8 C 0,0 km/h (0 Bft) 95,74 %
07.09.2018 01:42 13,8 C 21,1 C 12,2 C 90 % 1009,0 hPa 0,0 l/m 0,0 km/h (0 Bft) SW 219 0 min 0,000 mm 0,0 UV-I 0 W/m 12,2 C 13,8 C 0,0 km/h (0 Bft) 97,87 %
07.09.2018 01:44 13,7 C 21,1 C 12,2 C 89 % 1009,0 hPa 0,0 l/m 0,0 km/h (0 Bft) SW 227 0 min 0,000 mm 0,0 UV-I 0 W/m 11,9 C 13,7 C 0,0 km/h (0 Bft) 95,74 %
07.09.2018 01:46 13,7 C 21,1 C 12,2 C 90 % 1009,0 hPa 0,0 l/m 0,3 km/h (0 Bft) SW 225 0 min 0,000 mm 0,0 UV-I 0 W/m 12,1 C 13,7 C 3,2 km/h (1 Bft) 95,83 %
07.09.2018 01:48 13,8 C 21,1 C 12,2 C 90 % 1009,0 hPa 0,0 l/m 0,0 km/h (0 Bft) SW 225 0 min 0,000 mm 0,0 UV-I 0 W/m 12,2 C 13,8 C 0,0 km/h (0 Bft) 97,87 %
07.09.2018 01:50 13,8 C 21,1 C 12,2 C 90 % 1009,1 hPa 0,0 l/m 0,0 km/h (0 Bft) SW 225 0 min 0,000 mm 0,0 UV-I 0 W/m 12,2 C 13,8 C 0,0 km/h (0 Bft) 97,37 %
07.09.2018 01:52 13,9 C 21,1 C 12,2 C 90 % 1009,0 hPa 0,0 l/m 0,0 km/h (0 Bft) SW 225 0 min 0,000 mm 0,0 UV-I 0 W/m 12,3 C 13,9 C 0,0 km/h (0 Bft) 97,87 %
07.09.2018 01:54 13,9 C 21,1 C 12,2 C 90 % 1009,0 hPa 0,0 l/m 0,0 km/h (0 Bft) SW 225 0 min 0,000 mm 0,0 UV-I 0 W/m 12,3 C 13,9 C 0,0 km/h (0 Bft) 95,74 %
07.09.2018 01:56 13,8 C 20,6 C 11,7 C 89 % 1009,0 hPa 0,0 l/m 0,0 km/h (0 Bft) SW 225 0 min 0,000 mm 0,0 UV-I 0 W/m 12,0 C 13,8 C 0,0 km/h (0 Bft) 97,87 %
07.09.2018 01:58 13,7 C 20,6 C 11,7 C 90 % 1009,0 hPa 0,0 l/m 0,0 km/h (0 Bft) SW 225 0 min 0,000 mm 0,0 UV-I 0 W/m 12,1 C 13,7 C 0,0 km/h (0 Bft) 97,87 %
07.09.2018 02:00 13,7 C 20,6 C 11,7 C 90 % 1009,0 hPa 0,0 l/m 0,0 km/h (0 Bft) SW 225 0 min 0,000 mm 0,0 UV-I 0 W/m 12,1 C 13,7 C 0,0 km/h (0 Bft) 94,29 %
07.09.2018 02:02 13,7 C 20,6 C 11,7 C 90 % 1009,0 hPa 0,0 l/m 0,0 km/h (0 Bft) SW 225 0 min 0,000 mm 0,0 UV-I 0 W/m 12,1 C 13,7 C 0,0 km/h (0 Bft) 96,92 %
07.09.2018 02:04 13,7 C 20,6 C 11,7 C 90 % 1009,0 hPa 0,0 l/m 0,0 km/h (0 Bft) SW 225 0 min 0,000 mm 0,0 UV-I 0 W/m 12,1 C 13,7 C 0,0 km/h (0 Bft) 97,87 %
07.09.2018 02:06 13,8 C 20,6 C 11,7 C 90 % 1009,1 hPa 0,0 l/m 0,0 km/h (0 Bft) SW 225 0 min 0,000 mm 0,0 UV-I 0 W/m 12,2 C 13,8 C 0,0 km/h (0 Bft) 97,87 %
07.09.2018 02:08 13,8 C 20,6 C 12,2 C 90 % 1009,0 hPa 0,0 l/m 0,0 km/h (0 Bft) SW 225 0 min 0,000 mm 0,0 UV-I 0 W/m 12,2 C 13,8 C 0,0 km/h (0 Bft) 97,87 %
07.09.2018 02:10 13,7 C 20,6 C 12,2 C 90 % 1009,1 hPa 0,0 l/m 0,0 km/h (0 Bft) SW 225 0 min 0,000 mm 0,0 UV-I 0 W/m 12,1 C 13,7 C 0,0 km/h (0 Bft) 93,62 %
07.09.2018 02:12 13,5 C 20,6 C 12,2 C 90 % 1009,0 hPa 0,0 l/m 0,0 km/h (0 Bft) SW 225 0 min 0,000 mm 0,0 UV-I 0 W/m 11,9 C 13,5 C 0,0 km/h (0 Bft) 97,87 %
07.09.2018 02:14 13,3 C 20,6 C 11,7 C 90 % 1009,0 hPa 0,0 l/m 0,0 km/h (0 Bft) SW 225 0 min 0,000 mm 0,0 UV-I 0 W/m 11,7 C 13,3 C 0,0 km/h (0 Bft) 95,74 %
07.09.2018 02:16 13,3 C 20,6 C 11,7 C 91 % 1009,0 hPa 0,0 l/m 0,0 km/h (0 Bft) SW 225 0 min 0,000 mm 0,0 UV-I 0 W/m 11,9 C 13,3 C 0,0 km/h (0 Bft) 97,22 %
07.09.2018 02:18 13,3 C 20,6 C 11,7 C 91 % 1009,0 hPa 0,0 l/m 0,0 km/h (0 Bft) SW 225 0 min 0,000 mm 0,0 UV-I 0 W/m 11,9 C 13,3 C 0,0 km/h (0 Bft) 97,96 %
07.09.2018 02:20 13,4 C 20,6 C 11,7 C 91 % 1009,1 hPa 0,0 l/m 0,0 km/h (0 Bft) SW 225 0 min 0,000 mm 0,0 UV-I 0 W/m 12,0 C 13,4 C 0,0 km/h (0 Bft) 94,00 %
07.09.2018 02:22 13,4 C 20,6 C 12,2 C 91 % 1009,1 hPa 0,0 l/m 0,0 km/h (0 Bft) SW 224 0 min 0,000 mm 0,0 UV-I 0 W/m 12,0 C 13,4 C 0,0 km/h (0 Bft) 97,92 %
07.09.2018 02:24 13,4 C 20,6 C 12,2 C 91 % 1009,1 hPa 0,0 l/m 0,0 km/h (0 Bft) S-SW 209 0 min 0,000 mm 0,0 UV-I 0 W/m 12,0 C 13,4 C 0,0 km/h (0 Bft) 95,74 %
07.09.2018 02:26 13,5 C 20,6 C 12,2 C 91 % 1009,2 hPa 0,0 l/m 0,0 km/h (0 Bft) S-SW 205 0 min 0,000 mm 0,0 UV-I 0 W/m 12,1 C 13,5 C 0,0 km/h (0 Bft) 93,62 %
07.09.2018 02:28 13,6 C 20,6 C 12,2 C 91 % 1009,2 hPa 0,0 l/m 2,8 km/h (1 Bft) S-SW 206 0 min 0,000 mm 0,0 UV-I 0 W/m 12,2 C 13,6 C 6,4 km/h (2 Bft) 97,87 %
07.09.2018 02:30 13,7 C 20,6 C 12,8 C 92 % 1009,2 hPa 0,0 l/m 0,9 km/h (0 Bft) S-SW 205 0 min 0,000 mm 0,0 UV-I 0 W/m 12,4 C 13,7 C 4,8 km/h (1 Bft) 97,87 %
07.09.2018 02:32 13,7 C 20,6 C 12,8 C 91 % 1009,2 hPa 0,0 l/m 0,5 km/h (0 Bft) S-SW 205 0 min 0,000 mm 0,0 UV-I 0 W/m 12,3 C 13,7 C 3,2 km/h (1 Bft) 95,74 %
07.09.2018 02:34 13,7 C 20,6 C 12,8 C 92 % 1009,2 hPa 0,0 l/m 0,0 km/h (0 Bft) S-SW 205 0 min 0,000 mm 0,0 UV-I 0 W/m 12,4 C 13,7 C 0,0 km/h (0 Bft) 97,87 %
07.09.2018 02:36 13,7 C 20,6 C 12,8 C 92 % 1009,2 hPa 0,0 l/m 0,0 km/h (0 Bft) S-SW 205 0 min 0,000 mm 0,0 UV-I 0 W/m 12,4 C 13,7 C 0,0 km/h (0 Bft) 97,87 %
07.09.2018 02:38 13,7 C 20,6 C 12,8 C 91 % 1009,3 hPa 0,0 l/m 0,0 km/h (0 Bft) S-SW 205 0 min 0,000 mm 0,0 UV-I 0 W/m 12,3 C 13,7 C 0,0 km/h (0 Bft) 97,87 %
07.09.2018 02:40 13,7 C 20,6 C 12,8 C 91 % 1009,2 hPa 0,0 l/m 0,4 km/h (0 Bft) SW 217 0 min 0,000 mm 0,0 UV-I 0 W/m 12,3 C 13,7 C 3,2 km/h (1 Bft) 97,87 %
07.09.2018 02:42 13,8 C 20,6 C 12,8 C 92 % 1009,2 hPa 0,0 l/m 1,6 km/h (1 Bft) SW 233 0 min 0,000 mm 0,0 UV-I 0 W/m 12,5 C 13,8 C 4,8 km/h (1 Bft) 95,74 %
07.09.2018 02:44 13,8 C 20,6 C 12,8 C 92 % 1009,2 hPa 0,0 l/m 1,3 km/h (1 Bft) S-SW 207 0 min 0,000 mm 0,0 UV-I 0 W/m 12,5 C 13,8 C 3,2 km/h (1 Bft) 93,62 %
07.09.2018 02:46 13,8 C 20,6 C 12,8 C 92 % 1009,3 hPa 0,0 l/m 0,0 km/h (0 Bft) S-SW 207 0 min 0,000 mm 0,0 UV-I 0 W/m 12,5 C 13,8 C 0,0 km/h (0 Bft) 100,00 %
07.09.2018 02:48 13,8 C 20,6 C 12,8 C 92 % 1009,3 hPa 0,0 l/m 0,0 km/h (0 Bft) S-SW 206 0 min 0,000 mm 0,0 UV-I 0 W/m 12,5 C 13,8 C 0,0 km/h (0 Bft) 100,00 %
07.09.2018 02:50 13,7 C 20,6 C 12,8 C 92 % 1009,3 hPa 0,0 l/m 0,0 km/h (0 Bft) S-SW 212 0 min 0,000 mm 0,0 UV-I 0 W/m 12,4 C 13,7 C 0,0 km/h (0 Bft) 97,87 %
07.09.2018 02:52 13,7 C 20,6 C 12,8 C 92 % 1009,3 hPa 0,0 l/m 2,5 km/h (1 Bft) SW 232 0 min 0,000 mm 0,0 UV-I 0 W/m 12,4 C 13,7 C 6,4 km/h (2 Bft) 100,00 %
07.09.2018 02:54 13,6 C 20,6 C 12,8 C 92 % 1009,3 hPa 0,0 l/m 1,1 km/h (1 Bft) SW 223 0 min 0,000 mm 0,0 UV-I 0 W/m 12,3 C 13,6 C 4,8 km/h (1 Bft) 100,00 %
07.09.2018 02:56 13,6 C 20,6 C 12,8 C 92 % 1009,4 hPa 0,0 l/m 1,1 km/h (1 Bft) S-SW 204 0 min 0,000 mm 0,0 UV-I 0 W/m 12,3 C 13,6 C 4,8 km/h (1 Bft) 97,92 %
07.09.2018 02:58 13,4 C 20,6 C 12,8 C 92 % 1009,4 hPa 0,0 l/m 0,6 km/h (0 Bft) S-SW 213 0 min 0,000 mm 0,0 UV-I 0 W/m 12,1 C 13,4 C 4,8 km/h (1 Bft) 100,00 %
07.09.2018 03:00 13,4 C 20,6 C 12,8 C 92 % 1009,4 hPa 0,0 l/m 0,0 km/h (0 Bft) S-SW 207 0 min 0,000 mm 0,0 UV-I 0 W/m 12,1 C 13,4 C 0,0 km/h (0 Bft) 97,87 %
07.09.2018 03:02 13,4 C 20,6 C 12,2 C 92 % 1009,5 hPa 0,0 l/m 0,0 km/h (0 Bft) S-SW 213 0 min 0,000 mm 0,0 UV-I 0 W/m 12,1 C 13,4 C 0,0 km/h (0 Bft) 100,00 %
07.09.2018 03:04 13,4 C 20,6 C 12,2 C 92 % 1009,4 hPa 0,0 l/m 0,0 km/h (0 Bft) S-SW 213 0 min 0,000 mm 0,0 UV-I 0 W/m 12,1 C 13,4 C 0,0 km/h (0 Bft) 100,00 %
07.09.2018 03:06 13,4 C 20,6 C 12,2 C 93 % 1009,5 hPa 0,0 l/m 0,0 km/h (0 Bft) S-SW 213 0 min 0,000 mm 0,0 UV-I 0 W/m 12,3 C 13,4 C 0,0 km/h (0 Bft) 100,00 %
07.09.2018 03:08 13,4 C 20,6 C 12,2 C 93 % 1009,5 hPa 0,0 l/m 0,0 km/h (0 Bft) S-SW 213 0 min 0,000 mm 0,0 UV-I 0 W/m 12,3 C 13,4 C 0,0 km/h (0 Bft) 97,87 %
07.09.2018 03:10 13,4 C 20,6 C 11,7 C 93 % 1009,5 hPa 0,0 l/m 0,0 km/h (0 Bft) S-SW 213 0 min 0,000 mm 0,0 UV-I 0 W/m 12,3 C 13,4 C 0,0 km/h (0 Bft) 95,74 %
07.09.2018 03:12 13,4 C 20,6 C 12,2 C 93 % 1009,5 hPa 0,0 l/m 0,0 km/h (0 Bft) S-SW 213 0 min 0,000 mm 0,0 UV-I 0 W/m 12,3 C 13,4 C 0,0 km/h (0 Bft) 93,62 %
07.09.2018 03:14 13,4 C 20,6 C 12,2 C 93 % 1009,5 hPa 0,0 l/m 0,4 km/h (0 Bft) S-SW 210 0 min 0,000 mm 0,0 UV-I 0 W/m 12,3 C 13,4 C 4,8 km/h (1 Bft) 95,74 %
07.09.2018 03:16 13,3 C 20,6 C 12,2 C 92 % 1009,4 hPa 0,0 l/m 0,5 km/h (0 Bft) S-SW 202 0 min 0,000 mm 0,0 UV-I 0 W/m 12,0 C 13,3 C 4,8 km/h (1 Bft) 94,00 %
07.09.2018 03:18 13,3 C 20,6 C 12,2 C 93 % 1009,4 hPa 0,0 l/m 0,0 km/h (0 Bft) S-SW 201 0 min 0,000 mm 0,0 UV-I 0 W/m 12,2 C 13,3 C 0,0 km/h (0 Bft) 91,43 %
07.09.2018 03:20 13,4 C 20,6 C 12,2 C 93 % 1009,4 hPa 0,0 l/m 0,0 km/h (0 Bft) S-SW 201 0 min 0,000 mm 0,0 UV-I 0 W/m 12,3 C 13,4 C 0,0 km/h (0 Bft) 96,00 %
07.09.2018 03:22 13,4 C 20,6 C 12,2 C 93 % 1009,4 hPa 0,0 l/m 0,0 km/h (0 Bft) SW 217 0 min 0,000 mm 0,0 UV-I 0 W/m 12,3 C 13,4 C 0,0 km/h (0 Bft) 93,62 %
07.09.2018 03:24 13,3 C 20,6 C 12,2 C 93 % 1009,4 hPa 0,0 l/m 0,0 km/h (0 Bft) SW 217 0 min 0,000 mm 0,0 UV-I 0 W/m 12,2 C 13,3 C 0,0 km/h (0 Bft) 90,00 %
07.09.2018 03:26 13,3 C 20,6 C 12,2 C 93 % 1009,4 hPa 0,0 l/m 0,0 km/h (0 Bft) SW 219 0 min 0,000 mm 0,0 UV-I 0 W/m 12,2 C 13,3 C 0,0 km/h (0 Bft) 95,74 %
07.09.2018 03:28 13,4 C 20,6 C 12,2 C 93 % 1009,5 hPa 0,0 l/m 0,0 km/h (0 Bft) SW 219 0 min 0,000 mm 0,0 UV-I 0 W/m 12,3 C 13,4 C 0,0 km/h (0 Bft) 95,74 %
07.09.2018 03:30 13,4 C 20,6 C 12,2 C 93 % 1009,5 hPa 0,0 l/m 0,0 km/h (0 Bft) SW 215 0 min 0,000 mm 0,0 UV-I 0 W/m 12,3 C 13,4 C 0,0 km/h (0 Bft) 93,62 %
07.09.2018 03:32 13,3 C 20,6 C 12,2 C 93 % 1009,5 hPa 0,0 l/m 0,0 km/h (0 Bft) SW 217 0 min 0,000 mm 0,0 UV-I 0 W/m 12,2 C 13,3 C 0,0 km/h (0 Bft) 97,87 %
07.09.2018 03:34 13,3 C 20,6 C 12,2 C 93 % 1009,5 hPa 0,0 l/m 0,0 km/h (0 Bft) SW 217 0 min 0,000 mm 0,0 UV-I 0 W/m 12,2 C 13,3 C 0,0 km/h (0 Bft) 93,62 %
07.09.2018 03:36 13,3 C 20,6 C 12,2 C 93 % 1009,5 hPa 0,0 l/m 0,0 km/h (0 Bft) SW 217 0 min 0,000 mm 0,0 UV-I 0 W/m 12,2 C 13,3 C 0,0 km/h (0 Bft) 97,87 %
07.09.2018 03:38 13,3 C 20,6 C 12,2 C 93 % 1009,5 hPa 0,0 l/m 0,0 km/h (0 Bft) S-SW 212 0 min 0,000 mm 0,0 UV-I 0 W/m 12,2 C 13,3 C 0,0 km/h (0 Bft) 94,87 %
07.09.2018 03:40 13,3 C 20,6 C 12,2 C 93 % 1009,5 hPa 0,0 l/m 0,4 km/h (0 Bft) SW 214 0 min 0,000 mm 0,0 UV-I 0 W/m 12,2 C 13,3 C 3,2 km/h (1 Bft) 98,00 %
07.09.2018 03:42 13,2 C 20,6 C 12,2 C 93 % 1009,5 hPa 0,0 l/m 0,0 km/h (0 Bft) S-SW 213 0 min 0,000 mm 0,0 UV-I 0 W/m 12,1 C 13,2 C 0,0 km/h (0 Bft) 97,87 %
07.09.2018 03:44 13,2 C 20,6 C 12,2 C 93 % 1009,5 hPa 0,0 l/m 0,0 km/h (0 Bft) S-SW 206 0 min 0,000 mm 0,0 UV-I 0 W/m 12,1 C 13,2 C 0,0 km/h (0 Bft) 95,74 %
07.09.2018 03:46 13,2 C 20,6 C 12,2 C 93 % 1009,5 hPa 0,0 l/m 0,9 km/h (0 Bft) S-SW 199 0 min 0,000 mm 0,0 UV-I 0 W/m 12,1 C 13,2 C 4,8 km/h (1 Bft) 97,87 %
07.09.2018 03:48 13,2 C 20,6 C 12,2 C 93 % 1009,6 hPa 0,0 l/m 1,8 km/h (1 Bft) S-SW 193 0 min 0,000 mm 0,0 UV-I 0 W/m 12,1 C 13,2 C 4,8 km/h (1 Bft) 95,74 %
07.09.2018 03:50 13,2 C 20,6 C 12,2 C 93 % 1009,6 hPa 0,0 l/m 1,5 km/h (1 Bft) S-SW 204 0 min 0,000 mm 0,0 UV-I 0 W/m 12,1 C 13,2 C 3,2 km/h (1 Bft) 95,74 %
07.09.2018 03:52 13,3 C 20,6 C 12,2 C 93 % 1009,7 hPa 0,0 l/m 0,6 km/h (0 Bft) S-SW 211 0 min 0,000 mm 0,0 UV-I 0 W/m 12,2 C 13,3 C 4,8 km/h (1 Bft) 97,87 %
07.09.2018 03:55 13,3 C 20,6 C 12,2 C 93 % 1009,7 hPa 0,0 l/m 1,7 km/h (1 Bft) SW 217 0 min 0,000 mm 0,0 UV-I 0 W/m 12,2 C 13,3 C 6,4 km/h (2 Bft) 94,37 %
07.09.2018 03:56 13,3 C 20,6 C 12,2 C 93 % 1009,7 hPa 0,0 l/m 0,0 km/h (0 Bft) S-SW 194 0 min 0,000 mm 0,0 UV-I 0 W/m 12,2 C 13,3 C 0,0 km/h (0 Bft) 100,00 %
07.09.2018 03:58 13,3 C 20,6 C 12,2 C 93 % 1009,7 hPa 0,0 l/m 0,4 km/h (0 Bft) S-SW 207 0 min 0,000 mm 0,0 UV-I 0 W/m 12,2 C 13,3 C 4,8 km/h (1 Bft) 95,83 %
07.09.2018 04:00 13,3 C 20,6 C 12,2 C 93 % 1009,8 hPa 0,0 l/m 0,0 km/h (0 Bft) S-SW 198 0 min 0,000 mm 0,0 UV-I 0 W/m 12,2 C 13,3 C 0,0 km/h (0 Bft) 96,00 %
07.09.2018 04:02 13,3 C 20,6 C 12,2 C 93 % 1009,8 hPa 0,0 l/m 0,0 km/h (0 Bft) SW 219 0 min 0,000 mm 0,0 UV-I 0 W/m 12,2 C 13,3 C 0,0 km/h (0 Bft) 100,00 %
07.09.2018 04:04 13,3 C 20,6 C 12,2 C 93 % 1009,7 hPa 0,0 l/m 0,1 km/h (0 Bft) SW 217 0 min 0,000 mm 0,0 UV-I 0 W/m 12,2 C 13,3 C 1,6 km/h (1 Bft) 95,74 %
07.09.2018 04:06 13,4 C 20,6 C 12,2 C 93 % 1009,7 hPa 0,0 l/m 0,0 km/h (0 Bft) SW 232 0 min 0,000 mm 0,0 UV-I 0 W/m 12,3 C 13,4 C 0,0 km/h (0 Bft) 100,00 %
07.09.2018 04:08 13,4 C 20,6 C 12,2 C 92 % 1009,7 hPa 0,0 l/m 0,3 km/h (0 Bft) SW 217 0 min 0,000 mm 0,0 UV-I 0 W/m 12,1 C 13,4 C 3,2 km/h (1 Bft) 96,00 %
07.09.2018 04:10 13,4 C 20,6 C 12,2 C 92 % 1009,8 hPa 0,0 l/m 0,2 km/h (0 Bft) S-SW 209 0 min 0,000 mm 0,0 UV-I 0 W/m 12,1 C 13,4 C 3,2 km/h (1 Bft) 100,00 %
07.09.2018 04:12 13,4 C 20,6 C 12,2 C 92 % 1009,7 hPa 0,0 l/m 1,7 km/h (1 Bft) SW 229 0 min 0,000 mm 0,0 UV-I 0 W/m 12,1 C 13,4 C 4,8 km/h (1 Bft) 98,08 %
07.09.2018 04:14 13,5 C 20,6 C 12,2 C 92 % 1009,8 hPa 0,0 l/m 0,1 km/h (0 Bft) SW 219 0 min 0,000 mm 0,0 UV-I 0 W/m 12,2 C 13,5 C 1,6 km/h (1 Bft) 97,44 %
07.09.2018 04:16 13,5 C 20,6 C 12,2 C 92 % 1009,8 hPa 0,0 l/m 0,0 km/h (0 Bft) SW 215 0 min 0,000 mm 0,0 UV-I 0 W/m 12,2 C 13,5 C 0,0 km/h (0 Bft) 97,87 %
07.09.2018 04:18 13,5 C 20,6 C 12,2 C 92 % 1009,8 hPa 0,0 l/m 0,0 km/h (0 Bft) SW 219 0 min 0,000 mm 0,0 UV-I 0 W/m 12,2 C 13,5 C 0,0 km/h (0 Bft) 98,00 %
07.09.2018 04:20 13,5 C 20,6 C 12,2 C 92 % 1009,8 hPa 0,0 l/m 2,5 km/h (1 Bft) SW 214 0 min 0,000 mm 0,0 UV-I 0 W/m 12,2 C 13,5 C 6,4 km/h (2 Bft) 93,62 %
07.09.2018 04:22 13,4 C 20,6 C 12,2 C 92 % 1009,8 hPa 0,0 l/m 2,0 km/h (1 Bft) SW 227 0 min 0,000 mm 0,0 UV-I 0 W/m 12,1 C 13,4 C 8,0 km/h (2 Bft) 98,08 %
07.09.2018 04:24 13,4 C 20,6 C 12,2 C 92 % 1009,8 hPa 0,0 l/m 2,3 km/h (1 Bft) SW 233 0 min 0,000 mm 0,0 UV-I 0 W/m 12,1 C 13,4 C 6,4 km/h (2 Bft) 97,87 %
07.09.2018 04:26 13,4 C 20,6 C 12,2 C 92 % 1009,8 hPa 0,0 l/m 0,4 km/h (0 Bft) W-SW 239 0 min 0,000 mm 0,0 UV-I 0 W/m 12,1 C 13,4 C 3,2 km/h (1 Bft) 97,87 %
07.09.2018 04:28 13,4 C 20,6 C 12,2 C 92 % 1009,7 hPa 0,0 l/m 0,0 km/h (0 Bft) W-SW 241 0 min 0,000 mm 0,0 UV-I 0 W/m 12,1 C 13,4 C 0,0 km/h (0 Bft) 100,00 %
07.09.2018 04:30 13,4 C 20,6 C 12,2 C 92 % 1009,7 hPa 0,0 l/m 0,0 km/h (0 Bft) W-SW 241 0 min 0,000 mm 0,0 UV-I 0 W/m 12,1 C 13,4 C 0,0 km/h (0 Bft) 93,62 %
07.09.2018 04:32 13,4 C 20,6 C 12,2 C 92 % 1009,8 hPa 0,0 l/m 0,1 km/h (0 Bft) S-SW 210 0 min 0,000 mm 0,0 UV-I 0 W/m 12,1 C 13,4 C 1,6 km/h (1 Bft) 95,74 %
07.09.2018 04:34 13,4 C 20,6 C 12,2 C 92 % 1009,8 hPa 0,0 l/m 0,0 km/h (0 Bft) S-SW 213 0 min 0,000 mm 0,0 UV-I 0 W/m 12,1 C 13,4 C 0,0 km/h (0 Bft) 93,62 %
07.09.2018 04:36 13,4 C 20,6 C 12,2 C 92 % 1009,8 hPa 0,0 l/m 1,2 km/h (1 Bft) SW 217 0 min 0,000 mm 0,0 UV-I 0 W/m 12,1 C 13,4 C 4,8 km/h (1 Bft) 95,74 %
07.09.2018 04:38 13,4 C 20,6 C 12,2 C 92 % 1009,8 hPa 0,0 l/m 0,0 km/h (0 Bft) SW 229 0 min 0,000 mm 0,0 UV-I 0 W/m 12,1 C 13,4 C 1,6 km/h (1 Bft) 95,74 %
07.09.2018 04:40 13,4 C 20,6 C 12,2 C 92 % 1009,8 hPa 0,0 l/m 0,0 km/h (0 Bft) SW 221 0 min 0,000 mm 0,0 UV-I 0 W/m 12,1 C 13,4 C 0,0 km/h (0 Bft) 91,49 %
07.09.2018 04:42 13,3 C 20,6 C 12,2 C 92 % 1009,8 hPa 0,0 l/m 0,0 km/h (0 Bft) SW 228 0 min 0,000 mm 0,0 UV-I 0 W/m 12,0 C 13,3 C 0,0 km/h (0 Bft) 96,00 %
07.09.2018 04:44 13,3 C 20,6 C 12,2 C 92 % 1009,8 hPa 0,0 l/m 0,0 km/h (0 Bft) SW 228 0 min 0,000 mm 0,0 UV-I 0 W/m 12,0 C 13,3 C 0,0 km/h (0 Bft) 92,00 %
07.09.2018 04:46 13,3 C 20,6 C 12,2 C 92 % 1009,8 hPa 0,0 l/m 0,0 km/h (0 Bft) SW 228 0 min 0,000 mm 0,0 UV-I 0 W/m 12,0 C 13,3 C 0,0 km/h (0 Bft) 93,62 %
07.09.2018 04:48 13,3 C 20,6 C 12,2 C 92 % 1009,8 hPa 0,0 l/m 0,2 km/h (0 Bft) SW 225 0 min 0,000 mm 0,0 UV-I 0 W/m 12,0 C 13,3 C 3,2 km/h (1 Bft) 97,87 %
07.09.2018 04:50 13,3 C 20,6 C 12,2 C 92 % 1009,8 hPa 0,0 l/m 0,0 km/h (0 Bft) SW 232 0 min 0,000 mm 0,0 UV-I 0 W/m 12,0 C 13,3 C 0,0 km/h (0 Bft) 97,87 %
07.09.2018 04:52 13,3 C 20,6 C 12,2 C 92 % 1009,8 hPa 0,0 l/m 0,0 km/h (0 Bft) SW 216 0 min 0,000 mm 0,0 UV-I 0 W/m 12,0 C 13,3 C 1,6 km/h (1 Bft) 97,87 %
07.09.2018 04:54 13,4 C 20,6 C 12,2 C 92 % 1009,8 hPa 0,0 l/m 0,0 km/h (0 Bft) S-SW 211 0 min 0,000 mm 0,0 UV-I 0 W/m 12,1 C 13,4 C 0,0 km/h (0 Bft) 97,44 %
07.09.2018 04:56 13,4 C 20,6 C 12,2 C 92 % 1009,8 hPa 0,0 l/m 0,9 km/h (0 Bft) S-SW 202 0 min 0,000 mm 0,0 UV-I 0 W/m 12,1 C 13,4 C 4,8 km/h (1 Bft) 98,00 %
07.09.2018 04:58 13,3 C 20,6 C 12,2 C 92 % 1009,8 hPa 0,0 l/m 1,1 km/h (1 Bft) S-SW 207 0 min 0,000 mm 0,0 UV-I 0 W/m 12,0 C 13,3 C 4,8 km/h (1 Bft) 100,00 %
07.09.2018 05:00 13,3 C 20,6 C 12,2 C 92 % 1009,8 hPa 0,0 l/m 1,3 km/h (1 Bft) SW 222 0 min 0,000 mm 0,0 UV-I 0 W/m 12,0 C 13,3 C 8,0 km/h (2 Bft) 100,00 %
07.09.2018 05:02 13,3 C 20,6 C 12,2 C 92 % 1009,8 hPa 0,0 l/m 1,2 km/h (1 Bft) SW 223 0 min 0,000 mm 0,0 UV-I 0 W/m 12,0 C 13,3 C 4,8 km/h (1 Bft) 100,00 %
07.09.2018 05:04 13,3 C 20,6 C 12,2 C 92 % 1009,8 hPa 0,0 l/m 0,5 km/h (0 Bft) SW 221 0 min 0,000 mm 0,0 UV-I 0 W/m 12,0 C 13,3 C 3,2 km/h (1 Bft) 100,00 %
07.09.2018 05:06 13,2 C 20,6 C 12,2 C 92 % 1009,8 hPa 0,0 l/m 0,4 km/h (0 Bft) SW 219 0 min 0,000 mm 0,0 UV-I 0 W/m 11,9 C 13,2 C 3,2 km/h (1 Bft) 100,00 %
07.09.2018 05:08 13,2 C 20,6 C 12,2 C 92 % 1009,9 hPa 0,0 l/m 0,0 km/h (0 Bft) SW 221 0 min 0,000 mm 0,0 UV-I 0 W/m 11,9 C 13,2 C 0,0 km/h (0 Bft) 100,00 %
07.09.2018 05:10 13,2 C 20,6 C 12,2 C 92 % 1009,9 hPa 0,0 l/m 0,0 km/h (0 Bft) SW 214 0 min 0,000 mm 0,0 UV-I 0 W/m 11,9 C 13,2 C 0,0 km/h (0 Bft) 97,87 %
07.09.2018 05:12 13,2 C 20,6 C 12,2 C 92 % 1009,9 hPa 0,0 l/m 2,7 km/h (1 Bft) S-SW 212 0 min 0,000 mm 0,0 UV-I 0 W/m 11,9 C 13,2 C 8,0 km/h (2 Bft) 97,87 %
07.09.2018 05:14 13,1 C 20,6 C 12,2 C 92 % 1009,9 hPa 0,0 l/m 2,4 km/h (1 Bft) W-SW 257 0 min 0,000 mm 0,0 UV-I 0 W/m 11,8 C 13,1 C 6,4 km/h (2 Bft) 100,00 %
07.09.2018 05:16 13,2 C 20,6 C 12,2 C 92 % 1009,9 hPa 0,0 l/m 0,0 km/h (0 Bft) SW 231 0 min 0,000 mm 0,0 UV-I 0 W/m 11,9 C 13,2 C 0,0 km/h (0 Bft) 100,00 %
07.09.2018 05:18 13,2 C 20,6 C 12,2 C 92 % 1009,8 hPa 0,0 l/m 0,0 km/h (0 Bft) SW 218 0 min 0,000 mm 0,0 UV-I 0 W/m 11,9 C 13,2 C 0,0 km/h (0 Bft) 100,00 %
07.09.2018 05:20 13,2 C 20,6 C 12,2 C 92 % 1009,8 hPa 0,0 l/m 0,8 km/h (0 Bft) S-SO 162 0 min 0,000 mm 0,0 UV-I 0 W/m 11,9 C 13,2 C 3,2 km/h (1 Bft) 100,00 %
07.09.2018 05:22 13,2 C 20,6 C 12,2 C 92 % 1009,9 hPa 0,0 l/m 0,2 km/h (0 Bft) S-SO 163 0 min 0,000 mm 0,0 UV-I 0 W/m 11,9 C 13,2 C 1,6 km/h (1 Bft) 100,00 %
07.09.2018 05:24 13,1 C 20,6 C 12,2 C 92 % 1009,7 hPa 0,0 l/m 0,0 km/h (0 Bft) S-SO 163 0 min 0,000 mm 0,0 UV-I 0 W/m 11,8 C 13,1 C 0,0 km/h (0 Bft) 100,00 %
07.09.2018 05:26 13,1 C 20,6 C 12,2 C 92 % 1009,8 hPa 0,0 l/m 0,8 km/h (0 Bft) SW 222 0 min 0,000 mm 0,0 UV-I 0 W/m 11,8 C 13,1 C 4,8 km/h (1 Bft) 100,00 %
07.09.2018 05:28 13,1 C 20,6 C 12,2 C 92 % 1009,9 hPa 0,0 l/m 5,4 km/h (1 Bft) W-SW 243 0 min 0,000 mm 0,0 UV-I 0 W/m 11,8 C 13,1 C 11,3 km/h (2 Bft) 98,04 %
07.09.2018 05:30 13,0 C 20,6 C 12,2 C 92 % 1010,0 hPa 0,0 l/m 1,7 km/h (1 Bft) S-SW 204 0 min 0,000 mm 0,0 UV-I 0 W/m 11,7 C 13,0 C 6,4 km/h (2 Bft) 97,87 %
07.09.2018 05:32 13,0 C 20,6 C 12,2 C 92 % 1010,0 hPa 0,0 l/m 2,9 km/h (1 Bft) SW 215 0 min 0,000 mm 0,0 UV-I 0 W/m 11,7 C 13,0 C 6,4 km/h (2 Bft) 97,92 %
07.09.2018 05:34 12,9 C 20,6 C 12,2 C 92 % 1009,9 hPa 0,0 l/m 1,2 km/h (1 Bft) S-SW 211 0 min 0,000 mm 0,0 UV-I 0 W/m 11,6 C 12,9 C 6,4 km/h (2 Bft) 100,00 %
07.09.2018 05:36 12,9 C 20,6 C 12,2 C 93 % 1010,0 hPa 0,0 l/m 0,0 km/h (0 Bft) S-SW 195 0 min 0,000 mm 0,0 UV-I 0 W/m 11,8 C 12,9 C 1,6 km/h (1 Bft) 93,62 %
07.09.2018 05:38 12,9 C 20,6 C 12,2 C 93 % 1010,0 hPa 0,0 l/m 0,0 km/h (0 Bft) S-SW 192 0 min 0,000 mm 0,0 UV-I 0 W/m 11,8 C 12,9 C 0,0 km/h (0 Bft) 100,00 %
07.09.2018 05:40 12,9 C 20,6 C 12,2 C 93 % 1010,0 hPa 0,0 l/m 0,3 km/h (0 Bft) S-SW 201 0 min 0,000 mm 0,0 UV-I 0 W/m 11,8 C 12,9 C 3,2 km/h (1 Bft) 100,00 %
07.09.2018 05:42 13,0 C 20,6 C 12,2 C 93 % 1010,0 hPa 0,0 l/m 0,8 km/h (0 Bft) S-SW 196 0 min 0,000 mm 0,0 UV-I 0 W/m 11,9 C 13,0 C 4,8 km/h (1 Bft) 97,87 %
07.09.2018 05:44 13,0 C 20,6 C 12,2 C 93 % 1010,1 hPa 0,0 l/m 0,0 km/h (0 Bft) S 189 0 min 0,000 mm 0,0 UV-I 0 W/m 11,9 C 13,0 C 0,0 km/h (0 Bft) 98,00 %
07.09.2018 05:46 13,1 C 20,6 C 12,2 C 93 % 1010,1 hPa 0,0 l/m 0,0 km/h (0 Bft) S-SW 205 0 min 0,000 mm 0,0 UV-I 0 W/m 12,0 C 13,1 C 0,0 km/h (0 Bft) 97,87 %
07.09.2018 05:48 13,1 C 20,6 C 12,2 C 93 % 1010,1 hPa 0,0 l/m 0,0 km/h (0 Bft) S-SW 205 0 min 0,000 mm 0,0 UV-I 0 W/m 12,0 C 13,1 C 0,0 km/h (0 Bft) 97,87 %
07.09.2018 05:50 13,1 C 20,6 C 12,2 C 93 % 1010,1 hPa 0,0 l/m 0,0 km/h (0 Bft) S-SW 205 0 min 0,000 mm 0,0 UV-I 0 W/m 12,0 C 13,1 C 0,0 km/h (0 Bft) 100,00 %
07.09.2018 05:52 13,1 C 20,6 C 12,2 C 93 % 1010,1 hPa 0,0 l/m 0,0 km/h (0 Bft) S-SW 213 0 min 0,000 mm 0,0 UV-I 0 W/m 12,0 C 13,1 C 0,0 km/h (0 Bft) 100,00 %
07.09.2018 05:54 13,1 C 20,6 C 12,2 C 93 % 1010,1 hPa 0,0 l/m 0,0 km/h (0 Bft) S-SW 213 0 min 0,000 mm 0,0 UV-I 0 W/m 12,0 C 13,1 C 0,0 km/h (0 Bft) 97,87 %
07.09.2018 05:56 13,1 C 20,6 C 12,2 C 93 % 1010,1 hPa 0,0 l/m 0,0 km/h (0 Bft) S-SW 202 0 min 0,000 mm 0,0 UV-I 0 W/m 12,0 C 13,1 C 0,0 km/h (0 Bft) 98,00 %
07.09.2018 05:58 13,0 C 20,6 C 12,2 C 93 % 1010,1 hPa 0,0 l/m 0,1 km/h (0 Bft) SW 230 0 min 0,000 mm 0,0 UV-I 0 W/m 11,9 C 13,0 C 3,2 km/h (1 Bft) 97,87 %
07.09.2018 06:00 13,0 C 20,6 C 12,2 C 93 % 1010,1 hPa 0,0 l/m 0,0 km/h (0 Bft) SW 214 0 min 0,000 mm 0,0 UV-I 0 W/m 11,9 C 13,0 C 0,0 km/h (0 Bft) 97,87 %
07.09.2018 06:02 13,0 C 20,6 C 12,2 C 93 % 1010,1 hPa 0,0 l/m 1,2 km/h (1 Bft) S-SW 209 0 min 0,000 mm 0,0 UV-I 0 W/m 11,9 C 13,0 C 4,8 km/h (1 Bft) 95,74 %
07.09.2018 06:04 12,9 C 20,6 C 12,2 C 93 % 1010,1 hPa 0,0 l/m 0,7 km/h (0 Bft) S-SW 210 0 min 0,000 mm 0,0 UV-I 0 W/m 11,8 C 12,9 C 3,2 km/h (1 Bft) 95,74 %
07.09.2018 06:06 12,9 C 20,6 C 12,2 C 93 % 1010,1 hPa 0,0 l/m 0,0 km/h (0 Bft) S-SW 210 0 min 0,000 mm 0,0 UV-I 0 W/m 11,8 C 12,9 C 0,0 km/h (0 Bft) 97,87 %
07.09.2018 06:08 12,9 C 20,6 C 12,2 C 93 % 1010,1 hPa 0,0 l/m 0,0 km/h (0 Bft) S-SW 210 0 min 0,000 mm 0,0 UV-I 0 W/m 11,8 C 12,9 C 0,0 km/h (0 Bft) 100,00 %
07.09.2018 06:10 12,9 C 20,6 C 12,2 C 93 % 1010,1 hPa 0,0 l/m 0,0 km/h (0 Bft) S-SW 210 0 min 0,000 mm 0,0 UV-I 0 W/m 11,8 C 12,9 C 0,0 km/h (0 Bft) 94,00 %
07.09.2018 06:12 13,0 C 20,6 C 12,2 C 93 % 1010,2 hPa 0,0 l/m 0,0 km/h (0 Bft) SW 229 0 min 0,000 mm 0,0 UV-I 0 W/m 11,9 C 13,0 C 0,0 km/h (0 Bft) 97,87 %
07.09.2018 06:14 13,1 C 20,6 C 12,2 C 93 % 1010,2 hPa 0,0 l/m 0,0 km/h (0 Bft) SW 227 0 min 0,000 mm 0,0 UV-I 4 W/m 12,0 C 13,1 C 0,0 km/h (0 Bft) 97,87 %
07.09.2018 06:16 13,1 C 20,6 C 12,2 C 93 % 1010,2 hPa 0,0 l/m 0,0 km/h (0 Bft) S-SW 205 0 min 0,000 mm 0,0 UV-I 0 W/m 12,0 C 13,1 C 0,0 km/h (0 Bft) 97,87 %
07.09.2018 06:18 13,1 C 20,6 C 12,2 C 93 % 1010,2 hPa 0,0 l/m 0,0 km/h (0 Bft) S-SW 213 0 min 0,000 mm 0,0 UV-I 7 W/m 12,0 C 13,1 C 0,0 km/h (0 Bft) 95,74 %
07.09.2018 06:20 13,1 C 20,6 C 12,2 C 93 % 1010,3 hPa 0,0 l/m 0,0 km/h (0 Bft) S-SW 207 0 min 0,000 mm 0,0 UV-I 9 W/m 12,0 C 13,1 C 0,0 km/h (0 Bft) 97,87 %
07.09.2018 06:22 13,2 C 20,6 C 12,2 C 93 % 1010,3 hPa 0,0 l/m 1,7 km/h (1 Bft) S-SW 204 0 min 0,000 mm 0,0 UV-I 9 W/m 12,1 C 13,2 C 4,8 km/h (1 Bft) 97,87 %
07.09.2018 06:24 13,3 C 20,6 C 12,2 C 93 % 1010,3 hPa 0,0 l/m 1,9 km/h (1 Bft) SW 214 0 min 0,000 mm 0,0 UV-I 11 W/m 12,2 C 13,3 C 4,8 km/h (1 Bft) 93,62 %
07.09.2018 06:26 13,4 C 20,6 C 12,8 C 93 % 1010,3 hPa 0,0 l/m 3,3 km/h (1 Bft) SW 215 0 min 0,000 mm 0,0 UV-I 11 W/m 12,3 C 13,4 C 6,4 km/h (2 Bft) 97,87 %
07.09.2018 06:28 13,5 C 20,6 C 12,8 C 93 % 1010,4 hPa 0,0 l/m 0,3 km/h (0 Bft) SW 229 0 min 0,000 mm 0,0 UV-I 11 W/m 12,4 C 13,5 C 3,2 km/h (1 Bft) 97,87 %
07.09.2018 06:30 13,6 C 20,6 C 12,8 C 92 % 1010,4 hPa 0,0 l/m 2,0 km/h (1 Bft) SW 222 0 min 0,000 mm 0,0 UV-I 11 W/m 12,3 C 13,6 C 6,4 km/h (2 Bft) 95,74 %
07.09.2018 06:32 13,7 C 20,6 C 12,8 C 92 % 1010,4 hPa 0,0 l/m 1,9 km/h (1 Bft) W-SW 238 0 min 0,000 mm 0,0 UV-I 11 W/m 12,4 C 13,7 C 6,4 km/h (2 Bft) 97,87 %
07.09.2018 06:34 13,8 C 20,6 C 12,8 C 92 % 1010,4 hPa 0,0 l/m 0,5 km/h (0 Bft) SW 222 0 min 0,000 mm 0,0 UV-I 11 W/m 12,5 C 13,8 C 3,2 km/h (1 Bft) 97,87 %
07.09.2018 06:36 13,8 C 20,6 C 12,8 C 92 % 1010,4 hPa 0,0 l/m 0,6 km/h (0 Bft) SW 217 0 min 0,000 mm 0,0 UV-I 13 W/m 12,5 C 13,8 C 4,8 km/h (1 Bft) 93,62 %
07.09.2018 06:38 13,8 C 20,6 C 12,8 C 91 % 1010,4 hPa 0,0 l/m 1,0 km/h (0 Bft) SW 223 0 min 0,000 mm 0,0 UV-I 15 W/m 12,4 C 13,8 C 3,2 km/h (1 Bft) 96,00 %
07.09.2018 06:40 13,8 C 20,6 C 12,8 C 92 % 1010,5 hPa 0,0 l/m 2,9 km/h (1 Bft) SW 229 2 min 0,000 mm 0,0 UV-I 18 W/m 12,5 C 13,8 C 6,4 km/h (2 Bft) 95,74 %
07.09.2018 06:42 13,9 C 20,6 C 12,8 C 91 % 1010,4 hPa 0,0 l/m 2,5 km/h (1 Bft) SW 233 2 min 0,000 mm 0,0 UV-I 21 W/m 12,5 C 13,9 C 4,8 km/h (1 Bft) 93,62 %
07.09.2018 06:44 13,9 C 20,6 C 12,8 C 91 % 1010,5 hPa 0,0 l/m 0,2 km/h (0 Bft) W-SW 240 2 min 0,000 mm 0,0 UV-I 22 W/m 12,5 C 13,9 C 3,2 km/h (1 Bft) 92,31 %
07.09.2018 06:46 13,9 C 20,6 C 12,8 C 91 % 1010,5 hPa 0,0 l/m 1,2 km/h (1 Bft) W-SW 250 2 min 0,000 mm 0,0 UV-I 24 W/m 12,5 C 13,9 C 6,4 km/h (2 Bft) 93,62 %
07.09.2018 06:48 14,0 C 20,6 C 12,8 C 91 % 1010,5 hPa 0,0 l/m 2,7 km/h (1 Bft) W-SW 250 2 min 0,000 mm 0,0 UV-I 26 W/m 12,6 C 14,0 C 6,4 km/h (2 Bft) 94,74 %
07.09.2018 06:50 14,0 C 20,6 C 12,8 C 91 % 1010,5 hPa 0,0 l/m 1,6 km/h (1 Bft) W-SW 240 2 min 0,000 mm 0,0 UV-I 28 W/m 12,6 C 14,0 C 6,4 km/h (2 Bft) 96,36 %
07.09.2018 06:52 14,1 C 20,6 C 13,3 C 91 % 1010,5 hPa 0,0 l/m 1,8 km/h (1 Bft) SW 229 2 min 0,000 mm 0,0 UV-I 30 W/m 12,7 C 14,1 C 4,8 km/h (1 Bft) 98,00 %
07.09.2018 06:54 14,0 C 20,6 C 13,3 C 91 % 1010,6 hPa 0,0 l/m 0,3 km/h (0 Bft) W-SW 241 2 min 0,000 mm 0,0 UV-I 33 W/m 12,6 C 14,0 C 1,6 km/h (1 Bft) 95,74 %
07.09.2018 06:56 14,1 C 20,6 C 13,3 C 91 % 1010,5 hPa 0,0 l/m 0,5 km/h (0 Bft) W-SW 244 2 min 0,000 mm 0,0 UV-I 36 W/m 12,7 C 14,1 C 4,8 km/h (1 Bft) 93,62 %
07.09.2018 06:58 14,1 C 20,6 C 13,3 C 91 % 1010,6 hPa 0,0 l/m 3,0 km/h (1 Bft) SW 234 2 min 0,000 mm 0,0 UV-I 39 W/m 12,7 C 14,1 C 6,4 km/h (2 Bft) 95,74 %
07.09.2018 07:00 14,2 C 20,6 C 13,3 C 91 % 1010,6 hPa 0,0 l/m 2,7 km/h (1 Bft) W-SW 239 2 min 0,000 mm 0,0 UV-I 42 W/m 12,8 C 14,2 C 6,4 km/h (2 Bft) 97,87 %
07.09.2018 07:02 14,2 C 20,6 C 13,9 C 91 % 1010,6 hPa 0,0 l/m 1,2 km/h (1 Bft) SW 229 2 min 0,000 mm 0,0 UV-I 48 W/m 12,8 C 14,2 C 4,8 km/h (1 Bft) 97,87 %
07.09.2018 07:04 14,2 C 20,6 C 13,9 C 91 % 1010,6 hPa 0,0 l/m 3,5 km/h (1 Bft) SW 236 2 min 0,000 mm 0,0 UV-I 52 W/m 12,8 C 14,2 C 8,0 km/h (2 Bft) 98,00 %
07.09.2018 07:06 14,2 C 20,6 C 13,9 C 91 % 1010,6 hPa 0,0 l/m 0,9 km/h (0 Bft) SW 225 2 min 0,000 mm 0,0 UV-I 53 W/m 12,8 C 14,2 C 6,4 km/h (2 Bft) 95,74 %
07.09.2018 07:08 14,3 C 20,6 C 13,9 C 91 % 1010,6 hPa 0,0 l/m 3,8 km/h (1 Bft) W-SW 246 0 min 0,000 mm 0,0 UV-I 51 W/m 12,8 C 14,3 C 6,4 km/h (2 Bft) 95,74 %
07.09.2018 07:10 14,3 C 20,6 C 13,9 C 91 % 1010,7 hPa 0,0 l/m 1,7 km/h (1 Bft) SW 236 0 min 0,000 mm 0,0 UV-I 51 W/m 12,8 C 14,3 C 4,8 km/h (1 Bft) 97,87 %
07.09.2018 07:12 14,3 C 20,6 C 14,4 C 91 % 1010,7 hPa 0,0 l/m 3,3 km/h (1 Bft) SW 232 0 min 0,000 mm 0,0 UV-I 51 W/m 12,8 C 14,3 C 8,0 km/h (2 Bft) 96,00 %
07.09.2018 07:14 14,4 C 20,6 C 14,4 C 91 % 1010,7 hPa 0,0 l/m 5,7 km/h (1 Bft) SW 234 0 min 0,000 mm 0,0 UV-I 52 W/m 12,9 C 14,4 C 9,7 km/h (2 Bft) 97,37 %
07.09.2018 07:16 14,4 C 20,6 C 14,4 C 91 % 1010,7 hPa 0,0 l/m 5,2 km/h (1 Bft) W-SW 242 0 min 0,000 mm 0,0 UV-I 54 W/m 12,9 C 14,4 C 9,7 km/h (2 Bft) 95,74 %
07.09.2018 07:18 14,5 C 20,6 C 14,4 C 91 % 1010,7 hPa 0,0 l/m 5,3 km/h (1 Bft) SW 236 0 min 0,000 mm 0,0 UV-I 55 W/m 13,0 C 14,5 C 12,9 km/h (3 Bft) 93,62 %
07.09.2018 07:20 14,6 C 20,6 C 15,0 C 91 % 1010,7 hPa 0,0 l/m 5,3 km/h (1 Bft) S-SW 206 0 min 0,000 mm 0,0 UV-I 56 W/m 13,1 C 14,6 C 11,3 km/h (2 Bft) 93,75 %
07.09.2018 07:22 14,7 C 20,6 C 15,0 C 91 % 1010,7 hPa 0,0 l/m 7,2 km/h (2 Bft) W-SW 238 0 min 0,000 mm 0,0 UV-I 59 W/m 13,2 C 14,2 C 12,9 km/h (3 Bft) 94,00 %
07.09.2018 07:24 14,8 C 20,6 C 15,0 C 91 % 1010,8 hPa 0,0 l/m 5,5 km/h (1 Bft) S-SW 200 0 min 0,000 mm 0,0 UV-I 62 W/m 13,3 C 14,8 C 9,7 km/h (2 Bft) 96,00 %
07.09.2018 07:26 14,8 C 20,6 C 15,0 C 91 % 1010,8 hPa 0,0 l/m 6,2 km/h (2 Bft) SW 226 0 min 0,000 mm 0,0 UV-I 62 W/m 13,3 C 14,8 C 12,9 km/h (3 Bft) 93,62 %
07.09.2018 07:28 14,9 C 20,6 C 15,6 C 90 % 1010,8 hPa 0,0 l/m 6,5 km/h (2 Bft) W-SW 250 0 min 0,000 mm 0,0 UV-I 64 W/m 13,3 C 14,9 C 12,9 km/h (3 Bft) 97,37 %
07.09.2018 07:30 15,0 C 20,6 C 15,6 C 90 % 1010,8 hPa 0,0 l/m 6,8 km/h (2 Bft) SW 232 0 min 0,000 mm 0,0 UV-I 70 W/m 13,4 C 14,8 C 12,9 km/h (3 Bft) 94,00 %
07.09.2018 07:32 15,1 C 20,6 C 15,6 C 90 % 1010,8 hPa 0,0 l/m 9,0 km/h (2 Bft) SW 229 0 min 0,000 mm 0,0 UV-I 74 W/m 13,5 C 13,7 C 12,9 km/h (3 Bft) 95,74 %
07.09.2018 07:34 15,2 C 20,6 C 15,6 C 90 % 1010,8 hPa 0,0 l/m 6,0 km/h (2 Bft) W-SW 248 0 min 0,000 mm 0,0 UV-I 73 W/m 13,6 C 15,2 C 14,5 km/h (3 Bft) 96,00 %
07.09.2018 07:36 15,3 C 20,6 C 15,6 C 90 % 1010,8 hPa 0,0 l/m 6,7 km/h (2 Bft) SW 234 0 min 0,000 mm 0,0 UV-I 70 W/m 13,7 C 15,1 C 11,3 km/h (2 Bft) 94,00 %
07.09.2018 07:38 15,3 C 20,6 C 15,6 C 90 % 1010,8 hPa 0,0 l/m 8,7 km/h (2 Bft) SW 230 0 min 0,000 mm 0,0 UV-I 70 W/m 13,7 C 14,1 C 12,9 km/h (3 Bft) 97,37 %
07.09.2018 07:40 15,4 C 20,6 C 16,1 C 90 % 1010,9 hPa 0,0 l/m 6,1 km/h (2 Bft) W-SW 244 0 min 0,000 mm 0,0 UV-I 70 W/m 13,8 C 15,4 C 14,5 km/h (3 Bft) 96,00 %
07.09.2018 07:42 15,6 C 20,6 C 16,1 C 90 % 1010,9 hPa 0,0 l/m 9,1 km/h (2 Bft) W-SW 257 0 min 0,000 mm 0,0 UV-I 64 W/m 14,0 C 14,2 C 14,5 km/h (3 Bft) 95,74 %
07.09.2018 07:44 15,7 C 20,6 C 16,1 C 89 % 1010,9 hPa 0,0 l/m 8,6 km/h (2 Bft) W-SW 252 0 min 0,000 mm 0,0 UV-I 65 W/m 13,9 C 14,5 C 14,5 km/h (3 Bft) 98,00 %
07.09.2018 07:46 15,8 C 20,0 C 16,1 C 89 % 1010,9 hPa 0,0 l/m 8,8 km/h (2 Bft) W-SW 252 0 min 0,000 mm 0,0 UV-I 65 W/m 14,0 C 14,5 C 14,5 km/h (3 Bft) 100,00 %
07.09.2018 07:48 15,8 C 20,0 C 16,7 C 89 % 1011,0 hPa 0,0 l/m 7,8 km/h (2 Bft) SW 225 0 min 0,000 mm 0,0 UV-I 64 W/m 14,0 C 15,0 C 16,1 km/h (3 Bft) 95,74 %
07.09.2018 07:50 15,9 C 20,0 C 16,7 C 89 % 1010,9 hPa 0,0 l/m 8,0 km/h (2 Bft) W-SW 242 0 min 0,000 mm 0,0 UV-I 68 W/m 14,1 C 15,0 C 12,9 km/h (3 Bft) 100,00 %
07.09.2018 07:52 16,0 C 20,0 C 16,7 C 89 % 1011,0 hPa 0,0 l/m 9,0 km/h (2 Bft) SW 235 0 min 0,000 mm 0,0 UV-I 69 W/m 14,2 C 14,7 C 14,5 km/h (3 Bft) 100,00 %
07.09.2018 07:54 16,1 C 20,6 C 16,7 C 89 % 1011,0 hPa 0,0 l/m 7,6 km/h (2 Bft) SW 234 0 min 0,000 mm 0,0 UV-I 73 W/m 14,3 C 15,5 C 14,5 km/h (3 Bft) 100,00 %
07.09.2018 07:56 16,2 C 20,0 C 16,7 C 88 % 1011,0 hPa 0,0 l/m 8,9 km/h (2 Bft) W-SW 257 0 min 0,000 mm 0,0 UV-I 76 W/m 14,2 C 14,9 C 14,5 km/h (3 Bft) 97,87 %
07.09.2018 07:58 16,2 C 20,0 C 17,2 C 88 % 1011,0 hPa 0,0 l/m 7,5 km/h (2 Bft) W-SW 252 0 min 0,000 mm 0,0 UV-I 77 W/m 14,2 C 15,6 C 12,9 km/h (3 Bft) 100,00 %
07.09.2018 08:00 16,3 C 20,0 C 17,2 C 88 % 1011,1 hPa 0,0 l/m 8,8 km/h (2 Bft) W-SW 243 0 min 0,051 mm 0,0 UV-I 76 W/m 14,3 C 15,1 C 16,1 km/h (3 Bft) 100,00 %
07.09.2018 08:02 16,3 C 20,0 C 17,2 C 88 % 1011,1 hPa 0,0 l/m 7,4 km/h (2 Bft) W-SW 242 0 min 0,000 mm 0,0 UV-I 76 W/m 14,3 C 15,8 C 12,9 km/h (3 Bft) 97,87 %
07.09.2018 08:04 16,4 C 20,0 C 17,2 C 88 % 1011,1 hPa 0,0 l/m 7,1 km/h (2 Bft) W-SW 253 0 min 0,000 mm 0,0 UV-I 71 W/m 14,4 C 16,0 C 12,9 km/h (3 Bft) 97,87 %
07.09.2018 08:06 16,4 C 20,0 C 17,2 C 88 % 1011,1 hPa 0,0 l/m 11,8 km/h (2 Bft) SW 234 0 min 0,000 mm 0,0 UV-I 64 W/m 14,4 C 14,0 C 19,3 km/h (3 Bft) 100,00 %
07.09.2018 08:08 16,5 C 20,0 C 17,2 C 88 % 1011,1 hPa 0,0 l/m 10,5 km/h (2 Bft) W-SW 252 0 min 0,000 mm 0,0 UV-I 63 W/m 14,5 C 14,6 C 17,7 km/h (3 Bft) 100,00 %
07.09.2018 08:10 16,5 C 20,0 C 17,2 C 87 % 1011,2 hPa 0,0 l/m 10,3 km/h (2 Bft) W 273 0 min 0,000 mm 0,0 UV-I 62 W/m 14,3 C 14,7 C 17,7 km/h (3 Bft) 100,00 %
07.09.2018 08:12 16,6 C 20,0 C 17,2 C 87 % 1011,2 hPa 0,0 l/m 10,9 km/h (2 Bft) W 268 0 min 0,000 mm 0,0 UV-I 64 W/m 14,4 C 14,5 C 19,3 km/h (3 Bft) 97,87 %
07.09.2018 08:14 16,6 C 20,0 C 17,2 C 87 % 1011,2 hPa 0,0 l/m 11,2 km/h (2 Bft) W-SW 254 0 min 0,000 mm 0,0 UV-I 66 W/m 14,4 C 14,4 C 19,3 km/h (3 Bft) 100,00 %
07.09.2018 08:16 16,7 C 20,0 C 17,2 C 87 % 1011,1 hPa 0,0 l/m 9,3 km/h (2 Bft) W-SW 252 0 min 0,000 mm 0,0 UV-I 69 W/m 14,5 C 15,3 C 16,1 km/h (3 Bft) 97,87 %
07.09.2018 08:18 16,7 C 20,0 C 17,2 C 86 % 1011,2 hPa 0,0 l/m 7,5 km/h (2 Bft) W-SW 250 0 min 0,000 mm 0,0 UV-I 68 W/m 14,3 C 16,1 C 14,5 km/h (3 Bft) 97,87 %
07.09.2018 08:20 16,7 C 20,0 C 17,2 C 86 % 1011,1 hPa 0,0 l/m 9,8 km/h (2 Bft) W-SW 247 0 min 0,000 mm 0,0 UV-I 67 W/m 14,3 C 15,1 C 20,9 km/h (4 Bft) 95,74 %
07.09.2018 08:22 16,8 C 20,0 C 17,2 C 86 % 1011,2 hPa 0,0 l/m 8,7 km/h (2 Bft) W-SW 242 0 min 0,000 mm 0,0 UV-I 68 W/m 14,4 C 15,7 C 16,1 km/h (3 Bft) 98,00 %
07.09.2018 08:24 16,8 C 20,0 C 17,2 C 86 % 1011,2 hPa 0,0 l/m 8,2 km/h (2 Bft) W 265 0 min 0,000 mm 0,0 UV-I 73 W/m 14,4 C 15,9 C 19,3 km/h (3 Bft) 97,87 %
07.09.2018 08:26 16,8 C 20,0 C 17,2 C 85 % 1011,2 hPa 0,0 l/m 5,7 km/h (1 Bft) W-NW 297 0 min 0,000 mm 0,0 UV-I 75 W/m 14,3 C 16,8 C 9,7 km/h (2 Bft) 97,87 %
07.09.2018 08:28 16,8 C 20,0 C 17,2 C 85 % 1011,2 hPa 0,0 l/m 6,0 km/h (2 Bft) W 275 0 min 0,000 mm 0,0 UV-I 75 W/m 14,3 C 16,8 C 16,1 km/h (3 Bft) 97,87 %
07.09.2018 08:30 16,9 C 20,0 C 17,2 C 85 % 1011,2 hPa 0,0 l/m 9,0 km/h (2 Bft) W 267 0 min 0,000 mm 0,0 UV-I 74 W/m 14,4 C 15,6 C 14,5 km/h (3 Bft) 96,00 %
07.09.2018 08:32 16,9 C 20,0 C 17,2 C 85 % 1011,3 hPa 0,0 l/m 8,5 km/h (2 Bft) W-SW 237 0 min 0,000 mm 0,0 UV-I 77 W/m 14,4 C 15,9 C 16,1 km/h (3 Bft) 97,87 %
07.09.2018 08:34 16,9 C 20,0 C 17,8 C 85 % 1011,3 hPa 0,0 l/m 7,6 km/h (2 Bft) W 266 0 min 0,000 mm 0,0 UV-I 82 W/m 14,4 C 16,3 C 14,5 km/h (3 Bft) 97,87 %
07.09.2018 08:36 17,0 C 20,0 C 17,8 C 85 % 1011,3 hPa 0,0 l/m 8,4 km/h (2 Bft) W-SW 245 0 min 0,000 mm 0,0 UV-I 89 W/m 14,5 C 16,0 C 16,1 km/h (3 Bft) 97,44 %
07.09.2018 08:38 17,0 C 20,0 C 17,8 C 85 % 1011,3 hPa 0,0 l/m 9,7 km/h (2 Bft) W-SW 239 0 min 0,000 mm 0,0 UV-I 92 W/m 14,5 C 15,4 C 17,7 km/h (3 Bft) 98,11 %
07.09.2018 08:40 17,1 C 20,0 C 17,8 C 85 % 1011,3 hPa 0,0 l/m 9,7 km/h (2 Bft) SW 225 0 min 0,000 mm 0,0 UV-I 98 W/m 14,6 C 15,6 C 14,5 km/h (3 Bft) 95,74 %
07.09.2018 08:42 17,1 C 20,0 C 17,8 C 84 % 1011,4 hPa 0,0 l/m 7,2 km/h (2 Bft) SW 234 0 min 0,000 mm 0,0 UV-I 100 W/m 14,4 C 16,7 C 17,7 km/h (3 Bft) 93,62 %
07.09.2018 08:44 17,2 C 20,0 C 17,8 C 85 % 1011,4 hPa 0,0 l/m 5,2 km/h (1 Bft) W-SW 238 0 min 0,000 mm 0,0 UV-I 99 W/m 14,7 C 17,2 C 11,3 km/h (2 Bft) 97,87 %
07.09.2018 08:46 17,2 C 20,0 C 18,3 C 85 % 1011,4 hPa 0,0 l/m 7,5 km/h (2 Bft) W-SW 241 0 min 0,000 mm 0,0 UV-I 106 W/m 14,7 C 16,7 C 12,9 km/h (3 Bft) 93,62 %
07.09.2018 08:48 17,2 C 20,0 C 18,3 C 85 % 1011,4 hPa 0,0 l/m 8,3 km/h (2 Bft) W 259 0 min 0,000 mm 0,0 UV-I 111 W/m 14,7 C 16,3 C 14,5 km/h (3 Bft) 91,49 %
07.09.2018 08:50 17,3 C 20,0 C 18,3 C 85 % 1011,4 hPa 0,0 l/m 7,1 km/h (2 Bft) W 261 0 min 0,000 mm 0,0 UV-I 114 W/m 14,8 C 17,0 C 16,1 km/h (3 Bft) 91,49 %
07.09.2018 08:52 17,3 C 20,0 C 18,3 C 85 % 1011,4 hPa 0,0 l/m 8,7 km/h (2 Bft) W-SW 238 0 min 0,000 mm 0,0 UV-I 111 W/m 14,8 C 16,2 C 16,1 km/h (3 Bft) 100,00 %
07.09.2018 08:54 17,3 C 20,0 C 18,3 C 85 % 1011,4 hPa 0,0 l/m 7,4 km/h (2 Bft) SW 235 0 min 0,000 mm 0,1 UV-I 102 W/m 14,8 C 16,8 C 14,5 km/h (3 Bft) 95,74 %
07.09.2018 08:56 17,4 C 20,0 C 18,3 C 84 % 1011,4 hPa 0,0 l/m 12,7 km/h (3 Bft) W-SW 252 0 min 0,000 mm 0,5 UV-I 104 W/m 14,7 C 14,8 C 19,3 km/h (3 Bft) 95,74 %
07.09.2018 08:58 17,4 C 20,0 C 18,3 C 84 % 1011,4 hPa 0,0 l/m 9,2 km/h (2 Bft) W-NW 293 0 min 0,000 mm 0,5 UV-I 106 W/m 14,7 C 16,1 C 14,5 km/h (3 Bft) 93,62 %
07.09.2018 09:00 17,4 C 20,0 C 18,3 C 84 % 1011,4 hPa 0,0 l/m 8,5 km/h (2 Bft) W-SW 245 0 min 0,051 mm 0,5 UV-I 113 W/m 14,7 C 16,4 C 12,9 km/h (3 Bft) 97,87 %
07.09.2018 09:02 17,5 C 20,0 C 18,3 C 84 % 1011,5 hPa 0,0 l/m 12,4 km/h (3 Bft) W-SW 242 0 min 0,000 mm 0,5 UV-I 126 W/m 14,8 C 15,0 C 19,3 km/h (3 Bft) 97,87 %
07.09.2018 09:04 17,6 C 20,0 C 18,9 C 84 % 1011,5 hPa 0,0 l/m 7,3 km/h (2 Bft) W-SW 244 0 min 0,000 mm 0,5 UV-I 134 W/m 14,9 C 17,2 C 12,9 km/h (3 Bft) 97,87 %
07.09.2018 09:06 17,6 C 20,0 C 18,9 C 84 % 1011,6 hPa 0,0 l/m 7,1 km/h (2 Bft) W-SW 254 0 min 0,000 mm 0,5 UV-I 120 W/m 14,9 C 17,3 C 12,9 km/h (3 Bft) 100,00 %
07.09.2018 09:08 17,6 C 20,0 C 18,9 C 84 % 1011,6 hPa 0,0 l/m 10,0 km/h (2 Bft) SW 226 0 min 0,000 mm 0,5 UV-I 111 W/m 14,9 C 16,0 C 17,7 km/h (3 Bft) 97,87 %
07.09.2018 09:10 17,6 C 20,0 C 18,9 C 84 % 1011,6 hPa 0,0 l/m 9,2 km/h (2 Bft) W-SW 248 0 min 0,000 mm 0,5 UV-I 110 W/m 14,9 C 16,3 C 14,5 km/h (3 Bft) 97,92 %
07.09.2018 09:12 17,6 C 20,0 C 18,9 C 84 % 1011,6 hPa 0,0 l/m 8,6 km/h (2 Bft) SW 230 0 min 0,000 mm 0,5 UV-I 119 W/m 14,9 C 16,6 C 19,3 km/h (3 Bft) 100,00 %
07.09.2018 09:14 17,6 C 20,0 C 18,9 C 83 % 1011,6 hPa 0,0 l/m 13,5 km/h (3 Bft) W-SW 238 0 min 0,000 mm 0,6 UV-I 135 W/m 14,7 C 14,8 C 19,3 km/h (3 Bft) 95,74 %
07.09.2018 09:16 17,7 C 20,0 C 18,9 C 83 % 1011,6 hPa 0,0 l/m 6,8 km/h (2 Bft) SW 227 0 min 0,000 mm 0,6 UV-I 148 W/m 14,8 C 17,5 C 11,3 km/h (2 Bft) 97,87 %
07.09.2018 09:18 17,7 C 20,0 C 18,9 C 84 % 1011,6 hPa 0,0 l/m 8,0 km/h (2 Bft) W-SW 242 0 min 0,000 mm 0,6 UV-I 161 W/m 15,0 C 16,9 C 12,9 km/h (3 Bft) 100,00 %
07.09.2018 09:20 17,8 C 20,0 C 19,4 C 84 % 1011,7 hPa 0,0 l/m 8,6 km/h (2 Bft) W-SW 243 0 min 0,000 mm 0,6 UV-I 176 W/m 15,1 C 16,8 C 16,1 km/h (3 Bft) 100,00 %
07.09.2018 09:22 17,8 C 20,0 C 19,4 C 84 % 1011,7 hPa 0,0 l/m 5,1 km/h (1 Bft) W-SW 243 0 min 0,000 mm 0,7 UV-I 183 W/m 15,1 C 17,8 C 11,3 km/h (2 Bft) 100,00 %
07.09.2018 09:24 17,9 C 20,0 C 20,0 C 84 % 1011,6 hPa 0,0 l/m 5,4 km/h (1 Bft) SW 235 0 min 0,000 mm 0,8 UV-I 184 W/m 15,2 C 17,9 C 12,9 km/h (3 Bft) 100,00 %
07.09.2018 09:26 17,9 C 20,0 C 20,0 C 83 % 1011,7 hPa 0,0 l/m 8,0 km/h (2 Bft) W-SW 246 0 min 0,000 mm 0,8 UV-I 208 W/m 15,0 C 17,1 C 16,1 km/h (3 Bft) 100,00 %
07.09.2018 09:28 18,0 C 20,0 C 20,6 C 84 % 1011,7 hPa 0,0 l/m 7,9 km/h (2 Bft) W-SW 244 0 min 0,000 mm 0,9 UV-I 226 W/m 15,3 C 17,3 C 17,7 km/h (3 Bft) 100,00 %
07.09.2018 09:30 18,1 C 20,0 C 20,6 C 84 % 1011,7 hPa 0,0 l/m 8,8 km/h (2 Bft) W-SW 237 0 min 0,000 mm 0,9 UV-I 237 W/m 15,4 C 17,0 C 17,7 km/h (3 Bft) 100,00 %
07.09.2018 09:32 18,2 C 20,0 C 20,6 C 83 % 1011,7 hPa 0,0 l/m 12,0 km/h (2 Bft) W 263 0 min 0,000 mm 0,9 UV-I 214 W/m 15,3 C 16,0 C 19,3 km/h (3 Bft) 97,87 %
07.09.2018 09:34 18,3 C 20,0 C 21,1 C 83 % 1011,7 hPa 0,0 l/m 8,8 km/h (2 Bft) SW 229 0 min 0,000 mm 0,9 UV-I 209 W/m 15,4 C 17,2 C 14,5 km/h (3 Bft) 100,00 %
07.09.2018 09:36 18,3 C 20,6 C 21,1 C 83 % 1011,6 hPa 0,0 l/m 9,2 km/h (2 Bft) SW 232 0 min 0,000 mm 1,0 UV-I 212 W/m 15,4 C 17,1 C 16,1 km/h (3 Bft) 100,00 %
07.09.2018 09:38 18,3 C 20,6 C 21,1 C 83 % 1011,7 hPa 0,0 l/m 8,9 km/h (2 Bft) W 263 0 min 0,000 mm 1,0 UV-I 215 W/m 15,4 C 17,2 C 14,5 km/h (3 Bft) 97,87 %
07.09.2018 09:40 18,4 C 20,0 C 21,1 C 83 % 1011,8 hPa 0,0 l/m 8,1 km/h (2 Bft) SW 216 0 min 0,000 mm 1,0 UV-I 223 W/m 15,5 C 17,6 C 14,5 km/h (3 Bft) 97,87 %
07.09.2018 09:42 18,4 C 20,6 C 21,1 C 82 % 1011,7 hPa 0,0 l/m 7,6 km/h (2 Bft) W-SW 242 0 min 0,000 mm 1,1 UV-I 248 W/m 15,3 C 17,8 C 17,7 km/h (3 Bft) 96,00 %
07.09.2018 09:44 18,5 C 20,0 C 21,1 C 81 % 1011,8 hPa 0,0 l/m 7,7 km/h (2 Bft) W-SW 242 0 min 0,000 mm 1,1 UV-I 249 W/m 15,2 C 17,9 C 17,7 km/h (3 Bft) 97,87 %
07.09.2018 09:46 18,5 C 20,6 C 21,1 C 81 % 1011,8 hPa 0,0 l/m 11,3 km/h (2 Bft) SW 234 0 min 0,000 mm 1,0 UV-I 220 W/m 15,2 C 16,5 C 19,3 km/h (3 Bft) 100,00 %
07.09.2018 09:48 18,5 C 20,6 C 21,1 C 81 % 1011,8 hPa 0,0 l/m 11,8 km/h (2 Bft) W-SW 247 0 min 0,000 mm 1,0 UV-I 216 W/m 15,2 C 16,4 C 24,1 km/h (4 Bft) 100,00 %
07.09.2018 09:50 18,5 C 20,6 C 21,1 C 81 % 1011,8 hPa 0,0 l/m 11,1 km/h (2 Bft) W-SW 242 0 min 0,000 mm 1,1 UV-I 226 W/m 15,2 C 16,6 C 17,7 km/h (3 Bft) 100,00 %
07.09.2018 09:52 18,5 C 20,6 C 21,1 C 81 % 1011,8 hPa 0,0 l/m 11,0 km/h (2 Bft) W-SW 240 0 min 0,000 mm 1,1 UV-I 238 W/m 15,2 C 16,6 C 17,7 km/h (3 Bft) 100,00 %
07.09.2018 09:54 18,6 C 20,6 C 21,1 C 81 % 1011,8 hPa 0,0 l/m 10,2 km/h (2 Bft) W 259 0 min 0,000 mm 1,1 UV-I 262 W/m 15,3 C 17,0 C 16,1 km/h (3 Bft) 100,00 %
07.09.2018 09:56 18,6 C 20,6 C 21,7 C 81 % 1011,8 hPa 0,0 l/m 10,1 km/h (2 Bft) W 275 0 min 0,000 mm 1,1 UV-I 285 W/m 15,3 C 17,1 C 17,7 km/h (3 Bft) 97,92 %
07.09.2018 09:58 18,7 C 20,6 C 22,2 C 82 % 1011,8 hPa 0,0 l/m 5,8 km/h (2 Bft) NW 305 2 min 0,000 mm 1,1 UV-I 314 W/m 15,6 C 18,7 C 11,3 km/h (2 Bft) 100,00 %
07.09.2018 10:00 18,8 C 20,6 C 22,2 C 81 % 1011,8 hPa 0,0 l/m 11,5 km/h (2 Bft) W-SW 252 2 min 0,127 mm 1,2 UV-I 338 W/m 15,5 C 16,8 C 19,3 km/h (3 Bft) 100,00 %
07.09.2018 10:02 18,9 C 20,6 C 22,8 C 81 % 1011,8 hPa 0,0 l/m 8,5 km/h (2 Bft) SW 229 2 min 0,000 mm 1,2 UV-I 374 W/m 15,6 C 18,0 C 14,5 km/h (3 Bft) 97,37 %
07.09.2018 10:04 18,9 C 20,6 C 23,3 C 80 % 1011,8 hPa 0,0 l/m 10,7 km/h (2 Bft) W-SW 251 2 min 0,000 mm 1,3 UV-I 375 W/m 15,4 C 17,2 C 16,1 km/h (3 Bft) 100,00 %
07.09.2018 10:06 19,0 C 20,6 C 23,3 C 80 % 1011,8 hPa 0,0 l/m 8,6 km/h (2 Bft) W-SW 253 2 min 0,000 mm 1,2 UV-I 335 W/m 15,5 C 18,1 C 16,1 km/h (3 Bft) 98,00 %
07.09.2018 10:08 18,9 C 20,6 C 22,8 C 80 % 1011,8 hPa 0,0 l/m 10,4 km/h (2 Bft) W 269 0 min 0,000 mm 1,1 UV-I 305 W/m 15,4 C 17,3 C 17,7 km/h (3 Bft) 97,87 %
07.09.2018 10:10 18,9 C 20,6 C 21,7 C 80 % 1011,9 hPa 0,0 l/m 8,6 km/h (2 Bft) W 276 0 min 0,000 mm 1,1 UV-I 250 W/m 15,4 C 18,0 C 20,9 km/h (4 Bft) 95,74 %
07.09.2018 10:12 18,8 C 20,6 C 21,1 C 80 % 1011,9 hPa 0,0 l/m 10,9 km/h (2 Bft) W-SW 246 0 min 0,000 mm 1,0 UV-I 223 W/m 15,3 C 17,0 C 20,9 km/h (4 Bft) 97,87 %
07.09.2018 10:14 18,8 C 20,6 C 21,1 C 80 % 1011,9 hPa 0,0 l/m 3,0 km/h (1 Bft) SW 234 0 min 0,000 mm 1,0 UV-I 207 W/m 15,3 C 18,8 C 11,3 km/h (2 Bft) 91,49 %
07.09.2018 10:16 18,7 C 20,6 C 21,1 C 81 % 1011,9 hPa 0,0 l/m 9,8 km/h (2 Bft) W-SW 257 0 min 0,000 mm 1,0 UV-I 197 W/m 15,4 C 17,3 C 17,7 km/h (3 Bft) 93,62 %
07.09.2018 10:18 18,7 C 20,6 C 21,1 C 81 % 1011,9 hPa 0,0 l/m 7,4 km/h (2 Bft) W 265 0 min 0,000 mm 0,9 UV-I 186 W/m 15,4 C 18,2 C 12,9 km/h (3 Bft) 95,74 %
07.09.2018 10:20 18,7 C 20,6 C 21,1 C 82 % 1011,9 hPa 0,0 l/m 6,5 km/h (2 Bft) SW 226 0 min 0,000 mm 0,9 UV-I 174 W/m 15,6 C 18,7 C 12,9 km/h (3 Bft) 93,62 %
07.09.2018 10:22 18,7 C 20,6 C 20,6 C 81 % 1011,9 hPa 0,0 l/m 11,8 km/h (2 Bft) SW 229 0 min 0,000 mm 0,8 UV-I 161 W/m 15,4 C 16,6 C 17,7 km/h (3 Bft) 95,74 %
07.09.2018 10:24 18,6 C 20,6 C 20,6 C 81 % 1012,0 hPa 0,0 l/m 11,0 km/h (2 Bft) W 267 0 min 0,000 mm 0,8 UV-I 159 W/m 15,3 C 16,7 C 17,7 km/h (3 Bft) 93,62 %
07.09.2018 10:26 18,4 C 20,6 C 20,0 C 81 % 1012,0 hPa 0,0 l/m 9,1 km/h (2 Bft) SW 220 0 min 0,000 mm 0,8 UV-I 153 W/m 15,1 C 17,2 C 16,1 km/h (3 Bft) 93,75 %
07.09.2018 10:28 18,4 C 20,6 C 20,0 C 81 % 1012,0 hPa 0,0 l/m 8,7 km/h (2 Bft) W-SW 246 0 min 0,000 mm 0,7 UV-I 144 W/m 15,1 C 17,4 C 17,7 km/h (3 Bft) 95,74 %
07.09.2018 10:30 18,4 C 20,6 C 20,0 C 81 % 1012,0 hPa 0,0 l/m 9,0 km/h (2 Bft) W-SW 254 0 min 0,000 mm 0,7 UV-I 142 W/m 15,1 C 17,3 C 16,1 km/h (3 Bft) 91,49 %
07.09.2018 10:32 18,3 C 20,6 C 20,0 C 82 % 1012,0 hPa 0,0 l/m 8,0 km/h (2 Bft) W 273 0 min 0,000 mm 0,7 UV-I 142 W/m 15,2 C 17,6 C 16,1 km/h (3 Bft) 93,62 %
07.09.2018 10:34 18,3 C 20,6 C 20,0 C 82 % 1012,1 hPa 0,0 l/m 6,9 km/h (2 Bft) W-SW 241 0 min 0,000 mm 0,8 UV-I 147 W/m 15,2 C 18,1 C 16,1 km/h (3 Bft) 95,74 %
07.09.2018 10:36 18,4 C 20,6 C 20,0 C 82 % 1012,1 hPa 0,0 l/m 3,8 km/h (1 Bft) W-SW 252 0 min 0,000 mm 0,8 UV-I 154 W/m 15,3 C 18,4 C 11,3 km/h (2 Bft) 97,87 %
07.09.2018 10:38 18,4 C 20,6 C 20,6 C 82 % 1012,1 hPa 0,0 l/m 7,4 km/h (2 Bft) W-SW 246 0 min 0,000 mm 0,9 UV-I 160 W/m 15,3 C 17,9 C 12,9 km/h (3 Bft) 96,00 %
07.09.2018 10:40 18,4 C 20,6 C 20,6 C 82 % 1012,1 hPa 0,0 l/m 6,2 km/h (2 Bft) W-SW 248 0 min 0,000 mm 1,0 UV-I 170 W/m 15,3 C 18,4 C 12,9 km/h (3 Bft) 93,62 %
07.09.2018 10:42 18,4 C 20,6 C 20,6 C 82 % 1012,1 hPa 0,0 l/m 3,4 km/h (1 Bft) SW 233 0 min 0,000 mm 1,0 UV-I 184 W/m 15,3 C 18,4 C 11,3 km/h (2 Bft) 97,37 %
07.09.2018 10:44 18,5 C 20,6 C 21,1 C 82 % 1012,1 hPa 0,0 l/m 3,4 km/h (1 Bft) SW 233 0 min 0,000 mm 1,1 UV-I 193 W/m 15,4 C 18,5 C 9,7 km/h (2 Bft) 98,00 %
07.09.2018 10:46 18,5 C 20,6 C 21,1 C 82 % 1012,2 hPa 0,0 l/m 3,1 km/h (1 Bft) W-SW 240 0 min 0,000 mm 1,2 UV-I 206 W/m 15,4 C 18,5 C 9,7 km/h (2 Bft) 95,74 %
07.09.2018 10:48 18,5 C 20,6 C 21,1 C 82 % 1012,2 hPa 0,0 l/m 7,7 km/h (2 Bft) W-SW 253 0 min 0,000 mm 1,2 UV-I 204 W/m 15,4 C 17,9 C 14,5 km/h (3 Bft) 95,74 %
07.09.2018 10:50 18,6 C 20,6 C 21,1 C 82 % 1012,2 hPa 0,0 l/m 6,6 km/h (2 Bft) W-SW 254 0 min 0,000 mm 1,1 UV-I 187 W/m 15,5 C 18,5 C 12,9 km/h (3 Bft) 95,74 %
07.09.2018 10:52 18,5 C 20,6 C 21,1 C 82 % 1012,2 hPa 0,0 l/m 6,5 km/h (2 Bft) W 277 0 min 0,000 mm 1,1 UV-I 184 W/m 15,4 C 18,5 C 12,9 km/h (3 Bft) 97,87 %
07.09.2018 10:54 18,5 C 20,6 C 21,1 C 82 % 1012,2 hPa 0,0 l/m 6,4 km/h (2 Bft) W-SW 250 0 min 0,000 mm 1,2 UV-I 198 W/m 15,4 C 18,5 C 12,9 km/h (3 Bft) 95,74 %
07.09.2018 10:56 18,5 C 20,6 C 21,1 C 82 % 1012,2 hPa 0,0 l/m 6,1 km/h (2 Bft) W-SW 250 0 min 0,000 mm 1,3 UV-I 217 W/m 15,4 C 18,5 C 12,9 km/h (3 Bft) 97,87 %
07.09.2018 10:58 18,6 C 20,6 C 21,7 C 82 % 1012,2 hPa 0,0 l/m 4,5 km/h (1 Bft) W-SW 238 0 min 0,000 mm 1,4 UV-I 240 W/m 15,5 C 18,6 C 11,3 km/h (2 Bft) 97,87 %
07.09.2018 11:00 18,6 C 20,6 C 21,7 C 82 % 1012,2 hPa 0,0 l/m 9,1 km/h (2 Bft) W 275 0 min 0,127 mm 1,3 UV-I 242 W/m 15,5 C 17,4 C 16,1 km/h (3 Bft) 95,74 %
07.09.2018 11:02 18,7 C 20,6 C 21,7 C 82 % 1012,2 hPa 0,0 l/m 5,8 km/h (2 Bft) W-SW 244 0 min 0,000 mm 1,3 UV-I 235 W/m 15,6 C 18,7 C 11,3 km/h (2 Bft) 95,74 %
07.09.2018 11:04 18,7 C 20,6 C 21,7 C 82 % 1012,2 hPa 0,0 l/m 7,4 km/h (2 Bft) W 261 0 min 0,000 mm 1,3 UV-I 240 W/m 15,6 C 18,2 C 16,1 km/h (3 Bft) 96,00 %
07.09.2018 11:06 18,7 C 20,6 C 21,7 C 81 % 1012,3 hPa 0,0 l/m 7,1 km/h (2 Bft) W 266 0 min 0,000 mm 1,4 UV-I 236 W/m 15,4 C 18,4 C 14,5 km/h (3 Bft) 95,74 %
07.09.2018 11:08 18,7 C 20,6 C 21,7 C 81 % 1012,3 hPa 0,0 l/m 4,8 km/h (1 Bft) W-SW 241 0 min 0,000 mm 1,4 UV-I 237 W/m 15,4 C 18,7 C 12,9 km/h (3 Bft) 94,87 %
07.09.2018 11:10 18,8 C 20,6 C 21,7 C 82 % 1012,3 hPa 0,0 l/m 2,4 km/h (1 Bft) SW 226 0 min 0,000 mm 1,4 UV-I 233 W/m 15,7 C 18,8 C 9,7 km/h (2 Bft) 93,62 %
07.09.2018 11:12 18,9 C 20,6 C 22,2 C 82 % 1012,4 hPa 0,0 l/m 6,6 km/h (2 Bft) W 261 0 min 0,000 mm 1,4 UV-I 229 W/m 15,8 C 18,8 C 11,3 km/h (2 Bft) 97,87 %
07.09.2018 11:14 18,8 C 20,6 C 21,7 C 81 % 1012,4 hPa 0,0 l/m 9,5 km/h (2 Bft) SW 230 0 min 0,000 mm 1,3 UV-I 224 W/m 15,5 C 17,5 C 14,5 km/h (3 Bft) 96,23 %
07.09.2018 11:16 18,9 C 20,6 C 22,2 C 81 % 1012,4 hPa 0,0 l/m 4,0 km/h (1 Bft) W-SW 238 0 min 0,000 mm 1,4 UV-I 237 W/m 15,6 C 18,9 C 9,7 km/h (2 Bft) 97,87 %
07.09.2018 11:18 18,9 C 20,6 C 22,2 C 81 % 1012,4 hPa 0,0 l/m 7,2 km/h (2 Bft) W 264 0 min 0,000 mm 1,4 UV-I 247 W/m 15,6 C 18,5 C 14,5 km/h (3 Bft) 97,37 %
07.09.2018 11:20 18,9 C 20,6 C 22,2 C 81 % 1012,4 hPa 0,0 l/m 2,6 km/h (1 Bft) W 264 0 min 0,000 mm 1,5 UV-I 253 W/m 15,6 C 18,9 C 8,0 km/h (2 Bft) 96,23 %
07.09.2018 11:22 19,0 C 20,6 C 22,2 C 81 % 1012,3 hPa 0,0 l/m 6,2 km/h (2 Bft) W-SW 257 0 min 0,000 mm 1,3 UV-I 236 W/m 15,7 C 19,0 C 12,9 km/h (3 Bft) 97,87 %
07.09.2018 11:24 19,0 C 20,6 C 21,7 C 80 % 1012,3 hPa 0,0 l/m 10,6 km/h (2 Bft) W-NW 290 0 min 0,000 mm 1,3 UV-I 228 W/m 15,5 C 17,3 C 17,7 km/h (3 Bft) 95,74 %
07.09.2018 11:26 18,9 C 20,6 C 21,7 C 80 % 1012,4 hPa 0,0 l/m 8,6 km/h (2 Bft) SW 223 0 min 0,000 mm 1,3 UV-I 225 W/m 15,4 C 18,0 C 16,1 km/h (3 Bft) 98,00 %
07.09.2018 11:28 18,9 C 20,6 C 21,7 C 80 % 1012,3 hPa 0,0 l/m 11,1 km/h (2 Bft) SW 214 0 min 0,000 mm 1,4 UV-I 239 W/m 15,4 C 17,0 C 19,3 km/h (3 Bft) 95,74 %
07.09.2018 11:30 18,9 C 20,6 C 21,7 C 81 % 1012,3 hPa 0,0 l/m 8,9 km/h (2 Bft) W 273 0 min 0,000 mm 1,3 UV-I 232 W/m 15,6 C 17,8 C 19,3 km/h (3 Bft) 97,14 %
07.09.2018 11:32 18,9 C 20,6 C 21,7 C 80 % 1012,3 hPa 0,0 l/m 10,4 km/h (2 Bft) W 279 0 min 0,000 mm 1,2 UV-I 200 W/m 15,4 C 17,3 C 14,5 km/h (3 Bft) 100,00 %
07.09.2018 11:34 18,9 C 20,6 C 21,1 C 80 % 1012,3 hPa 0,0 l/m 10,8 km/h (2 Bft) W 259 0 min 0,000 mm 1,3 UV-I 218 W/m 15,4 C 17,1 C 17,7 km/h (3 Bft) 98,00 %
07.09.2018 11:36 18,9 C 20,6 C 21,7 C 81 % 1012,2 hPa 0,0 l/m 5,3 km/h (1 Bft) W-SW 240 0 min 0,000 mm 1,5 UV-I 251 W/m 15,6 C 18,9 C 14,5 km/h (3 Bft) 94,00 %
07.09.2018 11:38 19,0 C 20,6 C 22,2 C 80 % 1012,2 hPa 0,0 l/m 5,7 km/h (1 Bft) SW 227 0 min 0,000 mm 1,4 UV-I 239 W/m 15,5 C 19,0 C 11,3 km/h (2 Bft) 96,00 %
07.09.2018 11:40 19,0 C 20,6 C 21,7 C 81 % 1012,3 hPa 0,0 l/m 10,2 km/h (2 Bft) W-SW 248 0 min 0,000 mm 1,3 UV-I 226 W/m 15,7 C 17,5 C 19,3 km/h (3 Bft) 95,74 %
07.09.2018 11:42 19,0 C 20,6 C 21,7 C 80 % 1012,3 hPa 0,0 l/m 10,9 km/h (2 Bft) W 261 0 min 0,000 mm 1,4 UV-I 230 W/m 15,5 C 17,2 C 19,3 km/h (3 Bft) 94,87 %
07.09.2018 11:44 18,9 C 20,6 C 21,7 C 80 % 1012,3 hPa 0,0 l/m 10,3 km/h (2 Bft) W-SW 257 0 min 0,000 mm 1,4 UV-I 238 W/m 15,4 C 17,3 C 16,1 km/h (3 Bft) 96,00 %
07.09.2018 11:46 18,9 C 20,6 C 21,7 C 80 % 1012,3 hPa 0,0 l/m 6,6 km/h (2 Bft) W-SW 250 0 min 0,000 mm 1,6 UV-I 251 W/m 15,4 C 18,8 C 12,9 km/h (3 Bft) 92,11 %
07.09.2018 11:48 19,1 C 20,6 C 22,2 C 81 % 1012,4 hPa 0,0 l/m 9,5 km/h (2 Bft) W-SW 237 0 min 0,000 mm 1,6 UV-I 256 W/m 15,8 C 17,8 C 20,9 km/h (4 Bft) 96,00 %
07.09.2018 11:50 19,1 C 20,6 C 21,7 C 80 % 1012,4 hPa 0,0 l/m 8,5 km/h (2 Bft) W 267 0 min 0,000 mm 1,5 UV-I 238 W/m 15,6 C 18,2 C 14,5 km/h (3 Bft) 93,62 %
07.09.2018 11:52 19,1 C 20,6 C 22,2 C 81 % 1012,4 hPa 0,0 l/m 7,2 km/h (2 Bft) W-SW 248 0 min 0,000 mm 1,6 UV-I 245 W/m 15,8 C 18,7 C 14,5 km/h (3 Bft) 94,00 %
07.09.2018 11:54 19,2 C 20,6 C 22,2 C 81 % 1012,4 hPa 0,0 l/m 7,2 km/h (2 Bft) W 261 0 min 0,000 mm 1,7 UV-I 269 W/m 15,9 C 18,9 C 12,9 km/h (3 Bft) 96,23 %
07.09.2018 11:56 19,2 C 20,6 C 22,2 C 81 % 1012,4 hPa 0,0 l/m 9,4 km/h (2 Bft) W-SW 237 0 min 0,000 mm 1,7 UV-I 266 W/m 15,9 C 18,0 C 17,7 km/h (3 Bft) 92,11 %
07.09.2018 11:58 19,2 C 20,6 C 22,2 C 80 % 1012,3 hPa 0,0 l/m 9,7 km/h (2 Bft) SW 228 0 min 0,000 mm 1,7 UV-I 264 W/m 15,7 C 17,9 C 16,1 km/h (3 Bft) 97,87 %
07.09.2018 12:00 19,2 C 20,6 C 22,2 C 81 % 1012,4 hPa 0,0 l/m 8,9 km/h (2 Bft) W-SW 256 0 min 0,152 mm 1,7 UV-I 258 W/m 15,9 C 18,2 C 17,7 km/h (3 Bft) 97,87 %
07.09.2018 12:02 19,2 C 20,6 C 22,2 C 81 % 1012,3 hPa 0,0 l/m 9,0 km/h (2 Bft) SW 227 0 min 0,000 mm 1,4 UV-I 228 W/m 15,9 C 18,1 C 12,9 km/h (3 Bft) 97,87 %
07.09.2018 12:04 19,3 C 20,6 C 22,2 C 81 % 1012,3 hPa 0,0 l/m 7,5 km/h (2 Bft) W-NW 282 0 min 0,000 mm 1,2 UV-I 189 W/m 16,0 C 18,8 C 16,1 km/h (3 Bft) 96,00 %
07.09.2018 12:06 19,2 C 20,6 C 21,7 C 80 % 1012,4 hPa 0,0 l/m 10,2 km/h (2 Bft) W 268 0 min 0,000 mm 1,2 UV-I 178 W/m 15,7 C 17,7 C 17,7 km/h (3 Bft) 95,74 %
07.09.2018 12:08 19,1 C 20,6 C 21,7 C 81 % 1012,4 hPa 0,0 l/m 10,9 km/h (2 Bft) W-SW 243 0 min 0,000 mm 1,3 UV-I 199 W/m 15,8 C 17,3 C 19,3 km/h (3 Bft) 97,87 %
07.09.2018 12:10 19,0 C 20,6 C 21,1 C 81 % 1012,4 hPa 0,0 l/m 5,5 km/h (1 Bft) W-SW 252 0 min 0,000 mm 1,2 UV-I 185 W/m 15,7 C 19,0 C 12,9 km/h (3 Bft) 100,00 %
07.09.2018 12:12 19,0 C 20,6 C 21,7 C 81 % 1012,4 hPa 0,0 l/m 4,3 km/h (1 Bft) W 264 0 min 0,000 mm 1,2 UV-I 175 W/m 15,7 C 19,0 C 11,3 km/h (2 Bft) 98,00 %
07.09.2018 12:14 19,0 C 20,6 C 21,7 C 81 % 1012,4 hPa 0,0 l/m 3,0 km/h (1 Bft) W-SW 243 0 min 0,000 mm 1,3 UV-I 183 W/m 15,7 C 19,0 C 9,7 km/h (2 Bft) 97,37 %
07.09.2018 12:16 19,0 C 20,6 C 21,7 C 81 % 1012,5 hPa 0,0 l/m 1,9 km/h (1 Bft) SW 234 0 min 0,000 mm 1,3 UV-I 185 W/m 15,7 C 19,0 C 8,0 km/h (2 Bft) 97,92 %
07.09.2018 12:18 19,0 C 20,6 C 21,1 C 81 % 1012,5 hPa 0,0 l/m 8,7 km/h (2 Bft) SW 234 0 min 0,000 mm 1,2 UV-I 171 W/m 15,7 C 18,0 C 16,1 km/h (3 Bft) 95,74 %
07.09.2018 12:20 19,0 C 20,6 C 21,1 C 81 % 1012,5 hPa 0,0 l/m 3,4 km/h (1 Bft) W 261 0 min 0,000 mm 1,2 UV-I 181 W/m 15,7 C 19,0 C 9,7 km/h (2 Bft) 97,87 %
07.09.2018 12:22 19,0 C 20,6 C 21,7 C 81 % 1012,4 hPa 0,0 l/m 9,8 km/h (2 Bft) W-SW 252 0 min 0,000 mm 1,6 UV-I 237 W/m 15,7 C 17,6 C 14,5 km/h (3 Bft) 97,87 %
07.09.2018 12:24 19,0 C 20,6 C 22,2 C 81 % 1012,4 hPa 0,0 l/m 8,1 km/h (2 Bft) W-SW 250 0 min 0,000 mm 1,9 UV-I 285 W/m 15,7 C 18,3 C 14,5 km/h (3 Bft) 97,87 %
07.09.2018 12:26 19,1 C 20,6 C 22,2 C 81 % 1012,4 hPa 0,0 l/m 5,6 km/h (1 Bft) NW 304 0 min 0,000 mm 2,0 UV-I 291 W/m 15,8 C 19,1 C 12,9 km/h (3 Bft) 93,62 %
07.09.2018 12:28 19,2 C 20,6 C 23,3 C 81 % 1012,4 hPa 0,0 l/m 0,5 km/h (0 Bft) W 279 0 min 0,000 mm 2,0 UV-I 293 W/m 15,9 C 19,2 C 3,2 km/h (1 Bft) 96,00 %
07.09.2018 12:30 19,3 C 20,6 C 23,3 C 82 % 1012,4 hPa 0,0 l/m 0,9 km/h (0 Bft) W 261 0 min 0,000 mm 2,1 UV-I 297 W/m 16,1 C 19,3 C 4,8 km/h (1 Bft) 95,74 %
07.09.2018 12:32 19,4 C 20,6 C 23,9 C 80 % 1012,4 hPa 0,0 l/m 2,5 km/h (1 Bft) W 273 0 min 0,000 mm 2,0 UV-I 278 W/m 15,9 C 19,4 C 6,4 km/h (2 Bft) 95,74 %
07.09.2018 12:34 19,4 C 20,6 C 23,3 C 80 % 1012,4 hPa 0,0 l/m 0,0 km/h (0 Bft) W 260 0 min 0,000 mm 1,7 UV-I 234 W/m 15,9 C 19,4 C 1,6 km/h (1 Bft) 97,87 %
07.09.2018 12:36 19,4 C 20,6 C 23,3 C 80 % 1012,5 hPa 0,0 l/m 3,2 km/h (1 Bft) SW 223 0 min 0,000 mm 1,5 UV-I 213 W/m 15,9 C 19,4 C 14,5 km/h (3 Bft) 97,87 %
07.09.2018 12:38 19,4 C 20,6 C 22,8 C 79 % 1012,4 hPa 0,0 l/m 5,5 km/h (1 Bft) SW 234 0 min 0,000 mm 1,3 UV-I 187 W/m 15,7 C 19,4 C 16,1 km/h (3 Bft) 95,74 %
07.09.2018 12:40 19,3 C 20,6 C 22,2 C 80 % 1012,5 hPa 0,0 l/m 7,5 km/h (2 Bft) W 267 0 min 0,000 mm 1,2 UV-I 172 W/m 15,8 C 18,8 C 14,5 km/h (3 Bft) 98,00 %
07.09.2018 12:42 19,3 C 20,6 C 21,7 C 80 % 1012,5 hPa 0,0 l/m 3,7 km/h (1 Bft) W-SW 257 0 min 0,000 mm 1,2 UV-I 180 W/m 15,8 C 19,3 C 8,0 km/h (2 Bft) 97,87 %
07.09.2018 12:44 19,3 C 20,6 C 21,1 C 80 % 1012,5 hPa 0,0 l/m 6,6 km/h (2 Bft) W-SW 246 0 min 0,000 mm 1,2 UV-I 177 W/m 15,8 C 19,2 C 12,9 km/h (3 Bft) 100,00 %
07.09.2018 12:46 19,3 C 20,6 C 21,1 C 80 % 1012,5 hPa 0,0 l/m 8,2 km/h (2 Bft) W-SW 242 0 min 0,000 mm 1,0 UV-I 153 W/m 15,8 C 18,5 C 14,5 km/h (3 Bft) 100,00 %
07.09.2018 12:48 19,2 C 20,6 C 20,6 C 80 % 1012,5 hPa 0,0 l/m 3,2 km/h (1 Bft) W 271 0 min 0,000 mm 0,8 UV-I 130 W/m 15,7 C 19,2 C 9,7 km/h (2 Bft) 97,37 %
07.09.2018 12:50 19,2 C 20,6 C 20,6 C 81 % 1012,5 hPa 0,0 l/m 7,2 km/h (2 Bft) S-SW 209 0 min 0,000 mm 0,9 UV-I 129 W/m 15,9 C 18,9 C 14,5 km/h (3 Bft) 97,87 %
07.09.2018 12:52 19,1 C 20,6 C 20,6 C 81 % 1012,5 hPa 0,0 l/m 11,5 km/h (2 Bft) W-SW 240 0 min 0,000 mm 1,1 UV-I 152 W/m 15,8 C 17,1 C 19,3 km/h (3 Bft) 100,00 %
07.09.2018 12:54 19,1 C 20,6 C 20,6 C 81 % 1012,5 hPa 0,0 l/m 11,4 km/h (2 Bft) SW 228 0 min 0,000 mm 1,2 UV-I 172 W/m 15,8 C 17,2 C 16,1 km/h (3 Bft) 95,74 %
07.09.2018 12:56 19,1 C 20,6 C 21,1 C 81 % 1012,5 hPa 0,0 l/m 6,4 km/h (2 Bft) W-SW 244 0 min 0,000 mm 1,3 UV-I 181 W/m 15,8 C 19,1 C 11,3 km/h (2 Bft) 97,92 %
07.09.2018 12:58 19,2 C 20,6 C 21,1 C 81 % 1012,6 hPa 0,0 l/m 6,2 km/h (2 Bft) W-NW 290 0 min 0,000 mm 1,3 UV-I 186 W/m 15,9 C 19,2 C 14,5 km/h (3 Bft) 98,00 %
07.09.2018 13:00 19,2 C 20,6 C 21,1 C 80 % 1012,6 hPa 0,0 l/m 5,3 km/h (1 Bft) W-SW 257 0 min 0,127 mm 1,2 UV-I 181 W/m 15,7 C 19,2 C 11,3 km/h (2 Bft) 100,00 %
07.09.2018 13:02 19,2 C 20,6 C 21,1 C 80 % 1012,5 hPa 0,0 l/m 8,6 km/h (2 Bft) W-SW 239 0 min 0,000 mm 1,3 UV-I 187 W/m 15,7 C 18,3 C 19,3 km/h (3 Bft) 97,87 %
07.09.2018 13:04 19,2 C 20,6 C 21,1 C 80 % 1012,5 hPa 0,0 l/m 8,2 km/h (2 Bft) W 273 0 min 0,000 mm 1,4 UV-I 204 W/m 15,7 C 18,4 C 14,5 km/h (3 Bft) 100,00 %
07.09.2018 13:06 19,3 C 20,6 C 21,7 C 80 % 1012,5 hPa 0,0 l/m 7,5 km/h (2 Bft) SW 225 0 min 0,000 mm 1,5 UV-I 220 W/m 15,8 C 18,8 C 11,3 km/h (2 Bft) 100,00 %
07.09.2018 13:08 19,3 C 20,6 C 21,7 C 80 % 1012,5 hPa 0,0 l/m 9,0 km/h (2 Bft) W 262 0 min 0,000 mm 1,5 UV-I 223 W/m 15,8 C 18,2 C 14,5 km/h (3 Bft) 97,87 %
07.09.2018 13:10 19,3 C 20,6 C 21,7 C 81 % 1012,6 hPa 0,0 l/m 9,6 km/h (2 Bft) W-SW 254 0 min 0,000 mm 1,5 UV-I 214 W/m 16,0 C 18,0 C 12,9 km/h (3 Bft) 97,87 %
07.09.2018 13:12 19,3 C 20,6 C 21,7 C 80 % 1012,6 hPa 0,0 l/m 5,7 km/h (1 Bft) SW 226 0 min 0,000 mm 1,3 UV-I 192 W/m 15,8 C 19,3 C 11,3 km/h (2 Bft) 96,00 %
07.09.2018 13:14 19,2 C 20,6 C 21,7 C 80 % 1012,6 hPa 0,0 l/m 8,7 km/h (2 Bft) SW 233 0 min 0,000 mm 1,2 UV-I 180 W/m 15,7 C 18,2 C 16,1 km/h (3 Bft) 97,87 %
07.09.2018 13:16 19,2 C 20,6 C 21,1 C 80 % 1012,6 hPa 0,0 l/m 9,6 km/h (2 Bft) W-SW 256 0 min 0,000 mm 1,2 UV-I 176 W/m 15,7 C 17,9 C 17,7 km/h (3 Bft) 97,87 %
07.09.2018 13:18 19,3 C 20,6 C 21,1 C 80 % 1012,6 hPa 0,0 l/m 4,4 km/h (1 Bft) W 264 0 min 0,000 mm 1,1 UV-I 160 W/m 15,8 C 19,3 C 9,7 km/h (2 Bft) 97,87 %
07.09.2018 13:20 19,3 C 20,6 C 21,1 C 80 % 1012,6 hPa 0,0 l/m 4,9 km/h (1 Bft) W 279 0 min 0,000 mm 0,9 UV-I 136 W/m 15,8 C 19,3 C 11,3 km/h (2 Bft) 95,74 %
07.09.2018 13:22 19,2 C 20,6 C 20,6 C 80 % 1012,6 hPa 0,0 l/m 11,5 km/h (2 Bft) W 267 0 min 0,000 mm 0,7 UV-I 109 W/m 15,7 C 17,3 C 16,1 km/h (3 Bft) 95,74 %
07.09.2018 13:24 19,2 C 20,6 C 20,6 C 80 % 1012,7 hPa 0,0 l/m 9,7 km/h (2 Bft) W-SW 248 0 min 0,000 mm 0,7 UV-I 106 W/m 15,7 C 17,9 C 16,1 km/h (3 Bft) 97,87 %
07.09.2018 13:26 19,1 C 20,6 C 20,6 C 80 % 1012,7 hPa 0,0 l/m 8,5 km/h (2 Bft) W-SW 238 0 min 0,000 mm 0,9 UV-I 143 W/m 15,6 C 18,2 C 12,9 km/h (3 Bft) 94,00 %
07.09.2018 13:28 19,1 C 20,6 C 20,6 C 80 % 1012,7 hPa 0,0 l/m 7,6 km/h (2 Bft) W-SW 244 0 min 0,000 mm 1,3 UV-I 195 W/m 15,6 C 18,6 C 16,1 km/h (3 Bft) 97,87 %
07.09.2018 13:30 19,1 C 20,6 C 21,1 C 80 % 1012,7 hPa 0,0 l/m 9,7 km/h (2 Bft) W 273 0 min 0,000 mm 1,6 UV-I 232 W/m 15,6 C 17,8 C 16,1 km/h (3 Bft) 100,00 %
07.09.2018 13:32 19,2 C 20,6 C 21,7 C 81 % 1012,7 hPa 0,0 l/m 8,9 km/h (2 Bft) W-SW 251 0 min 0,000 mm 1,8 UV-I 281 W/m 15,9 C 18,2 C 14,5 km/h (3 Bft) 93,22 %
07.09.2018 13:34 19,3 C 20,6 C 22,8 C 80 % 1012,7 hPa 0,0 l/m 9,5 km/h (2 Bft) SW 236 0 min 0,000 mm 2,1 UV-I 311 W/m 15,8 C 18,0 C 14,5 km/h (3 Bft) 100,00 %
07.09.2018 13:36 19,5 C 20,6 C 23,3 C 81 % 1012,7 hPa 0,0 l/m 6,9 km/h (2 Bft) W-SW 247 0 min 0,000 mm 2,2 UV-I 308 W/m 16,1 C 19,3 C 16,1 km/h (3 Bft) 97,87 %
07.09.2018 13:38 19,6 C 20,6 C 23,3 C 80 % 1012,7 hPa 0,0 l/m 6,8 km/h (2 Bft) SW 228 0 min 0,000 mm 2,0 UV-I 288 W/m 16,1 C 19,4 C 16,1 km/h (3 Bft) 97,87 %
07.09.2018 13:40 19,7 C 20,6 C 22,8 C 79 % 1012,7 hPa 0,0 l/m 10,6 km/h (2 Bft) SW 236 0 min 0,000 mm 1,9 UV-I 262 W/m 16,0 C 18,1 C 17,7 km/h (3 Bft) 100,00 %
07.09.2018 13:42 19,7 C 20,6 C 22,8 C 79 % 1012,7 hPa 0,0 l/m 7,7 km/h (2 Bft) W-SW 252 0 min 0,000 mm 2,0 UV-I 271 W/m 16,0 C 19,2 C 14,5 km/h (3 Bft) 95,74 %
07.09.2018 13:44 19,7 C 20,6 C 22,8 C 78 % 1012,7 hPa 0,0 l/m 10,4 km/h (2 Bft) W-SW 241 0 min 0,000 mm 1,9 UV-I 263 W/m 15,8 C 18,2 C 17,7 km/h (3 Bft) 100,00 %
07.09.2018 13:46 19,7 C 20,6 C 22,8 C 78 % 1012,8 hPa 0,0 l/m 10,9 km/h (2 Bft) W 267 0 min 0,000 mm 1,6 UV-I 222 W/m 15,8 C 18,0 C 16,1 km/h (3 Bft) 100,00 %
07.09.2018 13:48 19,7 C 20,6 C 22,8 C 79 % 1012,8 hPa 0,0 l/m 8,3 km/h (2 Bft) W-SW 250 0 min 0,000 mm 1,6 UV-I 217 W/m 16,0 C 18,9 C 16,1 km/h (3 Bft) 95,74 %
07.09.2018 13:50 19,7 C 20,6 C 22,2 C 79 % 1012,8 hPa 0,0 l/m 7,8 km/h (2 Bft) SW 227 0 min 0,000 mm 1,5 UV-I 215 W/m 16,0 C 19,1 C 14,5 km/h (3 Bft) 100,00 %
07.09.2018 13:52 19,7 C 20,6 C 22,2 C 78 % 1012,8 hPa 0,0 l/m 10,7 km/h (2 Bft) SW 236 0 min 0,000 mm 1,5 UV-I 214 W/m 15,8 C 18,1 C 19,3 km/h (3 Bft) 100,00 %
07.09.2018 13:54 19,7 C 20,6 C 22,2 C 79 % 1012,8 hPa 0,0 l/m 10,3 km/h (2 Bft) S-SW 210 0 min 0,000 mm 1,6 UV-I 228 W/m 16,0 C 18,2 C 17,7 km/h (3 Bft) 100,00 %
07.09.2018 13:56 19,7 C 20,6 C 22,2 C 79 % 1012,8 hPa 0,0 l/m 13,7 km/h (3 Bft) SW 219 0 min 0,000 mm 1,7 UV-I 243 W/m 16,0 C 17,2 C 25,7 km/h (4 Bft) 100,00 %
07.09.2018 13:58 19,7 C 20,6 C 22,8 C 79 % 1012,8 hPa 0,0 l/m 8,6 km/h (2 Bft) SW 234 0 min 0,000 mm 1,8 UV-I 254 W/m 16,0 C 18,8 C 20,9 km/h (4 Bft) 97,87 %
07.09.2018 14:00 19,7 C 20,6 C 22,2 C 79 % 1012,8 hPa 0,0 l/m 6,7 km/h (2 Bft) W-NW 286 0 min 0,152 mm 1,5 UV-I 213 W/m 16,0 C 19,6 C 22,5 km/h (4 Bft) 100,00 %
07.09.2018 14:02 19,7 C 20,6 C 22,2 C 79 % 1012,8 hPa 0,0 l/m 17,0 km/h (3 Bft) W-SW 240 0 min 0,000 mm 1,2 UV-I 184 W/m 16,0 C 16,4 C 24,1 km/h (4 Bft) 97,87 %
07.09.2018 14:04 19,6 C 20,6 C 21,7 C 79 % 1012,9 hPa 0,0 l/m 16,0 km/h (3 Bft) W 273 0 min 0,000 mm 1,3 UV-I 181 W/m 15,9 C 16,5 C 30,6 km/h (5 Bft) 97,87 %
07.09.2018 14:06 19,5 C 20,6 C 21,1 C 80 % 1012,9 hPa 0,0 l/m 14,4 km/h (3 Bft) SW 215 0 min 0,000 mm 1,4 UV-I 204 W/m 16,0 C 16,8 C 20,9 km/h (4 Bft) 97,37 %
07.09.2018 14:08 19,4 C 20,6 C 21,1 C 80 % 1012,9 hPa 0,0 l/m 17,7 km/h (3 Bft) SW 221 0 min 0,000 mm 1,4 UV-I 207 W/m 15,9 C 15,9 C 29,0 km/h (5 Bft) 98,00 %
07.09.2018 14:10 19,3 C 20,6 C 21,1 C 80 % 1012,9 hPa 0,0 l/m 14,2 km/h (3 Bft) SW 231 0 min 0,000 mm 1,5 UV-I 215 W/m 15,8 C 16,6 C 22,5 km/h (4 Bft) 98,00 %
07.09.2018 14:12 19,3 C 20,6 C 21,1 C 81 % 1012,9 hPa 0,0 l/m 16,0 km/h (3 Bft) W 273 0 min 0,000 mm 1,5 UV-I 224 W/m 16,0 C 16,2 C 29,0 km/h (5 Bft) 97,87 %
07.09.2018 14:14 19,1 C 20,6 C 20,6 C 82 % 1013,0 hPa 0,0 l/m 19,2 km/h (3 Bft) W 267 0 min 0,000 mm 1,5 UV-I 230 W/m 16,0 C 15,2 C 27,4 km/h (4 Bft) 97,62 %
07.09.2018 14:16 18,8 C 20,6 C 20,0 C 83 % 1013,0 hPa 0,0 l/m 11,3 km/h (2 Bft) SW 214 0 min 0,000 mm 1,6 UV-I 237 W/m 15,8 C 16,9 C 20,9 km/h (4 Bft) 97,87 %
07.09.2018 14:18 18,7 C 20,6 C 19,4 C 86 % 1013,0 hPa 0,0 l/m 11,5 km/h (2 Bft) W-SW 246 0 min 0,000 mm 1,6 UV-I 245 W/m 16,3 C 16,7 C 24,1 km/h (4 Bft) 95,74 %
07.09.2018 14:20 18,5 C 20,6 C 19,4 C 87 % 1013,0 hPa 0,0 l/m 13,5 km/h (3 Bft) W-SW 250 0 min 0,000 mm 1,6 UV-I 250 W/m 16,3 C 15,8 C 24,1 km/h (4 Bft) 97,87 %
07.09.2018 14:22 18,3 C 20,6 C 19,4 C 88 % 1013,0 hPa 0,0 l/m 11,9 km/h (2 Bft) SW 234 0 min 0,000 mm 1,6 UV-I 250 W/m 16,3 C 16,1 C 19,3 km/h (3 Bft) 97,87 %
07.09.2018 14:24 18,2 C 20,6 C 18,9 C 88 % 1013,0 hPa 0,0 l/m 15,9 km/h (3 Bft) W 259 0 min 0,000 mm 1,6 UV-I 244 W/m 16,2 C 14,8 C 22,5 km/h (4 Bft) 97,87 %
07.09.2018 14:26 18,2 C 20,6 C 19,4 C 89 % 1012,9 hPa 0,0 l/m 13,7 km/h (3 Bft) S-SW 209 0 min 0,000 mm 1,6 UV-I 244 W/m 16,4 C 15,4 C 20,9 km/h (4 Bft) 97,87 %
07.09.2018 14:28 18,2 C 20,6 C 18,9 C 89 % 1013,0 hPa 0,0 l/m 15,3 km/h (3 Bft) SW 226 0 min 0,000 mm 1,6 UV-I 254 W/m 16,4 C 15,0 C 24,1 km/h (4 Bft) 97,87 %
07.09.2018 14:30 18,1 C 20,6 C 18,9 C 89 % 1013,0 hPa 0,0 l/m 16,1 km/h (3 Bft) S-SW 208 0 min 0,000 mm 1,6 UV-I 260 W/m 16,3 C 14,7 C 22,5 km/h (4 Bft) 95,74 %
07.09.2018 14:32 18,1 C 20,6 C 19,4 C 90 % 1012,9 hPa 0,0 l/m 13,8 km/h (3 Bft) SW 225 0 min 0,000 mm 1,6 UV-I 264 W/m 16,4 C 15,3 C 22,5 km/h (4 Bft) 97,87 %
07.09.2018 14:34 18,1 C 20,6 C 18,9 C 90 % 1012,9 hPa 0,0 l/m 15,1 km/h (3 Bft) S-SW 202 0 min 0,000 mm 1,6 UV-I 261 W/m 16,4 C 14,9 C 27,4 km/h (4 Bft) 93,62 %
07.09.2018 14:36 18,2 C 20,6 C 18,9 C 90 % 1012,9 hPa 0,0 l/m 12,3 km/h (3 Bft) W-SW 242 0 min 0,000 mm 1,5 UV-I 250 W/m 16,5 C 15,9 C 20,9 km/h (4 Bft) 93,62 %
07.09.2018 14:38 18,2 C 20,6 C 18,9 C 90 % 1012,9 hPa 0,0 l/m 12,2 km/h (2 Bft) SW 232 0 min 0,000 mm 1,4 UV-I 233 W/m 16,5 C 15,9 C 16,1 km/h (3 Bft) 97,87 %
07.09.2018 14:40 18,2 C 20,6 C 18,9 C 90 % 1012,9 hPa 0,0 l/m 10,6 km/h (2 Bft) W 267 0 min 0,000 mm 1,3 UV-I 210 W/m 16,5 C 16,4 C 17,7 km/h (3 Bft) 93,62 %
07.09.2018 14:42 18,2 C 20,6 C 18,9 C 91 % 1012,9 hPa 0,0 l/m 5,9 km/h (2 Bft) W-SW 242 0 min 0,000 mm 1,2 UV-I 193 W/m 16,7 C 18,2 C 9,7 km/h (2 Bft) 95,74 %
07.09.2018 14:44 18,3 C 20,6 C 18,9 C 91 % 1012,9 hPa 0,0 l/m 7,4 km/h (2 Bft) W-SW 252 0 min 0,000 mm 1,1 UV-I 183 W/m 16,8 C 17,8 C 17,7 km/h (3 Bft) 95,74 %
07.09.2018 14:46 18,3 C 20,6 C 18,9 C 91 % 1012,8 hPa 0,0 l/m 10,7 km/h (2 Bft) W-NW 292 0 min 0,000 mm 1,1 UV-I 179 W/m 16,8 C 16,5 C 16,1 km/h (3 Bft) 97,87 %
07.09.2018 14:48 18,3 C 20,6 C 18,9 C 90 % 1012,9 hPa 0,0 l/m 12,1 km/h (2 Bft) SW 223 0 min 0,000 mm 1,1 UV-I 184 W/m 16,6 C 16,0 C 17,7 km/h (3 Bft) 96,00 %
07.09.2018 14:50 18,3 C 20,6 C 18,9 C 90 % 1012,9 hPa 0,0 l/m 12,4 km/h (3 Bft) W 261 0 min 0,000 mm 1,1 UV-I 196 W/m 16,6 C 15,9 C 17,7 km/h (3 Bft) 91,49 %
07.09.2018 14:52 18,3 C 20,6 C 18,9 C 90 % 1012,9 hPa 0,2 l/m 8,6 km/h (2 Bft) W 279 0 min 0,000 mm 1,2 UV-I 207 W/m 16,6 C 17,3 C 12,9 km/h (3 Bft) 87,23 %
07.09.2018 14:54 18,3 C 20,6 C 18,9 C 90 % 1012,9 hPa 0,0 l/m 10,0 km/h (2 Bft) W 261 0 min 0,000 mm 1,3 UV-I 221 W/m 16,6 C 16,8 C 16,1 km/h (3 Bft) 95,74 %
07.09.2018 14:56 18,3 C 20,6 C 19,4 C 90 % 1012,8 hPa 0,0 l/m 3,8 km/h (1 Bft) W-SW 258 0 min 0,000 mm 1,3 UV-I 231 W/m 16,6 C 18,3 C 9,7 km/h (2 Bft) 94,87 %
07.09.2018 14:58 18,3 C 20,6 C 19,4 C 90 % 1012,9 hPa 0,0 l/m 5,6 km/h (1 Bft) W 261 0 min 0,000 mm 1,4 UV-I 242 W/m 16,6 C 18,3 C 12,9 km/h (3 Bft) 96,00 %
07.09.2018 15:00 18,3 C 20,6 C 19,4 C 90 % 1012,9 hPa 0,0 l/m 5,6 km/h (1 Bft) W 259 0 min 0,000 mm 1,4 UV-I 252 W/m 16,6 C 18,3 C 11,3 km/h (2 Bft) 93,62 %
07.09.2018 15:02 18,4 C 20,6 C 20,0 C 91 % 1012,9 hPa 0,0 l/m 0,2 km/h (0 Bft) W-SW 242 0 min 0,153 mm 1,5 UV-I 259 W/m 16,9 C 18,4 C 3,2 km/h (1 Bft) 95,74 %
07.09.2018 15:04 18,5 C 20,6 C 20,0 C 90 % 1012,9 hPa 0,0 l/m 4,2 km/h (1 Bft) W-SW 253 0 min 0,000 mm 1,5 UV-I 263 W/m 16,8 C 18,5 C 9,7 km/h (2 Bft) 97,87 %
07.09.2018 15:06 18,6 C 20,6 C 20,0 C 90 % 1012,9 hPa 0,0 l/m 2,6 km/h (1 Bft) W 273 0 min 0,000 mm 1,5 UV-I 276 W/m 16,9 C 18,6 C 11,3 km/h (2 Bft) 97,87 %
07.09.2018 15:08 18,6 C 20,6 C 20,6 C 90 % 1012,8 hPa 0,0 l/m 6,8 km/h (2 Bft) W-SW 258 0 min 0,000 mm 1,6 UV-I 303 W/m 16,9 C 18,4 C 14,5 km/h (3 Bft) 97,87 %
07.09.2018 15:10 18,6 C 20,6 C 20,0 C 89 % 1012,8 hPa 0,0 l/m 13,0 km/h (3 Bft) SW 233 0 min 0,000 mm 1,7 UV-I 318 W/m 16,7 C 16,1 C 22,5 km/h (4 Bft) 93,62 %
07.09.2018 15:12 18,7 C 20,6 C 20,0 C 89 % 1012,8 hPa 0,0 l/m 9,5 km/h (2 Bft) SW 231 0 min 0,000 mm 1,7 UV-I 316 W/m 16,8 C 17,4 C 17,7 km/h (3 Bft) 97,87 %
07.09.2018 15:14 18,7 C 20,6 C 19,4 C 88 % 1012,8 hPa 0,0 l/m 11,4 km/h (2 Bft) W-SW 250 0 min 0,000 mm 1,7 UV-I 300 W/m 16,7 C 16,7 C 19,3 km/h (3 Bft) 98,00 %
07.09.2018 15:16 18,7 C 20,6 C 20,0 C 88 % 1012,8 hPa 0,0 l/m 11,3 km/h (2 Bft) SW 225 0 min 0,000 mm 1,6 UV-I 279 W/m 16,7 C 16,8 C 20,9 km/h (4 Bft) 97,87 %
07.09.2018 15:18 18,7 C 20,6 C 20,0 C 88 % 1012,7 hPa 0,0 l/m 11,7 km/h (2 Bft) W-SW 252 0 min 0,000 mm 1,5 UV-I 267 W/m 16,7 C 16,6 C 17,7 km/h (3 Bft) 97,37 %
07.09.2018 15:20 18,7 C 20,6 C 20,0 C 88 % 1012,7 hPa 0,0 l/m 10,5 km/h (2 Bft) W-SW 251 0 min 0,000 mm 1,5 UV-I 268 W/m 16,7 C 17,0 C 19,3 km/h (3 Bft) 95,74 %
07.09.2018 15:22 18,8 C 20,6 C 20,6 C 88 % 1012,7 hPa 0,0 l/m 11,7 km/h (2 Bft) SW 232 0 min 0,000 mm 1,5 UV-I 274 W/m 16,8 C 16,7 C 24,1 km/h (4 Bft) 97,62 %
07.09.2018 15:24 18,8 C 20,6 C 20,0 C 87 % 1012,8 hPa 0,0 l/m 13,6 km/h (3 Bft) W-SW 248 0 min 0,000 mm 1,6 UV-I 286 W/m 16,6 C 16,2 C 19,3 km/h (3 Bft) 96,72 %
07.09.2018 15:26 18,8 C 20,6 C 20,6 C 86 % 1012,8 hPa 0,0 l/m 12,3 km/h (3 Bft) W-SW 240 0 min 0,000 mm 1,6 UV-I 291 W/m 16,4 C 16,6 C 19,3 km/h (3 Bft) 97,87 %
07.09.2018 15:28 18,8 C 20,6 C 20,6 C 86 % 1012,8 hPa 0,0 l/m 14,0 km/h (3 Bft) W-SW 250 0 min 0,000 mm 1,6 UV-I 289 W/m 16,4 C 16,1 C 22,5 km/h (4 Bft) 97,87 %
07.09.2018 15:30 18,8 C 20,6 C 20,6 C 86 % 1012,8 hPa 0,0 l/m 9,6 km/h (2 Bft) W-SW 242 0 min 0,000 mm 1,6 UV-I 288 W/m 16,4 C 17,5 C 20,9 km/h (4 Bft) 95,74 %
07.09.2018 15:32 18,9 C 20,6 C 21,1 C 86 % 1012,8 hPa 0,0 l/m 12,4 km/h (3 Bft) W-SW 241 0 min 0,000 mm 1,6 UV-I 289 W/m 16,5 C 16,6 C 24,1 km/h (4 Bft) 100,00 %
07.09.2018 15:34 18,9 C 20,6 C 21,1 C 85 % 1012,8 hPa 0,0 l/m 13,8 km/h (3 Bft) SW 223 0 min 0,000 mm 1,7 UV-I 299 W/m 16,3 C 16,2 C 24,1 km/h (4 Bft) 96,23 %
07.09.2018 15:36 19,0 C 20,6 C 21,1 C 85 % 1012,8 hPa 0,0 l/m 10,2 km/h (2 Bft) S-SW 207 0 min 0,000 mm 1,7 UV-I 307 W/m 16,4 C 17,5 C 17,7 km/h (3 Bft) 95,74 %
07.09.2018 15:38 19,1 C 20,6 C 21,1 C 85 % 1012,8 hPa 0,0 l/m 8,1 km/h (2 Bft) W-SW 252 0 min 0,000 mm 1,6 UV-I 292 W/m 16,5 C 18,4 C 19,3 km/h (3 Bft) 97,87 %
07.09.2018 15:40 19,1 C 20,6 C 21,1 C 84 % 1012,8 hPa 0,0 l/m 14,6 km/h (3 Bft) W-SW 250 0 min 0,000 mm 1,6 UV-I 267 W/m 16,3 C 16,3 C 24,1 km/h (4 Bft) 97,87 %
07.09.2018 15:42 19,1 C 20,6 C 21,1 C 84 % 1012,8 hPa 0,0 l/m 12,6 km/h (3 Bft) W 263 0 min 0,000 mm 1,5 UV-I 254 W/m 16,3 C 16,8 C 17,7 km/h (3 Bft) 97,87 %
07.09.2018 15:44 19,1 C 20,6 C 21,1 C 84 % 1012,9 hPa 0,0 l/m 12,0 km/h (2 Bft) SW 215 0 min 0,000 mm 1,4 UV-I 243 W/m 16,3 C 17,0 C 19,3 km/h (3 Bft) 97,87 %
07.09.2018 15:46 19,1 C 20,6 C 21,1 C 84 % 1012,9 hPa 0,0 l/m 11,5 km/h (2 Bft) S-SW 210 0 min 0,000 mm 1,4 UV-I 240 W/m 16,3 C 17,1 C 20,9 km/h (4 Bft) 93,62 %
07.09.2018 15:48 19,1 C 20,6 C 21,1 C 84 % 1012,9 hPa 0,0 l/m 12,3 km/h (3 Bft) W-SW 238 0 min 0,000 mm 1,4 UV-I 228 W/m 16,3 C 16,9 C 20,9 km/h (4 Bft) 98,00 %
07.09.2018 15:50 19,0 C 20,6 C 21,1 C 84 % 1012,9 hPa 0,0 l/m 9,7 km/h (2 Bft) S-SW 198 0 min 0,000 mm 1,3 UV-I 224 W/m 16,2 C 17,6 C 16,1 km/h (3 Bft) 93,62 %
07.09.2018 15:52 19,1 C 20,6 C 21,1 C 85 % 1012,9 hPa 0,0 l/m 9,9 km/h (2 Bft) SW 234 0 min 0,000 mm 1,3 UV-I 220 W/m 16,5 C 17,7 C 16,1 km/h (3 Bft) 95,74 %
07.09.2018 15:54 19,0 C 20,6 C 20,6 C 84 % 1012,9 hPa 0,0 l/m 10,3 km/h (2 Bft) S-SW 202 0 min 0,000 mm 1,3 UV-I 213 W/m 16,2 C 17,4 C 19,3 km/h (3 Bft) 100,00 %
07.09.2018 15:56 19,0 C 20,6 C 20,6 C 85 % 1012,9 hPa 0,0 l/m 12,4 km/h (3 Bft) SW 227 0 min 0,000 mm 1,2 UV-I 203 W/m 16,4 C 16,8 C 19,3 km/h (3 Bft) 100,00 %
07.09.2018 15:58 19,0 C 20,6 C 21,1 C 85 % 1013,0 hPa 0,0 l/m 8,2 km/h (2 Bft) SW 216 0 min 0,000 mm 1,1 UV-I 199 W/m 16,4 C 18,2 C 16,1 km/h (3 Bft) 100,00 %
07.09.2018 16:00 19,1 C 20,6 C 21,1 C 85 % 1013,0 hPa 0,0 l/m 7,9 km/h (2 Bft) S-SW 209 0 min 0,178 mm 1,1 UV-I 198 W/m 16,5 C 18,4 C 14,5 km/h (3 Bft) 97,87 %
07.09.2018 16:02 19,1 C 20,6 C 21,1 C 84 % 1013,0 hPa 0,0 l/m 9,9 km/h (2 Bft) SW 234 0 min 0,000 mm 1,1 UV-I 202 W/m 16,3 C 17,7 C 20,9 km/h (4 Bft) 97,87 %
07.09.2018 16:04 19,1 C 20,6 C 21,1 C 85 % 1013,0 hPa 0,0 l/m 11,1 km/h (2 Bft) W-SW 237 0 min 0,000 mm 1,1 UV-I 216 W/m 16,5 C 17,3 C 19,3 km/h (3 Bft) 97,87 %
07.09.2018 16:06 19,1 C 20,6 C 21,7 C 84 % 1013,0 hPa 0,0 l/m 14,0 km/h (3 Bft) W-SW 244 0 min 0,000 mm 1,1 UV-I 248 W/m 16,3 C 16,4 C 20,9 km/h (4 Bft) 97,87 %
07.09.2018 16:08 19,2 C 20,6 C 22,2 C 84 % 1012,9 hPa 0,0 l/m 9,9 km/h (2 Bft) W-SW 242 2 min 0,000 mm 1,2 UV-I 300 W/m 16,4 C 17,8 C 19,3 km/h (3 Bft) 97,87 %
07.09.2018 16:10 19,3 C 20,6 C 22,2 C 84 % 1013,0 hPa 0,0 l/m 13,4 km/h (3 Bft) S-SW 213 2 min 0,000 mm 1,2 UV-I 300 W/m 16,5 C 16,8 C 20,9 km/h (4 Bft) 95,74 %
07.09.2018 16:12 19,4 C 20,6 C 22,8 C 84 % 1013,0 hPa 0,0 l/m 12,5 km/h (3 Bft) S-SW 205 2 min 0,000 mm 1,2 UV-I 291 W/m 16,6 C 17,2 C 19,3 km/h (3 Bft) 91,49 %
07.09.2018 16:14 19,5 C 20,6 C 22,8 C 83 % 1013,0 hPa 0,0 l/m 9,1 km/h (2 Bft) SW 218 0 min 0,000 mm 1,2 UV-I 279 W/m 16,5 C 18,4 C 24,1 km/h (4 Bft) 97,22 %
07.09.2018 16:16 19,6 C 20,6 C 22,8 C 82 % 1013,0 hPa 0,0 l/m 10,9 km/h (2 Bft) SW 229 0 min 0,000 mm 1,2 UV-I 276 W/m 16,4 C 17,9 C 20,9 km/h (4 Bft) 95,74 %
07.09.2018 16:19 19,6 C 20,6 C 22,8 C 82 % 1013,0 hPa 0,0 l/m 12,0 km/h (2 Bft) SW 234 3 min 0,000 mm 1,2 UV-I 281 W/m 16,4 C 17,6 C 19,3 km/h (3 Bft) 94,52 %
07.09.2018 16:20 19,6 C 20,6 C 23,3 C 83 % 1013,0 hPa 0,0 l/m 14,6 km/h (3 Bft) W-SW 244 1 min 0,000 mm 1,2 UV-I 297 W/m 16,6 C 16,9 C 20,9 km/h (4 Bft) 91,67 %
07.09.2018 16:22 19,7 C 20,6 C 23,3 C 82 % 1013,0 hPa 0,0 l/m 14,5 km/h (3 Bft) W-SW 246 2 min 0,000 mm 1,2 UV-I 287 W/m 16,5 C 17,0 C 25,7 km/h (4 Bft) 93,62 %
07.09.2018 16:24 19,7 C 20,6 C 22,8 C 81 % 1012,9 hPa 0,0 l/m 16,3 km/h (3 Bft) W-SW 237 0 min 0,000 mm 1,1 UV-I 265 W/m 16,3 C 16,6 C 25,7 km/h (4 Bft) 93,62 %
07.09.2018 16:26 19,7 C 20,6 C 22,8 C 81 % 1013,0 hPa 0,0 l/m 15,7 km/h (3 Bft) W-SW 254 2 min 0,000 mm 1,2 UV-I 290 W/m 16,3 C 16,7 C 25,7 km/h (4 Bft) 96,00 %
07.09.2018 16:28 19,7 C 20,6 C 23,3 C 81 % 1013,0 hPa 0,0 l/m 10,3 km/h (2 Bft) W-SW 243 2 min 0,000 mm 1,2 UV-I 336 W/m 16,3 C 18,2 C 24,1 km/h (4 Bft) 95,74 %
07.09.2018 16:30 19,9 C 20,6 C 24,4 C 81 % 1013,1 hPa 0,0 l/m 8,6 km/h (2 Bft) W-SW 250 2 min 0,000 mm 1,3 UV-I 484 W/m 16,5 C 19,0 C 24,1 km/h (4 Bft) 95,74 %
07.09.2018 16:32 20,0 C 20,6 C 23,9 C 81 % 1013,1 hPa 0,0 l/m 10,4 km/h (2 Bft) S-SW 196 2 min 0,000 mm 1,2 UV-I 306 W/m 16,6 C 18,5 C 19,3 km/h (3 Bft) 89,36 %
07.09.2018 16:34 19,9 C 20,6 C 23,3 C 79 % 1013,1 hPa 0,0 l/m 14,7 km/h (3 Bft) SW 234 2 min 0,000 mm 1,1 UV-I 287 W/m 16,1 C 17,2 C 20,9 km/h (4 Bft) 94,00 %
07.09.2018 16:36 20,0 C 20,6 C 23,3 C 80 % 1013,1 hPa 0,0 l/m 9,8 km/h (2 Bft) SW 234 2 min 0,000 mm 1,1 UV-I 275 W/m 16,4 C 18,7 C 19,3 km/h (3 Bft) 100,00 %
07.09.2018 16:39 20,1 C 20,6 C 23,3 C 80 % 1013,1 hPa 0,0 l/m 10,4 km/h (2 Bft) SW 224 3 min 0,000 mm 1,1 UV-I 262 W/m 16,5 C 18,6 C 20,9 km/h (4 Bft) 100,00 %
07.09.2018 16:40 20,1 C 20,6 C 23,3 C 79 % 1013,1 hPa 0,0 l/m 10,4 km/h (2 Bft) S-SW 213 1 min 0,000 mm 1,1 UV-I 318 W/m 16,3 C 18,6 C 14,5 km/h (3 Bft) 100,00 %
07.09.2018 16:42 20,0 C 20,6 C 22,8 C 78 % 1013,1 hPa 0,0 l/m 15,4 km/h (3 Bft) SW 232 0 min 0,000 mm 1,0 UV-I 245 W/m 16,0 C 17,2 C 22,5 km/h (4 Bft) 100,00 %
07.09.2018 16:44 19,9 C 20,6 C 22,2 C 78 % 1013,1 hPa 0,0 l/m 13,5 km/h (3 Bft) W-SW 246 0 min 0,000 mm 1,0 UV-I 221 W/m 15,9 C 17,5 C 20,9 km/h (4 Bft) 100,00 %
07.09.2018 16:46 19,8 C 20,6 C 22,2 C 78 % 1013,0 hPa 0,0 l/m 11,9 km/h (2 Bft) S-SW 211 0 min 0,000 mm 1,0 UV-I 212 W/m 15,8 C 17,8 C 20,9 km/h (4 Bft) 100,00 %
07.09.2018 16:49 19,7 C 20,6 C 21,7 C 78 % 1013,0 hPa 0,0 l/m 13,6 km/h (3 Bft) S-SW 194 0 min 0,000 mm 0,9 UV-I 186 W/m 15,8 C 17,2 C 22,5 km/h (4 Bft) 100,00 %
07.09.2018 16:50 19,7 C 20,6 C 21,7 C 78 % 1013,0 hPa 0,0 l/m 7,9 km/h (2 Bft) W 259 0 min 0,000 mm 0,8 UV-I 179 W/m 15,8 C 19,1 C 12,9 km/h (3 Bft) 100,00 %
07.09.2018 16:52 19,7 C 20,6 C 21,7 C 79 % 1013,0 hPa 0,0 l/m 8,9 km/h (2 Bft) SW 219 0 min 0,000 mm 0,8 UV-I 191 W/m 16,0 C 18,7 C 16,1 km/h (3 Bft) 100,00 %
07.09.2018 16:54 19,7 C 20,6 C 21,7 C 79 % 1013,0 hPa 0,0 l/m 10,8 km/h (2 Bft) SW 218 0 min 0,000 mm 0,8 UV-I 226 W/m 16,0 C 18,0 C 14,5 km/h (3 Bft) 100,00 %
07.09.2018 16:56 19,7 C 20,6 C 22,2 C 79 % 1013,0 hPa 0,0 l/m 12,3 km/h (3 Bft) W-SW 254 2 min 0,000 mm 0,8 UV-I 243 W/m 16,0 C 17,6 C 17,7 km/h (3 Bft) 97,87 %
07.09.2018 16:58 19,8 C 20,6 C 22,2 C 78 % 1013,0 hPa 0,0 l/m 10,4 km/h (2 Bft) W 261 2 min 0,000 mm 0,8 UV-I 234 W/m 15,8 C 18,3 C 17,7 km/h (3 Bft) 100,00 %
07.09.2018 17:00 19,8 C 20,6 C 22,8 C 78 % 1013,0 hPa 0,0 l/m 9,4 km/h (2 Bft) SW 229 2 min 0,177 mm 0,8 UV-I 262 W/m 15,8 C 18,6 C 16,1 km/h (3 Bft) 100,00 %
07.09.2018 17:02 19,9 C 20,6 C 22,8 C 78 % 1013,0 hPa 0,0 l/m 9,2 km/h (2 Bft) SW 229 2 min 0,000 mm 0,8 UV-I 255 W/m 15,9 C 18,8 C 17,7 km/h (3 Bft) 98,00 %
07.09.2018 17:04 19,9 C 20,6 C 22,8 C 78 % 1013,0 hPa 0,0 l/m 9,9 km/h (2 Bft) W-SW 248 2 min 0,000 mm 0,8 UV-I 230 W/m 15,9 C 18,6 C 16,1 km/h (3 Bft) 100,00 %
07.09.2018 17:06 20,1 C 20,6 C 22,8 C 78 % 1013,0 hPa 0,0 l/m 4,9 km/h (1 Bft) W 273 0 min 0,000 mm 0,7 UV-I 209 W/m 16,1 C 20,1 C 11,3 km/h (2 Bft) 100,00 %
07.09.2018 17:08 20,1 C 20,6 C 22,8 C 77 % 1013,0 hPa 0,0 l/m 9,7 km/h (2 Bft) SW 236 2 min 0,000 mm 0,7 UV-I 235 W/m 15,9 C 18,8 C 20,9 km/h (4 Bft) 100,00 %
07.09.2018 17:10 20,1 C 20,6 C 22,8 C 77 % 1013,0 hPa 0,0 l/m 11,6 km/h (2 Bft) W 274 2 min 0,000 mm 0,7 UV-I 288 W/m 15,9 C 18,3 C 20,9 km/h (4 Bft) 97,87 %
07.09.2018 17:12 20,2 C 20,6 C 22,2 C 76 % 1013,1 hPa 0,0 l/m 11,7 km/h (2 Bft) W 269 2 min 0,000 mm 0,7 UV-I 239 W/m 15,8 C 18,3 C 19,3 km/h (3 Bft) 93,62 %
07.09.2018 17:14 20,2 C 20,6 C 22,2 C 77 % 1013,1 hPa 0,0 l/m 6,2 km/h (2 Bft) W 263 0 min 0,000 mm 0,6 UV-I 193 W/m 16,0 C 20,2 C 14,5 km/h (3 Bft) 100,00 %
07.09.2018 17:16 20,2 C 20,6 C 22,2 C 76 % 1013,0 hPa 0,0 l/m 10,5 km/h (2 Bft) W-SW 254 0 min 0,000 mm 0,6 UV-I 177 W/m 15,8 C 18,7 C 17,7 km/h (3 Bft) 97,87 %
07.09.2018 17:18 20,2 C 20,6 C 21,7 C 76 % 1013,1 hPa 0,0 l/m 10,9 km/h (2 Bft) W 261 0 min 0,000 mm 0,6 UV-I 164 W/m 15,8 C 18,6 C 17,7 km/h (3 Bft) 96,00 %
07.09.2018 17:20 20,1 C 20,6 C 21,7 C 76 % 1013,0 hPa 0,0 l/m 12,0 km/h (2 Bft) W-NW 288 0 min 0,000 mm 0,6 UV-I 163 W/m 15,7 C 18,1 C 19,3 km/h (3 Bft) 100,00 %
07.09.2018 17:22 20,1 C 20,6 C 21,7 C 76 % 1013,1 hPa 0,0 l/m 10,2 km/h (2 Bft) W-SW 258 0 min 0,000 mm 0,5 UV-I 161 W/m 15,7 C 18,7 C 17,7 km/h (3 Bft) 98,11 %
07.09.2018 17:24 20,1 C 20,6 C 21,7 C 76 % 1013,1 hPa 0,0 l/m 3,3 km/h (1 Bft) W 275 0 min 0,000 mm 0,5 UV-I 155 W/m 15,7 C 20,1 C 11,3 km/h (2 Bft) 100,00 %
07.09.2018 17:26 20,0 C 20,6 C 21,7 C 76 % 1013,1 hPa 0,0 l/m 8,2 km/h (2 Bft) W-SW 255 0 min 0,000 mm 0,5 UV-I 149 W/m 15,6 C 19,3 C 14,5 km/h (3 Bft) 100,00 %
07.09.2018 17:28 20,1 C 20,6 C 21,7 C 76 % 1013,2 hPa 0,0 l/m 7,1 km/h (2 Bft) SW 232 0 min 0,000 mm 0,5 UV-I 144 W/m 15,7 C 19,8 C 12,9 km/h (3 Bft) 100,00 %
07.09.2018 17:30 20,1 C 20,6 C 21,1 C 76 % 1013,2 hPa 0,0 l/m 11,3 km/h (2 Bft) W 262 0 min 0,000 mm 0,2 UV-I 136 W/m 15,7 C 18,3 C 19,3 km/h (3 Bft) 100,00 %
07.09.2018 17:32 20,0 C 20,6 C 21,1 C 76 % 1013,2 hPa 0,0 l/m 13,1 km/h (3 Bft) W-SW 258 0 min 0,000 mm 0,0 UV-I 130 W/m 15,6 C 17,7 C 25,7 km/h (4 Bft) 100,00 %
07.09.2018 17:34 19,9 C 20,6 C 21,1 C 76 % 1013,2 hPa 0,0 l/m 13,4 km/h (3 Bft) W-SW 250 0 min 0,000 mm 0,0 UV-I 126 W/m 15,5 C 17,5 C 17,7 km/h (3 Bft) 97,87 %
07.09.2018 17:36 19,9 C 20,6 C 21,1 C 76 % 1013,1 hPa 0,0 l/m 8,7 km/h (2 Bft) W 259 0 min 0,000 mm 0,0 UV-I 121 W/m 15,5 C 19,0 C 12,9 km/h (3 Bft) 100,00 %
07.09.2018 17:38 19,9 C 20,6 C 21,1 C 76 % 1013,2 hPa 0,0 l/m 8,5 km/h (2 Bft) W 267 0 min 0,000 mm 0,0 UV-I 116 W/m 15,5 C 19,1 C 16,1 km/h (3 Bft) 100,00 %
07.09.2018 17:40 19,9 C 20,6 C 20,6 C 76 % 1013,1 hPa 0,0 l/m 8,0 km/h (2 Bft) W-SW 237 0 min 0,000 mm 0,0 UV-I 105 W/m 15,5 C 19,2 C 14,5 km/h (3 Bft) 100,00 %
07.09.2018 17:42 19,9 C 20,6 C 20,6 C 77 % 1013,2 hPa 0,0 l/m 7,3 km/h (2 Bft) W-SW 247 0 min 0,000 mm 0,0 UV-I 92 W/m 15,7 C 19,5 C 11,3 km/h (2 Bft) 96,00 %
07.09.2018 17:44 19,8 C 20,6 C 20,6 C 77 % 1013,2 hPa 0,0 l/m 6,8 km/h (2 Bft) W 259 0 min 0,000 mm 0,0 UV-I 82 W/m 15,6 C 19,6 C 17,7 km/h (3 Bft) 95,74 %
07.09.2018 17:46 19,8 C 20,6 C 20,6 C 77 % 1013,2 hPa 0,0 l/m 8,9 km/h (2 Bft) SW 232 0 min 0,000 mm 0,0 UV-I 75 W/m 15,6 C 18,8 C 14,5 km/h (3 Bft) 96,00 %
07.09.2018 17:48 19,8 C 20,6 C 20,0 C 77 % 1013,2 hPa 0,0 l/m 4,3 km/h (1 Bft) W 262 0 min 0,000 mm 0,0 UV-I 69 W/m 15,6 C 19,8 C 9,7 km/h (2 Bft) 98,00 %
07.09.2018 17:50 19,8 C 20,6 C 20,0 C 78 % 1013,1 hPa 0,0 l/m 4,7 km/h (1 Bft) W-SW 258 0 min 0,000 mm 0,0 UV-I 64 W/m 15,8 C 19,8 C 11,3 km/h (2 Bft) 97,87 %
07.09.2018 17:52 19,7 C 20,6 C 20,0 C 78 % 1013,2 hPa 0,0 l/m 5,2 km/h (1 Bft) W 259 0 min 0,000 mm 0,0 UV-I 62 W/m 15,8 C 19,7 C 12,9 km/h (3 Bft) 95,74 %
07.09.2018 17:54 19,7 C 20,6 C 20,0 C 78 % 1013,1 hPa 0,0 l/m 8,4 km/h (2 Bft) S-SW 206 0 min 0,000 mm 0,0 UV-I 60 W/m 15,8 C 18,9 C 14,5 km/h (3 Bft) 97,22 %
07.09.2018 17:56 19,7 C 20,6 C 20,0 C 77 % 1013,1 hPa 0,0 l/m 6,5 km/h (2 Bft) SW 232 0 min 0,000 mm 0,0 UV-I 60 W/m 15,5 C 19,7 C 12,9 km/h (3 Bft) 98,00 %
07.09.2018 17:58 19,7 C 20,6 C 20,0 C 77 % 1013,1 hPa 0,0 l/m 7,9 km/h (2 Bft) W-SW 248 0 min 0,000 mm 0,0 UV-I 63 W/m 15,5 C 19,1 C 14,5 km/h (3 Bft) 95,74 %
07.09.2018 18:00 19,7 C 20,6 C 20,0 C 78 % 1013,1 hPa 0,0 l/m 9,4 km/h (2 Bft) SW 228 0 min 0,102 mm 0,0 UV-I 68 W/m 15,8 C 18,5 C 14,5 km/h (3 Bft) 95,74 %
07.09.2018 18:02 19,6 C 20,6 C 20,0 C 78 % 1013,1 hPa 0,0 l/m 7,8 km/h (2 Bft) SW 234 0 min 0,000 mm 0,0 UV-I 74 W/m 15,7 C 19,0 C 12,9 km/h (3 Bft) 95,74 %
07.09.2018 18:04 19,6 C 20,6 C 20,0 C 78 % 1013,1 hPa 0,0 l/m 3,8 km/h (1 Bft) W-SW 245 0 min 0,000 mm 0,0 UV-I 76 W/m 15,7 C 19,6 C 8,0 km/h (2 Bft) 93,62 %
07.09.2018 18:06 19,6 C 20,6 C 20,0 C 78 % 1013,2 hPa 0,0 l/m 3,7 km/h (1 Bft) W-SW 252 0 min 0,000 mm 0,0 UV-I 72 W/m 15,7 C 19,6 C 9,7 km/h (2 Bft) 95,74 %
07.09.2018 18:08 19,6 C 20,6 C 20,0 C 78 % 1013,2 hPa 0,0 l/m 6,1 km/h (2 Bft) W-SW 252 0 min 0,000 mm 0,0 UV-I 65 W/m 15,7 C 19,6 C 16,1 km/h (3 Bft) 98,11 %
07.09.2018 18:10 19,6 C 20,6 C 20,0 C 77 % 1013,2 hPa 0,0 l/m 9,5 km/h (2 Bft) W-SW 250 0 min 0,000 mm 0,0 UV-I 62 W/m 15,5 C 18,4 C 14,5 km/h (3 Bft) 95,74 %
07.09.2018 18:12 19,6 C 20,6 C 20,0 C 78 % 1013,2 hPa 0,0 l/m 7,1 km/h (2 Bft) W 260 0 min 0,000 mm 0,0 UV-I 59 W/m 15,7 C 19,3 C 12,9 km/h (3 Bft) 95,74 %
07.09.2018 18:14 19,5 C 20,6 C 19,4 C 77 % 1013,2 hPa 0,0 l/m 8,2 km/h (2 Bft) SW 234 0 min 0,000 mm 0,0 UV-I 57 W/m 15,4 C 18,7 C 14,5 km/h (3 Bft) 93,62 %
07.09.2018 18:16 19,5 C 20,6 C 19,4 C 78 % 1013,2 hPa 0,0 l/m 5,0 km/h (1 Bft) W 261 0 min 0,000 mm 0,0 UV-I 55 W/m 15,6 C 19,5 C 12,9 km/h (3 Bft) 93,62 %
07.09.2018 18:19 19,4 C 20,6 C 19,4 C 78 % 1013,2 hPa 0,0 l/m 8,9 km/h (2 Bft) W-SW 250 0 min 0,000 mm 0,0 UV-I 56 W/m 15,5 C 18,4 C 16,1 km/h (3 Bft) 95,71 %
07.09.2018 18:20 19,4 C 20,6 C 19,4 C 78 % 1013,2 hPa 0,0 l/m 5,7 km/h (1 Bft) W 272 0 min 0,000 mm 0,0 UV-I 60 W/m 15,5 C 19,4 C 9,7 km/h (2 Bft) 91,67 %
07.09.2018 18:22 19,4 C 20,6 C 19,4 C 78 % 1013,3 hPa 0,0 l/m 7,1 km/h (2 Bft) W-SW 257 0 min 0,000 mm 0,0 UV-I 66 W/m 15,5 C 19,1 C 16,1 km/h (3 Bft) 96,15 %
07.09.2018 18:24 19,4 C 20,6 C 19,4 C 78 % 1013,3 hPa 0,0 l/m 7,0 km/h (2 Bft) SW 229 0 min 0,000 mm 0,0 UV-I 70 W/m 15,5 C 19,1 C 11,3 km/h (2 Bft) 95,74 %
07.09.2018 18:26 19,4 C 20,6 C 19,4 C 78 % 1013,3 hPa 0,0 l/m 9,7 km/h (2 Bft) W 261 0 min 0,000 mm 0,0 UV-I 72 W/m 15,5 C 18,1 C 14,5 km/h (3 Bft) 93,62 %
07.09.2018 18:28 19,3 C 20,6 C 19,4 C 78 % 1013,3 hPa 0,0 l/m 6,1 km/h (2 Bft) W 263 0 min 0,000 mm 0,0 UV-I 74 W/m 15,4 C 19,3 C 11,3 km/h (2 Bft) 97,22 %
07.09.2018 18:30 19,3 C 20,6 C 19,4 C 79 % 1013,3 hPa 0,0 l/m 7,2 km/h (2 Bft) W-SW 240 0 min 0,000 mm 0,0 UV-I 72 W/m 15,6 C 19,0 C 12,9 km/h (3 Bft) 100,00 %
07.09.2018 18:32 19,3 C 20,6 C 19,4 C 79 % 1013,3 hPa 0,0 l/m 6,1 km/h (2 Bft) W 259 0 min 0,000 mm 0,0 UV-I 70 W/m 15,6 C 19,3 C 11,3 km/h (2 Bft) 100,00 %
07.09.2018 18:34 19,3 C 20,6 C 19,4 C 79 % 1013,3 hPa 0,0 l/m 7,2 km/h (2 Bft) W-SW 249 0 min 0,000 mm 0,0 UV-I 71 W/m 15,6 C 19,0 C 12,9 km/h (3 Bft) 97,87 %
07.09.2018 18:36 19,3 C 20,6 C 19,4 C 79 % 1013,3 hPa 0,0 l/m 8,2 km/h (2 Bft) W 265 0 min 0,000 mm 0,0 UV-I 66 W/m 15,6 C 18,5 C 16,1 km/h (3 Bft) 97,92 %
07.09.2018 18:39 19,3 C 20,6 C 19,4 C 79 % 1013,4 hPa 0,0 l/m 7,5 km/h (2 Bft) W 274 0 min 0,000 mm 0,0 UV-I 56 W/m 15,6 C 18,8 C 16,1 km/h (3 Bft) 98,57 %
07.09.2018 18:40 19,2 C 20,6 C 19,4 C 79 % 1013,4 hPa 0,0 l/m 4,7 km/h (1 Bft) W-SW 246 0 min 0,000 mm 0,0 UV-I 48 W/m 15,5 C 19,2 C 11,3 km/h (2 Bft) 100,00 %
07.09.2018 18:42 19,2 C 20,6 C 19,4 C 79 % 1013,4 hPa 0,0 l/m 7,1 km/h (2 Bft) W-SW 254 0 min 0,000 mm 0,0 UV-I 45 W/m 15,5 C 18,9 C 12,9 km/h (3 Bft) 100,00 %
07.09.2018 18:44 19,2 C 20,6 C 19,4 C 79 % 1013,4 hPa 0,0 l/m 8,6 km/h (2 Bft) W-SW 246 0 min 0,000 mm 0,0 UV-I 41 W/m 15,5 C 18,3 C 14,5 km/h (3 Bft) 96,00 %
07.09.2018 18:46 19,1 C 20,6 C 18,9 C 79 % 1013,5 hPa 0,0 l/m 10,5 km/h (2 Bft) W 270 0 min 0,000 mm 0,0 UV-I 39 W/m 15,4 C 17,5 C 16,1 km/h (3 Bft) 95,74 %
07.09.2018 18:48 19,1 C 20,6 C 18,9 C 79 % 1013,5 hPa 0,0 l/m 9,1 km/h (2 Bft) W 273 0 min 0,000 mm 0,0 UV-I 36 W/m 15,4 C 18,0 C 14,5 km/h (3 Bft) 100,00 %
07.09.2018 18:50 19,1 C 20,6 C 18,9 C 79 % 1013,5 hPa 0,0 l/m 8,2 km/h (2 Bft) W 259 0 min 0,000 mm 0,0 UV-I 34 W/m 15,4 C 18,3 C 12,9 km/h (3 Bft) 97,87 %
07.09.2018 18:52 19,1 C 20,6 C 18,9 C 79 % 1013,5 hPa 0,0 l/m 5,7 km/h (1 Bft) W-SW 248 0 min 0,000 mm 0,0 UV-I 31 W/m 15,4 C 19,1 C 12,9 km/h (3 Bft) 98,00 %
07.09.2018 18:54 19,0 C 20,6 C 18,9 C 80 % 1013,6 hPa 0,0 l/m 4,3 km/h (1 Bft) W 263 0 min 0,000 mm 0,0 UV-I 28 W/m 15,5 C 19,0 C 9,7 km/h (2 Bft) 94,74 %
07.09.2018 18:56 18,9 C 20,6 C 18,9 C 80 % 1013,6 hPa 0,0 l/m 6,2 km/h (2 Bft) W-SW 255 0 min 0,000 mm 0,0 UV-I 25 W/m 15,4 C 18,9 C 11,3 km/h (2 Bft) 93,62 %
07.09.2018 18:58 18,9 C 20,6 C 18,9 C 80 % 1013,6 hPa 0,0 l/m 1,6 km/h (1 Bft) W-SW 255 0 min 0,000 mm 0,0 UV-I 25 W/m 15,4 C 18,9 C 4,8 km/h (1 Bft) 95,74 %
07.09.2018 19:00 18,9 C 20,6 C 18,9 C 80 % 1013,6 hPa 0,0 l/m 4,9 km/h (1 Bft) W-SW 256 0 min 0,000 mm 0,0 UV-I 25 W/m 15,4 C 18,9 C 11,3 km/h (2 Bft) 97,87 %
07.09.2018 19:02 18,9 C 20,6 C 18,9 C 80 % 1013,7 hPa 0,0 l/m 3,1 km/h (1 Bft) W-SW 245 0 min 0,051 mm 0,0 UV-I 25 W/m 15,4 C 18,9 C 6,4 km/h (2 Bft) 97,87 %
07.09.2018 19:04 18,8 C 20,6 C 18,9 C 80 % 1013,7 hPa 0,0 l/m 4,4 km/h (1 Bft) W-SW 258 0 min 0,000 mm 0,0 UV-I 23 W/m 15,3 C 18,8 C 9,7 km/h (2 Bft) 96,00 %
07.09.2018 19:06 18,8 C 20,6 C 18,3 C 81 % 1013,7 hPa 0,0 l/m 4,1 km/h (1 Bft) W-SW 246 0 min 0,000 mm 0,0 UV-I 21 W/m 15,5 C 18,8 C 6,4 km/h (2 Bft) 94,00 %
07.09.2018 19:08 18,8 C 20,6 C 18,3 C 81 % 1013,7 hPa 0,0 l/m 3,5 km/h (1 Bft) W-SW 253 0 min 0,000 mm 0,0 UV-I 21 W/m 15,5 C 18,8 C 8,0 km/h (2 Bft) 97,87 %
07.09.2018 19:10 18,7 C 20,6 C 18,3 C 81 % 1013,8 hPa 0,0 l/m 3,4 km/h (1 Bft) W-SW 244 0 min 0,000 mm 0,0 UV-I 19 W/m 15,4 C 18,7 C 6,4 km/h (2 Bft) 97,87 %
07.09.2018 19:12 18,7 C 20,6 C 18,3 C 82 % 1013,8 hPa 0,0 l/m 3,4 km/h (1 Bft) W-SW 242 0 min 0,000 mm 0,0 UV-I 19 W/m 15,6 C 18,7 C 8,0 km/h (2 Bft) 92,86 %
07.09.2018 19:14 18,7 C 20,6 C 18,3 C 82 % 1013,9 hPa 0,0 l/m 6,2 km/h (2 Bft) SW 234 0 min 0,000 mm 0,0 UV-I 18 W/m 15,6 C 18,7 C 12,9 km/h (3 Bft) 98,00 %
07.09.2018 19:16 18,6 C 20,6 C 18,3 C 82 % 1013,9 hPa 0,0 l/m 6,6 km/h (2 Bft) W-SW 249 0 min 0,000 mm 0,0 UV-I 16 W/m 15,5 C 18,5 C 14,5 km/h (3 Bft) 95,74 %
07.09.2018 19:18 18,6 C 20,6 C 18,3 C 81 % 1013,9 hPa 0,0 l/m 3,7 km/h (1 Bft) W-SW 244 0 min 0,000 mm 0,0 UV-I 15 W/m 15,3 C 18,6 C 9,7 km/h (2 Bft) 95,74 %
07.09.2018 19:20 18,6 C 20,6 C 18,3 C 81 % 1013,9 hPa 0,0 l/m 5,2 km/h (1 Bft) W 266 2 min 0,000 mm 0,0 UV-I 14 W/m 15,3 C 18,6 C 12,9 km/h (3 Bft) 95,74 %
07.09.2018 19:22 18,6 C 20,6 C 18,3 C 81 % 1013,9 hPa 0,0 l/m 3,1 km/h (1 Bft) W-SW 242 2 min 0,000 mm 0,0 UV-I 12 W/m 15,3 C 18,6 C 6,4 km/h (2 Bft) 96,00 %
07.09.2018 19:24 18,6 C 20,6 C 17,8 C 81 % 1014,0 hPa 0,0 l/m 4,4 km/h (1 Bft) W-SW 246 0 min 0,000 mm 0,0 UV-I 12 W/m 15,3 C 18,6 C 9,7 km/h (2 Bft) 93,62 %
07.09.2018 19:26 18,5 C 20,6 C 17,8 C 81 % 1014,1 hPa 0,0 l/m 3,3 km/h (1 Bft) W 262 0 min 0,000 mm 0,0 UV-I 10 W/m 15,2 C 18,5 C 8,0 km/h (2 Bft) 95,74 %
07.09.2018 19:28 18,4 C 20,6 C 17,8 C 81 % 1014,1 hPa 0,0 l/m 3,8 km/h (1 Bft) W 261 0 min 0,000 mm 0,0 UV-I 9 W/m 15,1 C 18,4 C 9,7 km/h (2 Bft) 94,74 %
07.09.2018 19:30 18,4 C 20,6 C 17,8 C 81 % 1014,1 hPa 0,0 l/m 3,0 km/h (1 Bft) W 259 0 min 0,000 mm 0,0 UV-I 7 W/m 15,1 C 18,4 C 9,7 km/h (2 Bft) 95,74 %
07.09.2018 19:32 18,4 C 20,6 C 17,8 C 81 % 1014,1 hPa 0,0 l/m 1,7 km/h (1 Bft) W 260 0 min 0,000 mm 0,0 UV-I 7 W/m 15,1 C 18,4 C 9,7 km/h (2 Bft) 95,74 %
07.09.2018 19:34 18,4 C 20,6 C 17,8 C 81 % 1014,2 hPa 0,0 l/m 2,6 km/h (1 Bft) W 259 0 min 0,000 mm 0,0 UV-I 7 W/m 15,1 C 18,4 C 8,0 km/h (2 Bft) 95,74 %
07.09.2018 19:36 18,3 C 20,6 C 17,8 C 81 % 1014,2 hPa 0,0 l/m 4,3 km/h (1 Bft) W 264 0 min 0,000 mm 0,0 UV-I 6 W/m 15,0 C 18,3 C 8,0 km/h (2 Bft) 95,74 %
07.09.2018 19:38 18,3 C 20,6 C 17,2 C 81 % 1014,2 hPa 0,0 l/m 2,6 km/h (1 Bft) W 266 0 min 0,000 mm 0,0 UV-I 5 W/m 15,0 C 18,3 C 6,4 km/h (2 Bft) 95,74 %
07.09.2018 19:40 18,3 C 20,6 C 17,2 C 81 % 1014,2 hPa 0,0 l/m 1,9 km/h (1 Bft) W-NW 282 0 min 0,000 mm 0,0 UV-I 5 W/m 15,0 C 18,3 C 4,8 km/h (1 Bft) 97,87 %
07.09.2018 19:42 18,3 C 20,6 C 17,2 C 81 % 1014,2 hPa 0,0 l/m 0,4 km/h (0 Bft) W-SW 252 0 min 0,000 mm 0,0 UV-I 5 W/m 15,0 C 18,3 C 3,2 km/h (1 Bft) 97,87 %
07.09.2018 19:44 18,2 C 20,6 C 17,2 C 81 % 1014,3 hPa 0,0 l/m 0,3 km/h (0 Bft) W-SW 258 0 min 0,000 mm 0,0 UV-I 5 W/m 14,9 C 18,2 C 3,2 km/h (1 Bft) 97,87 %
07.09.2018 19:46 18,2 C 20,6 C 17,2 C 81 % 1014,3 hPa 0,0 l/m 0,1 km/h (0 Bft) W-SW 251 0 min 0,000 mm 0,0 UV-I 1 W/m 14,9 C 18,2 C 1,6 km/h (1 Bft) 97,87 %
07.09.2018 19:48 18,2 C 20,6 C 17,2 C 81 % 1014,3 hPa 0,0 l/m 1,2 km/h (1 Bft) W-SW 245 0 min 0,000 mm 0,0 UV-I 0 W/m 14,9 C 18,2 C 4,8 km/h (1 Bft) 95,74 %
07.09.2018 19:50 18,2 C 20,6 C 17,2 C 81 % 1014,3 hPa 0,0 l/m 1,8 km/h (1 Bft) SW 236 0 min 0,000 mm 0,0 UV-I 0 W/m 14,9 C 18,2 C 6,4 km/h (2 Bft) 94,00 %
07.09.2018 19:52 18,1 C 20,6 C 17,2 C 81 % 1014,4 hPa 0,0 l/m 1,8 km/h (1 Bft) SW 236 0 min 0,000 mm 0,0 UV-I 0 W/m 14,8 C 18,1 C 4,8 km/h (1 Bft) 93,62 %
07.09.2018 19:54 18,1 C 20,6 C 17,2 C 81 % 1014,5 hPa 0,0 l/m 3,2 km/h (1 Bft) W-SW 246 0 min 0,000 mm 0,0 UV-I 0 W/m 14,8 C 18,1 C 8,0 km/h (2 Bft) 97,78 %
07.09.2018 19:56 18,1 C 20,6 C 17,2 C 82 % 1014,5 hPa 0,0 l/m 1,5 km/h (1 Bft) W-SW 243 0 min 0,000 mm 0,0 UV-I 0 W/m 15,0 C 18,1 C 6,4 km/h (2 Bft) 93,62 %
07.09.2018 19:58 18,1 C 20,6 C 17,2 C 82 % 1014,6 hPa 0,0 l/m 1,6 km/h (1 Bft) W-SW 248 0 min 0,000 mm 0,0 UV-I 0 W/m 15,0 C 18,1 C 4,8 km/h (1 Bft) 96,00 %
07.09.2018 20:00 18,0 C 20,6 C 17,2 C 82 % 1014,6 hPa 0,0 l/m 0,1 km/h (0 Bft) W-SW 238 0 min 0,025 mm 0,0 UV-I 0 W/m 14,9 C 18,0 C 1,6 km/h (1 Bft) 95,74 %
07.09.2018 20:02 18,0 C 20,6 C 17,2 C 82 % 1014,6 hPa 0,0 l/m 1,9 km/h (1 Bft) SW 234 0 min 0,000 mm 0,0 UV-I 0 W/m 14,9 C 18,0 C 4,8 km/h (1 Bft) 95,74 %
07.09.2018 20:04 17,9 C 20,6 C 17,2 C 83 % 1014,6 hPa 0,0 l/m 1,2 km/h (1 Bft) W-SW 242 0 min 0,000 mm 0,0 UV-I 0 W/m 15,0 C 17,9 C 6,4 km/h (2 Bft) 95,74 %
07.09.2018 20:06 17,9 C 20,6 C 17,2 C 83 % 1014,6 hPa 0,0 l/m 1,7 km/h (1 Bft) SW 221 0 min 0,000 mm 0,0 UV-I 0 W/m 15,0 C 17,9 C 4,8 km/h (1 Bft) 97,37 %
07.09.2018 20:08 17,9 C 20,6 C 17,2 C 83 % 1014,6 hPa 0,0 l/m 0,0 km/h (0 Bft) SW 223 0 min 0,000 mm 0,0 UV-I 0 W/m 15,0 C 17,9 C 0,0 km/h (0 Bft) 98,00 %
07.09.2018 20:10 17,8 C 20,6 C 17,2 C 83 % 1014,7 hPa 0,0 l/m 1,5 km/h (1 Bft) SW 217 0 min 0,000 mm 0,0 UV-I 0 W/m 14,9 C 17,8 C 4,8 km/h (1 Bft) 97,87 %
07.09.2018 20:12 17,8 C 20,6 C 17,2 C 83 % 1014,7 hPa 0,0 l/m 0,4 km/h (0 Bft) SW 228 0 min 0,000 mm 0,0 UV-I 0 W/m 14,9 C 17,8 C 3,2 km/h (1 Bft) 97,87 %
07.09.2018 20:14 17,8 C 20,6 C 17,2 C 83 % 1014,7 hPa 0,0 l/m 1,3 km/h (1 Bft) W-SW 247 0 min 0,000 mm 0,0 UV-I 0 W/m 14,9 C 17,8 C 4,8 km/h (1 Bft) 96,23 %
07.09.2018 20:16 17,8 C 20,6 C 17,2 C 83 % 1014,8 hPa 0,0 l/m 0,0 km/h (0 Bft) W-SW 247 0 min 0,000 mm 0,0 UV-I 0 W/m 14,9 C 17,8 C 0,0 km/h (0 Bft) 95,74 %
07.09.2018 20:18 17,8 C 20,6 C 17,2 C 83 % 1014,8 hPa 0,0 l/m 0,0 km/h (0 Bft) W-SW 246 0 min 0,000 mm 0,0 UV-I 0 W/m 14,9 C 17,8 C 0,0 km/h (0 Bft) 93,62 %
07.09.2018 20:20 17,8 C 20,6 C 17,2 C 84 % 1014,8 hPa 0,0 l/m 0,1 km/h (0 Bft) SW 225 0 min 0,000 mm 0,0 UV-I 0 W/m 15,1 C 17,8 C 1,6 km/h (1 Bft) 97,87 %
07.09.2018 20:22 17,7 C 20,6 C 17,2 C 84 % 1014,8 hPa 0,0 l/m 0,6 km/h (0 Bft) SW 229 0 min 0,000 mm 0,0 UV-I 0 W/m 15,0 C 17,7 C 3,2 km/h (1 Bft) 100,00 %
07.09.2018 20:24 17,7 C 20,6 C 17,2 C 84 % 1014,9 hPa 0,0 l/m 0,9 km/h (0 Bft) W-SW 246 0 min 0,000 mm 0,0 UV-I 0 W/m 15,0 C 17,7 C 3,2 km/h (1 Bft) 96,15 %
07.09.2018 20:26 17,7 C 20,6 C 17,2 C 85 % 1014,9 hPa 0,0 l/m 0,6 km/h (0 Bft) W-SW 241 0 min 0,000 mm 0,0 UV-I 0 W/m 15,1 C 17,7 C 3,2 km/h (1 Bft) 97,87 %
07.09.2018 20:28 17,7 C 20,6 C 17,2 C 85 % 1014,9 hPa 0,0 l/m 0,5 km/h (0 Bft) SW 229 0 min 0,000 mm 0,0 UV-I 0 W/m 15,1 C 17,7 C 3,2 km/h (1 Bft) 97,87 %
07.09.2018 20:30 17,6 C 20,6 C 17,2 C 85 % 1014,9 hPa 0,0 l/m 0,2 km/h (0 Bft) SW 221 0 min 0,000 mm 0,0 UV-I 0 W/m 15,0 C 17,6 C 1,6 km/h (1 Bft) 100,00 %
07.09.2018 20:32 17,6 C 20,6 C 17,2 C 85 % 1014,9 hPa 0,0 l/m 1,3 km/h (1 Bft) SW 232 0 min 0,000 mm 0,0 UV-I 0 W/m 15,0 C 17,6 C 4,8 km/h (1 Bft) 98,00 %
07.09.2018 20:34 17,6 C 20,6 C 16,7 C 85 % 1014,9 hPa 0,0 l/m 0,7 km/h (0 Bft) SW 228 0 min 0,000 mm 0,0 UV-I 0 W/m 15,0 C 17,6 C 3,2 km/h (1 Bft) 97,87 %
07.09.2018 20:36 17,6 C 20,6 C 16,7 C 85 % 1014,9 hPa 0,0 l/m 0,8 km/h (0 Bft) W-SW 242 0 min 0,000 mm 0,0 UV-I 0 W/m 15,0 C 17,6 C 4,8 km/h (1 Bft) 100,00 %
07.09.2018 20:38 17,6 C 20,6 C 16,7 C 85 % 1015,0 hPa 0,0 l/m 0,5 km/h (0 Bft) SW 234 0 min 0,000 mm 0,0 UV-I 0 W/m 15,0 C 17,6 C 4,8 km/h (1 Bft) 93,62 %
07.09.2018 20:40 17,6 C 20,6 C 16,7 C 85 % 1015,0 hPa 0,0 l/m 0,0 km/h (0 Bft) W-SW 237 0 min 0,000 mm 0,0 UV-I 0 W/m 15,0 C 17,6 C 0,0 km/h (0 Bft) 95,74 %
07.09.2018 20:42 17,6 C 20,6 C 16,7 C 85 % 1015,0 hPa 0,0 l/m 0,0 km/h (0 Bft) SW 222 0 min 0,000 mm 0,0 UV-I 0 W/m 15,0 C 17,6 C 0,0 km/h (0 Bft) 97,87 %
07.09.2018 20:44 17,5 C 20,6 C 16,7 C 86 % 1015,0 hPa 0,0 l/m 0,0 km/h (0 Bft) W-SW 241 0 min 0,000 mm 0,0 UV-I 0 W/m 15,1 C 17,5 C 0,0 km/h (0 Bft) 97,87 %
07.09.2018 20:46 17,5 C 20,6 C 16,7 C 86 % 1015,0 hPa 0,0 l/m 0,5 km/h (0 Bft) W-SW 240 0 min 0,000 mm 0,0 UV-I 0 W/m 15,1 C 17,5 C 3,2 km/h (1 Bft) 97,87 %
07.09.2018 20:48 17,5 C 20,6 C 16,7 C 86 % 1015,0 hPa 0,0 l/m 1,4 km/h (1 Bft) W-SW 246 0 min 0,000 mm 0,0 UV-I 0 W/m 15,1 C 17,5 C 6,4 km/h (2 Bft) 97,87 %
07.09.2018 20:50 17,5 C 20,6 C 16,7 C 86 % 1015,0 hPa 0,0 l/m 3,6 km/h (1 Bft) SW 216 0 min 0,000 mm 0,0 UV-I 0 W/m 15,1 C 17,5 C 6,4 km/h (2 Bft) 93,62 %
07.09.2018 20:52 17,5 C 20,6 C 16,7 C 86 % 1015,0 hPa 0,0 l/m 4,9 km/h (1 Bft) SW 236 0 min 0,000 mm 0,0 UV-I 0 W/m 15,1 C 17,5 C 8,0 km/h (2 Bft) 91,49 %
07.09.2018 20:54 17,5 C 20,6 C 16,7 C 86 % 1015,0 hPa 0,0 l/m 3,4 km/h (1 Bft) SW 230 0 min 0,000 mm 0,0 UV-I 0 W/m 15,1 C 17,5 C 8,0 km/h (2 Bft) 97,87 %
07.09.2018 20:56 17,6 C 20,6 C 17,2 C 86 % 1015,1 hPa 0,0 l/m 4,1 km/h (1 Bft) SW 227 0 min 0,000 mm 0,0 UV-I 0 W/m 15,2 C 17,6 C 8,0 km/h (2 Bft) 100,00 %
07.09.2018 20:58 17,6 C 20,6 C 17,2 C 86 % 1015,1 hPa 0,0 l/m 3,4 km/h (1 Bft) SW 233 0 min 0,000 mm 0,0 UV-I 0 W/m 15,2 C 17,6 C 11,3 km/h (2 Bft) 93,62 %
07.09.2018 21:00 17,7 C 20,6 C 17,2 C 86 % 1015,2 hPa 0,0 l/m 4,5 km/h (1 Bft) W-SW 237 0 min 0,000 mm 0,0 UV-I 0 W/m 15,3 C 17,7 C 8,0 km/h (2 Bft) 97,87 %
07.09.2018 21:02 17,7 C 20,6 C 17,2 C 86 % 1015,1 hPa 0,0 l/m 4,3 km/h (1 Bft) W-SW 245 0 min 0,000 mm 0,0 UV-I 0 W/m 15,3 C 17,7 C 9,7 km/h (2 Bft) 97,87 %
07.09.2018 21:04 17,7 C 20,6 C 17,2 C 86 % 1015,2 hPa 0,0 l/m 6,1 km/h (2 Bft) SW 235 0 min 0,000 mm 0,0 UV-I 0 W/m 15,3 C 17,7 C 12,9 km/h (3 Bft) 100,00 %
07.09.2018 21:06 17,7 C 20,6 C 17,2 C 86 % 1015,2 hPa 0,0 l/m 7,1 km/h (2 Bft) W 263 0 min 0,000 mm 0,0 UV-I 0 W/m 15,3 C 17,4 C 12,9 km/h (3 Bft) 100,00 %
07.09.2018 21:08 17,7 C 20,6 C 17,2 C 86 % 1015,2 hPa 0,0 l/m 8,9 km/h (2 Bft) SW 230 0 min 0,000 mm 0,0 UV-I 0 W/m 15,3 C 16,5 C 14,5 km/h (3 Bft) 100,00 %
07.09.2018 21:10 17,7 C 20,6 C 17,2 C 86 % 1015,3 hPa 0,0 l/m 7,4 km/h (2 Bft) W 263 0 min 0,000 mm 0,0 UV-I 0 W/m 15,3 C 17,2 C 12,9 km/h (3 Bft) 100,00 %
07.09.2018 21:12 17,7 C 20,6 C 17,2 C 86 % 1015,3 hPa 0,0 l/m 6,9 km/h (2 Bft) W-SW 242 0 min 0,000 mm 0,0 UV-I 0 W/m 15,3 C 17,5 C 12,9 km/h (3 Bft) 100,00 %
07.09.2018 21:14 17,7 C 20,6 C 17,2 C 86 % 1015,3 hPa 0,0 l/m 4,1 km/h (1 Bft) SW 232 0 min 0,000 mm 0,0 UV-I 0 W/m 15,3 C 17,7 C 8,0 km/h (2 Bft) 100,00 %
07.09.2018 21:16 17,7 C 20,6 C 17,2 C 86 % 1015,4 hPa 0,0 l/m 4,5 km/h (1 Bft) W 267 0 min 0,000 mm 0,0 UV-I 0 W/m 15,3 C 17,7 C 11,3 km/h (2 Bft) 97,87 %
07.09.2018 21:18 17,7 C 20,6 C 17,2 C 86 % 1015,4 hPa 0,0 l/m 8,7 km/h (2 Bft) W 271 0 min 0,000 mm 0,0 UV-I 0 W/m 15,3 C 16,6 C 16,1 km/h (3 Bft) 100,00 %
07.09.2018 21:20 17,8 C 20,6 C 17,2 C 86 % 1015,4 hPa 0,0 l/m 8,1 km/h (2 Bft) W 268 0 min 0,000 mm 0,0 UV-I 0 W/m 15,4 C 17,0 C 14,5 km/h (3 Bft) 100,00 %
07.09.2018 21:22 17,8 C 20,6 C 17,2 C 86 % 1015,4 hPa 0,0 l/m 9,9 km/h (2 Bft) W-SW 237 0 min 0,000 mm 0,0 UV-I 0 W/m 15,4 C 16,2 C 16,1 km/h (3 Bft) 97,14 %
07.09.2018 21:24 17,8 C 20,6 C 17,2 C 86 % 1015,4 hPa 0,0 l/m 12,9 km/h (3 Bft) W 259 0 min 0,000 mm 0,0 UV-I 0 W/m 15,4 C 15,2 C 19,3 km/h (3 Bft) 100,00 %
07.09.2018 21:26 17,9 C 20,6 C 17,8 C 85 % 1015,5 hPa 0,0 l/m 10,8 km/h (2 Bft) W-SW 243 0 min 0,000 mm 0,0 UV-I 0 W/m 15,3 C 16,0 C 14,5 km/h (3 Bft) 97,87 %
07.09.2018 21:28 18,0 C 20,6 C 17,8 C 85 % 1015,5 hPa 0,0 l/m 8,2 km/h (2 Bft) W 267 0 min 0,000 mm 0,0 UV-I 0 W/m 15,4 C 17,2 C 14,5 km/h (3 Bft) 100,00 %
07.09.2018 21:30 18,0 C 20,6 C 17,8 C 85 % 1015,5 hPa 0,0 l/m 9,7 km/h (2 Bft) W-NW 290 0 min 0,000 mm 0,0 UV-I 0 W/m 15,4 C 16,5 C 19,3 km/h (3 Bft) 100,00 %
07.09.2018 21:32 18,1 C 20,6 C 17,8 C 84 % 1015,5 hPa 0,0 l/m 10,3 km/h (2 Bft) SW 216 0 min 0,000 mm 0,0 UV-I 0 W/m 15,4 C 16,4 C 14,5 km/h (3 Bft) 100,00 %
07.09.2018 21:34 18,1 C 20,6 C 17,8 C 84 % 1015,5 hPa 0,0 l/m 6,4 km/h (2 Bft) W 263 0 min 0,000 mm 0,0 UV-I 0 W/m 15,4 C 18,1 C 12,9 km/h (3 Bft) 97,87 %
07.09.2018 21:36 18,1 C 20,6 C 17,8 C 84 % 1015,5 hPa 0,0 l/m 5,4 km/h (1 Bft) W 266 0 min 0,000 mm 0,0 UV-I 0 W/m 15,4 C 18,1 C 12,9 km/h (3 Bft) 100,00 %
07.09.2018 21:38 18,1 C 20,6 C 17,8 C 84 % 1015,6 hPa 0,0 l/m 7,7 km/h (2 Bft) W-SW 254 0 min 0,000 mm 0,0 UV-I 0 W/m 15,4 C 17,5 C 12,9 km/h (3 Bft) 100,00 %
07.09.2018 21:40 18,0 C 20,6 C 17,8 C 84 % 1015,6 hPa 0,0 l/m 5,7 km/h (1 Bft) W-SW 244 0 min 0,000 mm 0,0 UV-I 0 W/m 15,3 C 18,0 C 11,3 km/h (2 Bft) 100,00 %
07.09.2018 21:42 18,0 C 20,6 C 17,8 C 85 % 1015,7 hPa 0,0 l/m 8,1 km/h (2 Bft) SW 231 0 min 0,000 mm 0,0 UV-I 0 W/m 15,4 C 17,2 C 20,9 km/h (4 Bft) 100,00 %
07.09.2018 21:44 17,9 C 20,6 C 17,2 C 85 % 1015,6 hPa 0,0 l/m 6,8 km/h (2 Bft) W-SW 238 0 min 0,000 mm 0,0 UV-I 0 W/m 15,3 C 17,7 C 16,1 km/h (3 Bft) 97,87 %
07.09.2018 21:46 17,9 C 20,6 C 17,2 C 85 % 1015,7 hPa 0,0 l/m 6,7 km/h (2 Bft) W-SW 237 0 min 0,000 mm 0,0 UV-I 0 W/m 15,3 C 17,8 C 14,5 km/h (3 Bft) 97,92 %
07.09.2018 21:48 17,9 C 20,6 C 17,2 C 85 % 1015,7 hPa 0,0 l/m 7,0 km/h (2 Bft) W-SW 250 0 min 0,000 mm 0,0 UV-I 0 W/m 15,3 C 17,6 C 14,5 km/h (3 Bft) 100,00 %
07.09.2018 21:50 17,9 C 20,6 C 17,2 C 85 % 1015,7 hPa 0,0 l/m 8,7 km/h (2 Bft) W-SW 246 0 min 0,000 mm 0,0 UV-I 0 W/m 15,3 C 16,8 C 14,5 km/h (3 Bft) 100,00 %
07.09.2018 21:52 17,8 C 20,6 C 17,2 C 85 % 1015,8 hPa 0,0 l/m 7,0 km/h (2 Bft) W-SW 238 0 min 0,000 mm 0,0 UV-I 0 W/m 15,2 C 17,5 C 12,9 km/h (3 Bft) 97,87 %
07.09.2018 21:54 17,8 C 20,6 C 17,2 C 85 % 1015,7 hPa 0,0 l/m 5,0 km/h (1 Bft) W-SW 257 0 min 0,000 mm 0,0 UV-I 0 W/m 15,2 C 17,8 C 16,1 km/h (3 Bft) 97,87 %
07.09.2018 21:56 17,8 C 20,6 C 17,2 C 85 % 1015,8 hPa 0,0 l/m 9,8 km/h (2 Bft) SW 235 0 min 0,000 mm 0,0 UV-I 0 W/m 15,2 C 16,3 C 17,7 km/h (3 Bft) 97,87 %
07.09.2018 21:58 17,8 C 20,6 C 17,2 C 85 % 1015,8 hPa 0,0 l/m 10,5 km/h (2 Bft) W-SW 252 0 min 0,000 mm 0,0 UV-I 0 W/m 15,2 C 16,0 C 14,5 km/h (3 Bft) 95,74 %
07.09.2018 22:00 17,8 C 20,6 C 17,2 C 85 % 1015,8 hPa 0,0 l/m 7,9 km/h (2 Bft) W-SW 255 0 min 0,000 mm 0,0 UV-I 0 W/m 15,2 C 17,1 C 14,5 km/h (3 Bft) 97,14 %
07.09.2018 22:02 17,7 C 20,6 C 17,2 C 85 % 1015,8 hPa 0,0 l/m 10,4 km/h (2 Bft) W 271 0 min 0,026 mm 0,0 UV-I 0 W/m 15,1 C 15,9 C 17,7 km/h (3 Bft) 98,08 %
07.09.2018 22:04 17,7 C 20,6 C 17,2 C 85 % 1015,8 hPa 0,0 l/m 11,3 km/h (2 Bft) W 263 0 min 0,000 mm 0,0 UV-I 0 W/m 15,1 C 15,6 C 16,1 km/h (3 Bft) 94,00 %
07.09.2018 22:06 17,7 C 20,6 C 17,2 C 85 % 1015,8 hPa 0,0 l/m 9,6 km/h (2 Bft) W 263 0 min 0,000 mm 0,0 UV-I 0 W/m 15,1 C 16,3 C 14,5 km/h (3 Bft) 98,00 %
07.09.2018 22:08 17,7 C 20,6 C 17,2 C 85 % 1015,8 hPa 0,0 l/m 8,3 km/h (2 Bft) W 271 0 min 0,000 mm 0,0 UV-I 0 W/m 15,1 C 16,8 C 14,5 km/h (3 Bft) 95,74 %
07.09.2018 22:10 17,7 C 20,6 C 17,2 C 85 % 1015,8 hPa 0,0 l/m 11,3 km/h (2 Bft) W-SW 249 0 min 0,000 mm 0,0 UV-I 0 W/m 15,1 C 15,6 C 17,7 km/h (3 Bft) 94,74 %
07.09.2018 22:12 17,7 C 20,6 C 17,2 C 85 % 1015,9 hPa 0,0 l/m 8,0 km/h (2 Bft) W 261 0 min 0,000 mm 0,0 UV-I 0 W/m 15,1 C 16,9 C 12,9 km/h (3 Bft) 95,74 %
07.09.2018 22:14 17,7 C 20,6 C 17,2 C 85 % 1015,9 hPa 0,0 l/m 5,5 km/h (1 Bft) W-SW 251 0 min 0,000 mm 0,0 UV-I 0 W/m 15,1 C 17,7 C 12,9 km/h (3 Bft) 95,74 %
07.09.2018 22:16 17,7 C 20,6 C 17,2 C 85 % 1015,9 hPa 0,0 l/m 9,5 km/h (2 Bft) W 261 0 min 0,000 mm 0,0 UV-I 0 W/m 15,1 C 16,3 C 16,1 km/h (3 Bft) 95,74 %
07.09.2018 22:18 17,7 C 20,6 C 17,2 C 85 % 1015,9 hPa 0,0 l/m 5,2 km/h (1 Bft) W 264 0 min 0,000 mm 0,0 UV-I 0 W/m 15,1 C 17,7 C 9,7 km/h (2 Bft) 92,00 %
07.09.2018 22:20 17,7 C 20,6 C 17,2 C 85 % 1015,9 hPa 0,0 l/m 6,9 km/h (2 Bft) W 267 0 min 0,000 mm 0,0 UV-I 0 W/m 15,1 C 17,5 C 12,9 km/h (3 Bft) 95,74 %
07.09.2018 22:22 17,6 C 20,6 C 17,2 C 85 % 1015,9 hPa 0,0 l/m 7,6 km/h (2 Bft) SW 236 0 min 0,000 mm 0,0 UV-I 0 W/m 15,0 C 17,0 C 14,5 km/h (3 Bft) 92,00 %
07.09.2018 22:24 17,6 C 20,6 C 17,2 C 85 % 1015,9 hPa 0,0 l/m 4,9 km/h (1 Bft) SW 225 0 min 0,000 mm 0,0 UV-I 0 W/m 15,0 C 17,6 C 11,3 km/h (2 Bft) 95,74 %
07.09.2018 22:26 17,6 C 20,6 C 17,2 C 85 % 1015,9 hPa 0,0 l/m 7,2 km/h (2 Bft) W-SW 253 0 min 0,000 mm 0,0 UV-I 0 W/m 15,0 C 17,2 C 9,7 km/h (2 Bft) 93,62 %
07.09.2018 22:28 17,6 C 20,6 C 17,2 C 85 % 1016,0 hPa 0,0 l/m 4,9 km/h (1 Bft) SW 236 0 min 0,000 mm 0,0 UV-I 0 W/m 15,0 C 17,6 C 12,9 km/h (3 Bft) 97,92 %
07.09.2018 22:30 17,6 C 20,6 C 17,2 C 85 % 1016,0 hPa 0,0 l/m 8,9 km/h (2 Bft) W 264 0 min 0,000 mm 0,0 UV-I 0 W/m 15,0 C 16,4 C 16,1 km/h (3 Bft) 97,87 %
07.09.2018 22:32 17,5 C 20,6 C 17,2 C 85 % 1016,0 hPa 0,0 l/m 8,3 km/h (2 Bft) W-SW 244 0 min 0,000 mm 0,0 UV-I 0 W/m 14,9 C 16,6 C 16,1 km/h (3 Bft) 97,87 %
07.09.2018 22:34 17,5 C 20,6 C 17,2 C 85 % 1016,0 hPa 0,0 l/m 6,8 km/h (2 Bft) W-SW 253 0 min 0,000 mm 0,0 UV-I 0 W/m 14,9 C 17,3 C 11,3 km/h (2 Bft) 100,00 %
07.09.2018 22:36 17,5 C 20,6 C 17,2 C 85 % 1016,0 hPa 0,0 l/m 3,0 km/h (1 Bft) SW 235 0 min 0,000 mm 0,0 UV-I 0 W/m 14,9 C 17,5 C 11,3 km/h (2 Bft) 100,00 %
07.09.2018 22:38 17,5 C 20,6 C 17,2 C 85 % 1016,0 hPa 0,0 l/m 7,8 km/h (2 Bft) W-SW 250 0 min 0,000 mm 0,0 UV-I 0 W/m 14,9 C 16,8 C 12,9 km/h (3 Bft) 96,00 %
07.09.2018 22:40 17,4 C 20,6 C 17,2 C 85 % 1016,0 hPa 0,0 l/m 5,3 km/h (1 Bft) W-SW 248 0 min 0,000 mm 0,0 UV-I 0 W/m 14,8 C 17,4 C 11,3 km/h (2 Bft) 100,00 %
07.09.2018 22:42 17,4 C 20,6 C 17,2 C 85 % 1016,0 hPa 0,0 l/m 2,9 km/h (1 Bft) W 266 0 min 0,000 mm 0,0 UV-I 0 W/m 14,8 C 17,4 C 9,7 km/h (2 Bft) 98,00 %
07.09.2018 22:44 17,4 C 20,6 C 17,2 C 85 % 1016,0 hPa 0,0 l/m 6,3 km/h (2 Bft) W-SW 242 0 min 0,000 mm 0,0 UV-I 0 W/m 14,8 C 17,4 C 12,9 km/h (3 Bft) 100,00 %
07.09.2018 22:46 17,4 C 20,6 C 16,7 C 85 % 1016,1 hPa 0,0 l/m 7,4 km/h (2 Bft) W 263 0 min 0,000 mm 0,0 UV-I 0 W/m 14,8 C 16,9 C 14,5 km/h (3 Bft) 96,00 %
07.09.2018 22:49 17,4 C 20,6 C 16,7 C 85 % 1016,0 hPa 0,0 l/m 6,1 km/h (2 Bft) W 264 0 min 0,000 mm 0,0 UV-I 0 W/m 14,8 C 17,4 C 11,3 km/h (2 Bft) 97,30 %
07.09.2018 22:50 17,4 C 20,6 C 16,7 C 86 % 1016,0 hPa 0,0 l/m 5,9 km/h (2 Bft) W-SW 258 0 min 0,000 mm 0,0 UV-I 0 W/m 15,0 C 17,4 C 11,3 km/h (2 Bft) 100,00 %
07.09.2018 22:52 17,3 C 20,6 C 16,7 C 86 % 1016,2 hPa 0,0 l/m 4,7 km/h (1 Bft) W-SW 240 0 min 0,000 mm 0,0 UV-I 0 W/m 14,9 C 17,3 C 9,7 km/h (2 Bft) 95,74 %
07.09.2018 22:54 17,3 C 20,6 C 16,1 C 86 % 1016,1 hPa 0,0 l/m 1,2 km/h (1 Bft) W-SW 248 0 min 0,000 mm 0,0 UV-I 0 W/m 14,9 C 17,3 C 4,8 km/h (1 Bft) 95,74 %
07.09.2018 22:56 17,3 C 20,6 C 16,1 C 86 % 1016,1 hPa 0,0 l/m 2,3 km/h (1 Bft) SW 231 0 min 0,000 mm 0,0 UV-I 0 W/m 14,9 C 17,3 C 6,4 km/h (2 Bft) 96,23 %
07.09.2018 22:58 17,2 C 20,6 C 16,1 C 87 % 1016,1 hPa 0,0 l/m 0,5 km/h (0 Bft) W-SW 240 0 min 0,000 mm 0,0 UV-I 0 W/m 15,0 C 17,2 C 4,8 km/h (1 Bft) 97,87 %
07.09.2018 23:00 17,2 C 20,6 C 16,1 C 87 % 1016,1 hPa 0,0 l/m 2,3 km/h (1 Bft) SW 226 0 min 0,000 mm 0,0 UV-I 0 W/m 15,0 C 17,2 C 4,8 km/h (1 Bft) 95,74 %
07.09.2018 23:02 17,1 C 20,6 C 16,1 C 87 % 1016,1 hPa 0,0 l/m 3,0 km/h (1 Bft) SW 236 0 min 0,025 mm 0,0 UV-I 0 W/m 14,9 C 17,1 C 6,4 km/h (2 Bft) 98,00 %
07.09.2018 23:04 17,1 C 20,6 C 16,1 C 87 % 1016,1 hPa 0,0 l/m 3,1 km/h (1 Bft) W-SW 243 0 min 0,000 mm 0,0 UV-I 0 W/m 14,9 C 17,1 C 8,0 km/h (2 Bft) 97,44 %
07.09.2018 23:06 17,0 C 20,6 C 16,1 C 88 % 1016,1 hPa 0,0 l/m 4,1 km/h (1 Bft) W-SW 247 0 min 0,000 mm 0,0 UV-I 0 W/m 15,0 C 17,0 C 8,0 km/h (2 Bft) 97,87 %
07.09.2018 23:08 16,9 C 20,6 C 16,1 C 88 % 1016,2 hPa 0,0 l/m 3,8 km/h (1 Bft) W-SW 250 0 min 0,000 mm 0,0 UV-I 0 W/m 14,9 C 16,9 C 8,0 km/h (2 Bft) 96,00 %
07.09.2018 23:10 16,9 C 20,6 C 16,1 C 88 % 1016,2 hPa 0,0 l/m 2,8 km/h (1 Bft) SW 223 0 min 0,000 mm 0,0 UV-I 0 W/m 14,9 C 16,9 C 6,4 km/h (2 Bft) 97,87 %
07.09.2018 23:12 16,9 C 20,6 C 16,1 C 88 % 1016,2 hPa 0,0 l/m 4,5 km/h (1 Bft) W-SW 238 0 min 0,000 mm 0,0 UV-I 0 W/m 14,9 C 16,9 C 8,0 km/h (2 Bft) 97,87 %
07.09.2018 23:14 16,9 C 20,6 C 16,1 C 88 % 1016,2 hPa 0,0 l/m 3,4 km/h (1 Bft) W-SW 238 0 min 0,000 mm 0,0 UV-I 0 W/m 14,9 C 16,9 C 6,4 km/h (2 Bft) 93,62 %
07.09.2018 23:16 16,8 C 20,6 C 16,1 C 88 % 1016,3 hPa 0,0 l/m 5,6 km/h (1 Bft) SW 234 0 min 0,000 mm 0,0 UV-I 0 W/m 14,8 C 16,8 C 8,0 km/h (2 Bft) 93,62 %
07.09.2018 23:19 16,8 C 20,6 C 15,6 C 88 % 1016,3 hPa 0,0 l/m 5,5 km/h (1 Bft) SW 231 0 min 0,000 mm 0,0 UV-I 0 W/m 14,8 C 16,8 C 12,9 km/h (3 Bft) 95,77 %
07.09.2018 23:20 16,7 C 20,6 C 15,6 C 88 % 1016,3 hPa 0,0 l/m 8,0 km/h (2 Bft) W-SW 248 0 min 0,000 mm 0,0 UV-I 0 W/m 14,7 C 15,9 C 12,9 km/h (3 Bft) 100,00 %
07.09.2018 23:22 16,7 C 20,6 C 15,6 C 88 % 1016,4 hPa 0,0 l/m 7,3 km/h (2 Bft) SW 235 0 min 0,000 mm 0,0 UV-I 0 W/m 14,7 C 16,2 C 11,3 km/h (2 Bft) 95,74 %
07.09.2018 23:24 16,7 C 20,6 C 15,6 C 88 % 1016,3 hPa 0,0 l/m 5,1 km/h (1 Bft) SW 229 0 min 0,000 mm 0,0 UV-I 0 W/m 14,7 C 16,7 C 9,7 km/h (2 Bft) 95,74 %
07.09.2018 23:26 16,7 C 20,6 C 15,6 C 89 % 1016,3 hPa 0,0 l/m 4,5 km/h (1 Bft) SW 228 0 min 0,000 mm 0,0 UV-I 0 W/m 14,9 C 16,7 C 11,3 km/h (2 Bft) 97,87 %
07.09.2018 23:29 16,7 C 20,6 C 15,6 C 89 % 1016,3 hPa 0,0 l/m 4,8 km/h (1 Bft) W 263 0 min 0,000 mm 0,0 UV-I 0 W/m 14,9 C 16,7 C 8,0 km/h (2 Bft) 98,59 %
07.09.2018 23:30 16,6 C 20,6 C 15,6 C 89 % 1016,3 hPa 0,0 l/m 2,5 km/h (1 Bft) W-SW 250 0 min 0,000 mm 0,0 UV-I 0 W/m 14,8 C 16,6 C 6,4 km/h (2 Bft) 95,65 %
07.09.2018 23:32 16,6 C 20,6 C 15,6 C 89 % 1016,3 hPa 0,0 l/m 5,4 km/h (1 Bft) W-SW 258 0 min 0,000 mm 0,0 UV-I 0 W/m 14,8 C 16,6 C 12,9 km/h (3 Bft) 97,44 %
07.09.2018 23:34 16,6 C 20,6 C 15,6 C 89 % 1016,4 hPa 0,0 l/m 4,3 km/h (1 Bft) W 275 0 min 0,000 mm 0,0 UV-I 0 W/m 14,8 C 16,6 C 11,3 km/h (2 Bft) 97,87 %
07.09.2018 23:36 16,6 C 20,6 C 15,6 C 89 % 1016,4 hPa 0,0 l/m 3,5 km/h (1 Bft) W 263 0 min 0,000 mm 0,0 UV-I 0 W/m 14,8 C 16,6 C 8,0 km/h (2 Bft) 96,36 %
07.09.2018 23:38 16,6 C 20,6 C 15,6 C 89 % 1016,4 hPa 0,0 l/m 4,1 km/h (1 Bft) W-SW 252 0 min 0,000 mm 0,0 UV-I 0 W/m 14,8 C 16,6 C 9,7 km/h (2 Bft) 93,62 %
07.09.2018 23:40 16,6 C 20,6 C 16,1 C 89 % 1016,4 hPa 0,0 l/m 5,2 km/h (1 Bft) W 260 0 min 0,000 mm 0,0 UV-I 0 W/m 14,8 C 16,6 C 12,9 km/h (3 Bft) 95,83 %
07.09.2018 23:42 16,6 C 20,6 C 16,1 C 89 % 1016,4 hPa 0,0 l/m 7,8 km/h (2 Bft) W 261 0 min 0,000 mm 0,0 UV-I 0 W/m 14,8 C 15,9 C 12,9 km/h (3 Bft) 97,37 %
07.09.2018 23:44 16,6 C 20,6 C 16,1 C 89 % 1016,4 hPa 0,0 l/m 8,6 km/h (2 Bft) W 265 0 min 0,000 mm 0,0 UV-I 0 W/m 14,8 C 15,5 C 12,9 km/h (3 Bft) 91,49 %
07.09.2018 23:46 16,7 C 20,6 C 16,1 C 89 % 1016,5 hPa 0,0 l/m 6,3 km/h (2 Bft) W 263 0 min 0,000 mm 0,0 UV-I 0 W/m 14,9 C 16,7 C 11,3 km/h (2 Bft) 95,74 %
07.09.2018 23:49 16,7 C 20,6 C 16,1 C 89 % 1016,5 hPa 0,0 l/m 5,6 km/h (1 Bft) W-SW 254 0 min 0,000 mm 0,0 UV-I 0 W/m 14,9 C 16,7 C 11,3 km/h (2 Bft) 94,29 %
07.09.2018 23:50 16,7 C 20,6 C 16,1 C 89 % 1016,5 hPa 0,0 l/m 3,7 km/h (1 Bft) W-SW 253 0 min 0,000 mm 0,0 UV-I 0 W/m 14,9 C 16,7 C 8,0 km/h (2 Bft) 93,55 %
07.09.2018 23:52 16,7 C 20,6 C 16,1 C 89 % 1016,5 hPa 0,0 l/m 6,1 km/h (2 Bft) W-SW 257 0 min 0,000 mm 0,0 UV-I 0 W/m 14,9 C 16,7 C 12,9 km/h (3 Bft) 95,74 %
07.09.2018 23:54 16,7 C 20,6 C 16,1 C 89 % 1016,5 hPa 0,0 l/m 5,6 km/h (1 Bft) W-SW 246 0 min 0,000 mm 0,0 UV-I 0 W/m 14,9 C 16,7 C 9,7 km/h (2 Bft) 93,62 %
07.09.2018 23:56 16,7 C 20,6 C 16,1 C 89 % 1016,5 hPa 0,0 l/m 6,4 km/h (2 Bft) W 267 0 min 0,000 mm 0,0 UV-I 0 W/m 14,9 C 16,7 C 14,5 km/h (3 Bft) 92,11 %
07.09.2018 23:58 16,7 C 20,6 C 16,1 C 89 % 1016,5 hPa 0,0 l/m 5,5 km/h (1 Bft) W-SW 246 0 min 0,000 mm 0,0 UV-I 0 W/m 14,9 C 16,7 C 11,3 km/h (2 Bft) 93,62 %
_ Min-Zeit 05:34 07:46 00:34 17:12 00:54 - 00:00 - - - - - - 05:34 05:34 00:00 14:52
Minimum _ 12,9 C 20,0 C 11,7 C 76 % 1008,8 hPa - 0,0 km/h (0 Bft) - - - - - - 11,6 C 12,9 C 0,0 km/h (0 Bft) 87,23 %
_ Max-Zeit 17:12 00:00 16:30 03:06 23:46 14:52 14:14 - - 16:19 16:00 13:36 16:30 15:06 17:14 14:04 00:54
Maximum _ 20,2 C 21,1 C 24,4 C 93 % 1016,5 hPa 0,2 l/m 19,2 km/h
W (3 Bft)
- - 3 min 0,178 mm 2,2 UV-I 484 W/m 16,9 C 20,2 C 30,6 km/h
W-SW (5 Bft)
100,00 %
Durchschnitt _ 17,0 C 20,6 C 17,3 C 85 % 1012,2 hPa #0,2 l/m 5,4 km/h (1 Bft) W-SW - #1:26 h #1,524 mm 1,2 UV-I 161 W/m 14,4 C 16,4 C 10,4 km/h (2 Bft) 97,05 %